[[{"header":{"parameterUnit":"m.s-1","parameterCategory":1,"la1":31.0,"la2":29.5877,"lo1":-88.7671,"lo2":-86.6584,"dx":0.0162,"dy":0.0185,"nx":115,"ny":88,"refTime":"2023-01-30T06:00:00:Z","depth":0,"parameterNumber":2,"parameterNumberName":"U-component_of_WINDS"},"data":[0.0,0.0,0.0,0.0,0.0,0.0,0.0,0.0,0.0,0.0,0.0,0.0,0.0,0.0,0.0,0.0,0.0,0.0,0.0,0.0,0.0,0.0,0.0,0.0,0.0,0.0,0.0,0.0,0.0,0.0,0.0,0.0,0.0,0.0,0.0,0.0,0.0,0.0,0.0,0.0,0.0,0.0,0.0,0.0,0.0,0.0,0.0,0.0,0.0,0.0,0.0,0.0,0.0,0.0,0.0,0.0,0.0,0.0,0.0,0.0,0.0,0.0,0.0,0.0,0.0,0.0,0.0,0.0,0.0,0.0,0.0,0.0,0.0,0.0,0.0,0.0,0.0,0.0,0.0,0.0,0.0,0.0,0.0,0.0,0.0,0.0,0.0,0.0,0.0,0.0,0.0,0.0,0.0,0.0,0.0,0.0,0.0,0.0,0.0,0.0,0.0,0.0,0.0,0.0,0.0,0.0,0.0,0.0,0.0,0.0,0.0,0.0,0.0,0.0,0.0,0.0,0.0,0.0,0.0,0.0,0.0,0.0,0.0,0.0,0.0,0.0,0.0,0.0,0.0,0.0,0.0,0.0,0.0,0.0,0.0,0.0,0.0,0.0,0.0,0.0,0.0,0.0,0.0,0.0,0.0,0.0,0.0,0.0,0.0,0.0,0.0,0.0,0.0,0.0,0.0,0.0,0.0,0.0,0.0,0.0,0.0,0.0,0.0,0.0,0.0,0.0,0.0,0.0,0.0,0.0,0.0,0.0,0.0,0.0,0.0,0.0,0.0,0.0,0.0,0.0,0.0,0.0,0.0,0.0,0.0,0.0,0.0,0.0,0.0,0.0,0.0,0.0,0.0,0.0,0.0,0.0,0.0,0.0,0.0,0.0,0.0,0.0,0.0,0.0,0.0,0.0,0.0,0.0,0.0,0.0,0.0,0.0,0.0,0.0,0.0,0.0,0.0,0.0,0.0,0.0,0.0,0.0,0.0,0.0,0.0,0.0,0.0,0.0,0.0,0.0,0.0,0.0,0.0,0.0,0.0,0.0,0.0,0.0,0.0,0.0,0.0,0.0,0.0,0.0,0.0,0.0,0.0,0.0,0.0,0.0,0.0,0.0,0.0,0.0,0.0,0.0,0.0,0.0,0.0,0.0,0.0,0.0,0.0,0.0,0.0,0.0,0.0,0.0,0.0,0.0,0.0,0.0,0.0,0.0,0.0,0.0,0.0,0.0,0.0,0.0,0.0,0.0,0.0,0.0,0.0,0.0,0.0,0.0,0.0,0.0,0.0,0.0,0.0,0.0,0.0,0.0,0.0,0.0,0.0,0.0,0.0,0.0,0.0,0.0,0.0,0.0,0.0,0.0,0.0,0.0,0.0,0.0,0.0,0.0,0.0,0.0,0.0,0.0,0.0,0.0,0.0,0.0,0.0,0.0,0.0,0.0,0.0,0.0,0.0,0.0,0.0,0.0,0.0,0.0,0.0,0.0,0.0,0.0,0.0,0.0,0.0,0.0,0.0,0.0,0.0,0.0,0.0,0.0,0.0,0.0,0.0,0.0,0.0,0.0,0.0,0.0,0.0,0.0,0.0,0.0,0.0,0.0,0.0,0.0,0.0,0.0,0.0,0.0,0.0,0.0,0.0,0.0,0.0,0.0,0.0,0.0,0.0,0.0,0.0,0.0,0.0,0.0,0.0,0.0,0.0,0.0,0.0,0.0,0.0,0.0,0.0,0.0,0.0,0.0,0.0,0.0,0.0,0.0,0.0,0.0,0.0,0.0,0.0,0.0,0.0,0.0,0.0,0.0,0.0,0.0,0.0,0.0,0.0,0.0,0.0,0.0,0.0,0.0,0.0,0.0,0.0,0.0,0.0,0.0,0.0,0.0,0.0,0.0,0.0,0.0,0.0,0.0,0.0,0.0,0.0,0.0,0.0,0.0,0.0,0.0,0.0,0.0,0.0,0.0,0.0,0.0,0.0,0.0,0.0,0.0,0.0,0.0,0.0,0.0,0.0,0.0,0.0,0.0,0.0,0.0,0.0,0.0,0.0,0.0,0.0,0.0,0.0,0.0,0.0,0.0,0.0,0.0,0.0,0.0,0.0,0.0,0.0,0.0,0.0,0.0,0.0,0.0,0.0,0.0,0.0,0.0,0.0,0.0,0.0,0.0,0.0,0.0,0.0,0.0,0.0,0.0,0.0,0.0,0.0,0.0,0.0,0.0,0.0,0.0,0.0,0.0,0.0,0.0,0.0,0.0,0.0,0.0,0.0,0.0,0.0,0.0,0.0,0.0,0.0,0.0,0.0,0.0,0.0,0.0,0.0,0.0,0.0,0.0,0.0,0.0,0.0,0.0,0.0,0.0,0.0,0.0,0.0,0.0,0.0,0.0,0.0,0.0,0.0,0.0,0.0,0.0,0.0,0.0,0.0,0.0,0.0,0.0,0.0,0.0,0.0,0.0,0.0,0.0,0.0,0.0,0.0,0.0,0.0,0.0,0.0,0.0,0.0,0.0,0.0,0.0,0.0,0.0,0.0,0.0,0.0,0.0,0.0,0.0,0.0,0.0,0.0,0.0,0.0,0.0,0.0,0.0,0.0,0.0,0.0,0.0,0.0,0.0,0.0,0.0,0.0,0.0,0.0,0.0,0.0,0.0,0.0,0.0,0.0,0.0,0.0,0.0,0.0,0.0,0.0,0.0,0.0,0.0,0.0,0.0,0.0,0.0,0.0,0.0,0.0,0.0,0.0,0.0,0.0,0.0,0.0,0.0,0.0,0.0,0.0,0.0,0.0,0.0,0.0,0.0,0.0,0.0,0.0,0.0,0.0,0.0,0.0,0.0,0.0,0.0,0.0,0.0,0.0,0.0,0.0,0.0,0.0,0.0,0.0,0.0,0.0,0.0,0.0,0.0,0.0,0.0,0.0,0.0,0.0,0.0,0.0,0.0,0.0,0.0,0.0,0.0,0.0,0.0,0.0,0.0,0.0,0.0,0.0,0.0,0.0,0.0,0.0,0.0,0.0,0.0,0.0,0.0,0.0,0.0,0.0,0.0,0.0,0.0,0.0,0.0,0.0,0.0,0.0,0.0,0.0,0.0,0.0,0.0,0.0,0.0,0.0,0.0,0.0,0.0,0.0,0.0,0.0,0.0,0.0,0.0,0.0,0.0,0.0,0.0,0.0,0.0,0.0,0.0,0.0,0.0,0.0,0.0,0.0,0.0,0.0,0.0,0.0,0.0,0.0,0.0,0.0,0.0,0.0,0.0,0.0,0.0,0.0,0.0,0.0,0.0,0.0,0.0,0.0,0.0,0.0,0.0,0.0,0.0,0.0,0.0,0.0,0.0,0.0,0.0,0.0,0.0,0.0,0.0,0.0,0.0,0.0,0.0,0.0,0.0,0.0,0.0,0.0,0.0,0.0,0.0,0.0,0.0,0.0,0.0,0.0,0.0,0.0,0.0,0.0,0.0,0.0,0.0,0.0,0.0,0.0,0.0,0.0,0.0,0.0,0.0,0.0,0.0,0.0,0.0,0.0,0.0,0.0,0.0,0.0,0.0,0.0,0.0,0.0,0.0,0.0,0.0,0.0,0.0,0.0,0.0,0.0,0.0,0.0,0.0,0.0,0.0,0.0,0.0,0.0,0.0,0.0,0.0,0.0,0.0,0.0,0.0,0.0,0.0,0.0,0.0,0.0,0.0,0.0,0.0,0.0,0.0,0.0,0.0,0.0,0.0,0.0,0.0,0.0,0.0,0.0,0.0,0.0,0.0,0.0,0.0,0.0,0.0,0.0,0.0,0.0,0.0,0.0,0.0,0.0,0.0,0.0,0.0,0.0,0.0,0.0,0.0,0.0,0.0,0.0,0.0,0.0,0.0,0.0,0.0,0.0,0.0,0.0,0.0,0.0,0.0,0.0,0.0,0.0,0.0,0.0,0.0,0.0,0.0,0.0,0.0,0.0,0.0,0.0,0.0,0.0,0.0,0.0,0.0,0.0,0.0,0.0,0.0,0.0,0.0,0.0,0.0,0.0,0.0,0.0,0.0,0.0,0.0,0.0,0.0,0.0,0.0,0.0,0.0,0.0,0.0,0.0,0.0,0.0,0.0,0.0,0.0,0.0,0.0,0.0,0.0,0.0,0.0,0.0,0.0,0.0,0.0,0.0,0.0,0.0,0.0,0.0,0.0,0.0,0.0,0.0,0.0,0.0,0.0,0.0,0.0,0.0,0.0,0.0,0.0,0.0,0.0,0.0,0.0,0.0,0.0,0.0,0.0,-4.098,0.0,0.0,0.0,0.0,0.0,0.0,0.0,0.0,0.0,0.0,0.0,0.0,0.0,0.0,0.0,0.0,0.0,0.0,0.0,0.0,0.0,0.0,0.0,0.0,0.0,0.0,0.0,0.0,0.0,0.0,0.0,0.0,0.0,0.0,0.0,0.0,0.0,0.0,0.0,0.0,0.0,0.0,0.0,0.0,0.0,0.0,0.0,0.0,0.0,0.0,0.0,0.0,0.0,0.0,0.0,0.0,0.0,0.0,0.0,0.0,0.0,0.0,0.0,0.0,0.0,0.0,0.0,0.0,0.0,0.0,0.0,0.0,0.0,0.0,0.0,0.0,0.0,0.0,0.0,0.0,0.0,0.0,0.0,0.0,0.0,0.0,0.0,0.0,0.0,0.0,0.0,0.0,0.0,0.0,0.0,0.0,0.0,0.0,0.0,0.0,0.0,0.0,0.0,0.0,0.0,0.0,0.0,0.0,0.0,0.0,-3.99,-3.99,-3.99,-4.0298,-4.115,0.0,0.0,0.0,0.0,0.0,0.0,0.0,0.0,0.0,0.0,0.0,0.0,0.0,0.0,0.0,0.0,0.0,0.0,0.0,0.0,0.0,0.0,0.0,0.0,0.0,0.0,0.0,0.0,0.0,0.0,0.0,0.0,0.0,0.0,0.0,0.0,0.0,0.0,0.0,0.0,0.0,0.0,0.0,0.0,0.0,0.0,0.0,0.0,0.0,0.0,0.0,0.0,0.0,0.0,0.0,0.0,0.0,0.0,0.0,0.0,0.0,0.0,0.0,0.0,0.0,0.0,0.0,0.0,0.0,0.0,0.0,0.0,0.0,0.0,0.0,0.0,0.0,0.0,0.0,0.0,0.0,0.0,0.0,0.0,0.0,0.0,0.0,0.0,0.0,0.0,0.0,0.0,0.0,0.0,0.0,0.0,0.0,0.0,0.0,0.0,0.0,0.0,0.0,0.0,0.0,0.0,0.0,0.0,0.0,0.0,0.0,0.0,-3.99,-4.0393,-4.1454,0.0,0.0,0.0,0.0,0.0,0.0,0.0,0.0,0.0,0.0,0.0,0.0,0.0,0.0,0.0,0.0,0.0,0.0,0.0,0.0,0.0,0.0,0.0,0.0,0.0,0.0,0.0,0.0,0.0,0.0,0.0,0.0,0.0,0.0,0.0,0.0,0.0,0.0,0.0,0.0,0.0,0.0,0.0,0.0,0.0,0.0,0.0,0.0,0.0,0.0,0.0,0.0,0.0,0.0,0.0,0.0,0.0,0.0,0.0,0.0,0.0,0.0,0.0,0.0,0.0,0.0,0.0,0.0,0.0,0.0,0.0,0.0,0.0,0.0,0.0,0.0,0.0,0.0,0.0,0.0,0.0,0.0,0.0,0.0,0.0,0.0,0.0,0.0,0.0,0.0,0.0,0.0,0.0,0.0,0.0,0.0,0.0,0.0,0.0,0.0,0.0,0.0,0.0,0.0,0.0,0.0,0.0,0.0,0.0,0.0,-3.99,-3.99,-3.99,0.0,-4.223,0.0,0.0,0.0,0.0,0.0,0.0,0.0,0.0,0.0,0.0,0.0,0.0,0.0,0.0,0.0,0.0,0.0,0.0,0.0,0.0,0.0,0.0,0.0,0.0,0.0,0.0,0.0,0.0,0.0,0.0,0.0,0.0,0.0,0.0,0.0,0.0,0.0,0.0,0.0,0.0,0.0,0.0,0.0,0.0,0.0,0.0,0.0,0.0,0.0,0.0,0.0,0.0,0.0,0.0,0.0,0.0,0.0,0.0,0.0,0.0,0.0,0.0,0.0,0.0,0.0,0.0,0.0,0.0,0.0,0.0,0.0,0.0,0.0,0.0,0.0,0.0,0.0,0.0,0.0,0.0,0.0,0.0,0.0,0.0,0.0,0.0,0.0,0.0,0.0,0.0,0.0,0.0,0.0,0.0,0.0,0.0,0.0,0.0,0.0,0.0,0.0,0.0,0.0,0.0,0.0,0.0,0.0,0.0,0.0,0.0,-3.9773,-3.9792,-4.0272,-4.1139,0.0,0.0,0.0,0.0,0.0,0.0,0.0,0.0,0.0,0.0,0.0,0.0,0.0,0.0,0.0,0.0,0.0,0.0,0.0,0.0,0.0,0.0,0.0,0.0,0.0,0.0,0.0,0.0,0.0,0.0,0.0,0.0,0.0,0.0,0.0,0.0,0.0,0.0,0.0,0.0,0.0,0.0,0.0,0.0,0.0,0.0,0.0,0.0,0.0,0.0,0.0,0.0,0.0,0.0,0.0,0.0,0.0,0.0,0.0,0.0,0.0,0.0,0.0,0.0,0.0,0.0,0.0,0.0,0.0,0.0,0.0,0.0,0.0,0.0,0.0,0.0,0.0,0.0,0.0,0.0,0.0,0.0,0.0,0.0,0.0,0.0,0.0,0.0,0.0,0.0,0.0,0.0,0.0,0.0,0.0,0.0,0.0,0.0,0.0,0.0,0.0,0.0,0.0,0.0,0.0,0.0,0.0,0.0,0.0,0.0,-3.9739,-3.9705,-3.9743,-4.0578,-4.1373,-4.2041,0.0,0.0,0.0,0.0,0.0,0.0,0.0,0.0,0.0,0.0,0.0,0.0,0.0,0.0,0.0,0.0,0.0,0.0,0.0,0.0,0.0,0.0,0.0,0.0,0.0,0.0,0.0,0.0,0.0,0.0,0.0,0.0,0.0,0.0,0.0,0.0,0.0,0.0,0.0,0.0,0.0,0.0,0.0,0.0,0.0,0.0,0.0,0.0,0.0,0.0,0.0,0.0,0.0,0.0,0.0,0.0,0.0,0.0,0.0,0.0,0.0,0.0,0.0,0.0,0.0,0.0,0.0,0.0,0.0,0.0,0.0,0.0,0.0,0.0,0.0,0.0,0.0,0.0,0.0,0.0,0.0,0.0,0.0,0.0,0.0,0.0,0.0,0.0,0.0,0.0,0.0,0.0,0.0,0.0,0.0,0.0,0.0,0.0,0.0,0.0,0.0,0.0,0.0,0.0,0.0,0.0,0.0,0.0,-3.9717,-3.9705,-3.9705,-3.9724,-4.0658,-4.1207,0.0,0.0,0.0,0.0,0.0,0.0,0.0,0.0,0.0,0.0,0.0,0.0,0.0,0.0,0.0,0.0,0.0,0.0,0.0,0.0,0.0,0.0,0.0,0.0,0.0,0.0,0.0,0.0,0.0,0.0,0.0,0.0,0.0,0.0,0.0,0.0,0.0,0.0,0.0,0.0,0.0,0.0,0.0,0.0,0.0,0.0,0.0,0.0,0.0,0.0,0.0,0.0,0.0,0.0,0.0,0.0,0.0,0.0,0.0,0.0,0.0,0.0,0.0,0.0,0.0,0.0,0.0,0.0,0.0,0.0,0.0,0.0,0.0,0.0,0.0,0.0,0.0,0.0,0.0,0.0,0.0,0.0,0.0,0.0,0.0,0.0,0.0,0.0,0.0,0.0,0.0,0.0,0.0,0.0,0.0,0.0,0.0,0.0,0.0,0.0,0.0,0.0,0.0,0.0,0.0,0.0,0.0,0.0,0.0,-3.9705,-3.9604,-3.9623,-3.9705,-4.0061,-4.0552,0.0,0.0,0.0,0.0,0.0,0.0,0.0,0.0,0.0,0.0,0.0,0.0,0.0,0.0,0.0,0.0,0.0,0.0,0.0,0.0,0.0,0.0,0.0,0.0,0.0,0.0,0.0,0.0,0.0,0.0,0.0,0.0,0.0,0.0,0.0,0.0,0.0,0.0,0.0,0.0,0.0,0.0,0.0,0.0,0.0,0.0,0.0,0.0,0.0,0.0,0.0,0.0,0.0,0.0,0.0,0.0,0.0,0.0,0.0,0.0,0.0,0.0,0.0,0.0,0.0,0.0,0.0,0.0,0.0,0.0,0.0,0.0,0.0,0.0,0.0,0.0,0.0,0.0,0.0,0.0,0.0,0.0,0.0,0.0,0.0,0.0,0.0,0.0,0.0,0.0,0.0,0.0,0.0,0.0,0.0,0.0,0.0,0.0,0.0,0.0,0.0,0.0,0.0,0.0,0.0,0.0,0.0,0.0,0.0,-3.9705,0.0,-3.9611,-3.9693,-3.9758,-4.008,0.0,0.0,0.0,0.0,0.0,0.0,0.0,0.0,0.0,0.0,0.0,0.0,0.0,0.0,0.0,0.0,0.0,0.0,0.0,0.0,0.0,0.0,0.0,0.0,0.0,0.0,0.0,0.0,0.0,0.0,0.0,0.0,0.0,0.0,0.0,0.0,0.0,0.0,0.0,0.0,0.0,0.0,0.0,0.0,0.0,0.0,0.0,0.0,0.0,0.0,0.0,0.0,0.0,0.0,0.0,0.0,0.0,0.0,0.0,0.0,0.0,0.0,0.0,0.0,0.0,0.0,0.0,0.0,0.0,0.0,0.0,0.0,0.0,0.0,0.0,0.0,0.0,0.0,0.0,0.0,0.0,0.0,0.0,0.0,0.0,0.0,0.0,0.0,0.0,0.0,0.0,0.0,0.0,0.0,0.0,0.0,0.0,0.0,0.0,0.0,0.0,0.0,0.0,0.0,0.0,0.0,0.0,0.0,-3.9845,-3.9705,-3.9693,-3.9693,-3.9705,-3.9845,-3.99,0.0,0.0,0.0,0.0,0.0,0.0,0.0,0.0,0.0,0.0,0.0,0.0,0.0,0.0,0.0,0.0,0.0,0.0,0.0,0.0,0.0,0.0,0.0,0.0,0.0,0.0,0.0,0.0,0.0,0.0,0.0,0.0,0.0,0.0,0.0,0.0,0.0,0.0,0.0,0.0,0.0,0.0,0.0,0.0,0.0,0.0,0.0,0.0,0.0,0.0,0.0,0.0,0.0,0.0,0.0,0.0,0.0,0.0,0.0,0.0,0.0,0.0,0.0,0.0,0.0,0.0,0.0,0.0,0.0,0.0,0.0,0.0,0.0,0.0,0.0,0.0,0.0,0.0,0.0,0.0,0.0,0.0,0.0,0.0,0.0,0.0,0.0,0.0,0.0,0.0,0.0,0.0,0.0,0.0,0.0,0.0,0.0,0.0,0.0,0.0,0.0,0.0,0.0,0.0,0.0,0.0,0.0,0.0,0.0,-3.9575,-3.964,-3.9705,-3.9705,-3.9826,-3.99,0.0,0.0,0.0,0.0,0.0,0.0,0.0,0.0,0.0,0.0,0.0,0.0,0.0,0.0,0.0,0.0,0.0,0.0,0.0,0.0,0.0,0.0,0.0,0.0,0.0,0.0,0.0,0.0,0.0,0.0,0.0,0.0,0.0,0.0,0.0,0.0,0.0,0.0,0.0,0.0,0.0,0.0,0.0,0.0,0.0,0.0,0.0,0.0,0.0,0.0,0.0,0.0,0.0,0.0,0.0,0.0,0.0,0.0,0.0,0.0,0.0,0.0,0.0,0.0,0.0,0.0,0.0,0.0,0.0,0.0,0.0,0.0,0.0,0.0,0.0,0.0,0.0,0.0,0.0,0.0,0.0,0.0,0.0,0.0,0.0,0.0,0.0,0.0,0.0,0.0,0.0,0.0,0.0,0.0,0.0,0.0,0.0,0.0,0.0,0.0,0.0,0.0,0.0,0.0,0.0,0.0,0.0,0.0,0.0,-3.92,-3.952,-3.9705,-3.9705,-3.9792,-3.9856,-3.99,0.0,0.0,0.0,0.0,0.0,0.0,0.0,0.0,0.0,0.0,0.0,0.0,0.0,0.0,0.0,0.0,0.0,0.0,0.0,0.0,0.0,0.0,0.0,0.0,0.0,0.0,0.0,0.0,0.0,0.0,0.0,0.0,0.0,0.0,0.0,0.0,0.0,0.0,0.0,0.0,0.0,0.0,0.0,0.0,0.0,0.0,0.0,0.0,0.0,0.0,0.0,0.0,0.0,0.0,0.0,0.0,0.0,0.0,0.0,0.0,0.0,0.0,0.0,0.0,0.0,0.0,0.0,0.0,0.0,0.0,0.0,0.0,0.0,0.0,0.0,0.0,0.0,0.0,0.0,0.0,0.0,0.0,0.0,0.0,0.0,0.0,0.0,0.0,0.0,0.0,0.0,0.0,0.0,0.0,0.0,0.0,0.0,0.0,0.0,0.0,0.0,0.0,0.0,0.0,0.0,0.0,0.0,0.0,-3.8615,-3.93,-3.9682,-3.9682,-3.9705,-3.9762,0.0,0.0,0.0,0.0,0.0,0.0,0.0,0.0,0.0,0.0,0.0,0.0,0.0,0.0,0.0,0.0,0.0,0.0,0.0,0.0,0.0,0.0,0.0,0.0,0.0,0.0,0.0,0.0,0.0,0.0,0.0,0.0,0.0,0.0,0.0,0.0,0.0,0.0,0.0,0.0,0.0,0.0,0.0,0.0,0.0,0.0,0.0,0.0,0.0,0.0,0.0,0.0,0.0,0.0,0.0,0.0,0.0,0.0,0.0,0.0,0.0,0.0,0.0,0.0,0.0,0.0,0.0,0.0,0.0,0.0,0.0,0.0,0.0,0.0,0.0,0.0,0.0,0.0,0.0,0.0,0.0,0.0,0.0,0.0,0.0,0.0,0.0,0.0,0.0,0.0,0.0,0.0,0.0,0.0,0.0,0.0,0.0,0.0,0.0,0.0,0.0,0.0,0.0,0.0,0.0,0.0,0.0,0.0,0.0,-3.8716,-3.9151,-3.9414,-3.9414,-3.9682,-3.9878,0.0,0.0,0.0,0.0,0.0,0.0,0.0,0.0,0.0,0.0,0.0,0.0,0.0,0.0,0.0,0.0,0.0,0.0,0.0,0.0,0.0,0.0,0.0,0.0,0.0,0.0,0.0,0.0,0.0,0.0,0.0,0.0,0.0,0.0,0.0,0.0,0.0,0.0,0.0,0.0,0.0,0.0,0.0,0.0,0.0,0.0,0.0,0.0,0.0,0.0,0.0,0.0,0.0,0.0,0.0,0.0,0.0,0.0,0.0,0.0,0.0,0.0,0.0,0.0,0.0,0.0,0.0,0.0,0.0,0.0,0.0,0.0,0.0,0.0,0.0,0.0,0.0,0.0,0.0,0.0,0.0,0.0,0.0,0.0,0.0,0.0,0.0,0.0,0.0,0.0,0.0,0.0,0.0,0.0,0.0,0.0,0.0,0.0,0.0,0.0,0.0,0.0,0.0,0.0,0.0,0.0,0.0,0.0,-3.8974,-3.8501,-3.8923,-3.9132,-3.9027,-3.9551,-3.9837,0.0,0.0,0.0,0.0,0.0,0.0,0.0,0.0,0.0,0.0,0.0,0.0,0.0,0.0,0.0,0.0,0.0,0.0,0.0,0.0,0.0,0.0,0.0,0.0,0.0,0.0,0.0,0.0,0.0,0.0,0.0,0.0,0.0,0.0,0.0,0.0,0.0,0.0,0.0,0.0,0.0,0.0,0.0,0.0,0.0,0.0,0.0,0.0,0.0,0.0,0.0,0.0,0.0,0.0,0.0,0.0,0.0,0.0,0.0,0.0,0.0,0.0,0.0,0.0,0.0,0.0,0.0,0.0,0.0,0.0,0.0,0.0,0.0,0.0,0.0,0.0,0.0,0.0,0.0,0.0,0.0,0.0,0.0,0.0,0.0,0.0,0.0,0.0,0.0,0.0,0.0,0.0,0.0,0.0,0.0,0.0,0.0,0.0,0.0,0.0,0.0,0.0,0.0,0.0,0.0,0.0,0.0,0.0,-3.8766,-3.8207,-3.8685,-3.8828,-3.8612,-3.9255,-3.9705,0.0,0.0,0.0,0.0,0.0,0.0,0.0,0.0,0.0,0.0,0.0,0.0,0.0,0.0,0.0,0.0,0.0,0.0,0.0,0.0,0.0,0.0,0.0,0.0,0.0,0.0,0.0,0.0,0.0,0.0,0.0,0.0,0.0,0.0,0.0,0.0,0.0,0.0,0.0,0.0,0.0,0.0,0.0,0.0,0.0,0.0,0.0,0.0,0.0,0.0,0.0,0.0,0.0,0.0,0.0,0.0,0.0,0.0,0.0,0.0,0.0,0.0,0.0,0.0,0.0,0.0,0.0,0.0,0.0,0.0,0.0,0.0,0.0,0.0,0.0,0.0,0.0,0.0,0.0,0.0,0.0,0.0,0.0,0.0,0.0,0.0,0.0,0.0,0.0,0.0,0.0,0.0,0.0,0.0,0.0,0.0,0.0,0.0,0.0,0.0,0.0,0.0,0.0,0.0,0.0,0.0,0.0,0.0,-3.86,-3.8225,-3.8462,-3.8597,-3.86,-3.8957,-3.9281,0.0,0.0,0.0,0.0,0.0,0.0,0.0,0.0,0.0,0.0,0.0,0.0,0.0,0.0,0.0,0.0,0.0,0.0,0.0,0.0,0.0,0.0,0.0,0.0,0.0,0.0,0.0,0.0,0.0,0.0,0.0,0.0,0.0,0.0,0.0,0.0,0.0,0.0,0.0,0.0,0.0,0.0,0.0,0.0,0.0,0.0,0.0,0.0,-3.9967,0.0,0.0,0.0,0.0,0.0,0.0,0.0,0.0,0.0,0.0,0.0,0.0,0.0,0.0,0.0,0.0,0.0,0.0,0.0,0.0,0.0,0.0,0.0,0.0,0.0,0.0,0.0,0.0,0.0,0.0,0.0,0.0,0.0,0.0,0.0,0.0,0.0,0.0,0.0,0.0,0.0,0.0,0.0,0.0,0.0,0.0,0.0,0.0,0.0,0.0,0.0,0.0,0.0,0.0,0.0,0.0,0.0,0.0,0.0,-3.835,-3.8072,-3.8204,-3.8267,-3.8316,-3.8504,-3.889,0.0,0.0,0.0,0.0,0.0,0.0,0.0,0.0,0.0,0.0,0.0,0.0,0.0,0.0,0.0,0.0,0.0,0.0,0.0,0.0,0.0,0.0,0.0,0.0,0.0,0.0,0.0,0.0,0.0,0.0,0.0,0.0,0.0,0.0,0.0,0.0,0.0,0.0,0.0,0.0,0.0,0.0,0.0,0.0,0.0,0.0,0.0,0.0,0.0,0.0,0.0,0.0,0.0,0.0,0.0,0.0,0.0,0.0,0.0,0.0,0.0,0.0,0.0,0.0,0.0,0.0,0.0,0.0,0.0,0.0,0.0,0.0,0.0,0.0,0.0,0.0,0.0,0.0,0.0,0.0,0.0,0.0,0.0,0.0,0.0,0.0,0.0,0.0,0.0,0.0,0.0,0.0,0.0,0.0,0.0,0.0,0.0,0.0,0.0,0.0,0.0,0.0,0.0,0.0,0.0,0.0,0.0,-3.8417,-3.8224,-3.7951,-3.7967,-3.7984,-3.8036,-3.814,-3.8588,-3.9377,0.0,0.0,0.0,0.0,0.0,0.0,0.0,0.0,0.0,0.0,0.0,0.0,0.0,0.0,0.0,0.0,0.0,0.0,0.0,0.0,0.0,0.0,0.0,0.0,0.0,0.0,0.0,0.0,0.0,0.0,0.0,0.0,0.0,0.0,0.0,0.0,0.0,0.0,-3.6819,-3.7909,0.0,0.0,0.0,0.0,0.0,0.0,0.0,0.0,-3.9259,0.0,0.0,0.0,0.0,0.0,0.0,0.0,0.0,0.0,0.0,0.0,0.0,0.0,0.0,0.0,0.0,0.0,0.0,0.0,0.0,0.0,0.0,0.0,0.0,0.0,0.0,0.0,0.0,0.0,0.0,0.0,0.0,0.0,0.0,0.0,0.0,0.0,0.0,0.0,0.0,0.0,0.0,0.0,0.0,0.0,0.0,0.0,0.0,0.0,0.0,0.0,0.0,0.0,0.0,0.0,0.0,-3.8778,-3.8628,-3.8412,-3.8175,-3.7986,-3.8003,-3.8157,-3.8174,-3.8478,-3.9036,0.0,0.0,0.0,0.0,0.0,0.0,0.0,0.0,0.0,0.0,0.0,0.0,0.0,0.0,0.0,0.0,0.0,0.0,0.0,0.0,0.0,0.0,0.0,0.0,0.0,0.0,0.0,0.0,0.0,0.0,0.0,0.0,0.0,0.0,0.0,0.0,0.0,0.0,0.0,-3.8544,-3.8967,0.0,0.0,0.0,0.0,0.0,0.0,0.0,0.0,-3.8946,0.0,0.0,0.0,0.0,0.0,0.0,0.0,0.0,0.0,0.0,0.0,0.0,0.0,0.0,0.0,0.0,0.0,0.0,0.0,0.0,0.0,0.0,0.0,0.0,0.0,0.0,0.0,0.0,0.0,0.0,0.0,0.0,0.0,0.0,0.0,0.0,0.0,0.0,0.0,0.0,0.0,0.0,0.0,0.0,0.0,0.0,0.0,0.0,0.0,0.0,0.0,0.0,0.0,0.0,0.0,-3.8643,-3.838,-3.8171,-3.8056,-3.7934,-3.7969,-3.8088,-3.8157,-3.8446,0.0,0.0,0.0,0.0,0.0,0.0,0.0,0.0,0.0,0.0,0.0,0.0,0.0,0.0,0.0,0.0,0.0,0.0,0.0,0.0,0.0,0.0,0.0,0.0,0.0,0.0,0.0,0.0,0.0,0.0,0.0,0.0,0.0,0.0,0.0,0.0,0.0,0.0,0.0,0.0,-3.8558,-3.8787,-3.9358,0.0,0.0,0.0,0.0,0.0,0.0,-3.8877,-3.8833,0.0,0.0,0.0,0.0,0.0,0.0,0.0,0.0,0.0,0.0,0.0,0.0,0.0,0.0,0.0,0.0,0.0,0.0,0.0,0.0,0.0,0.0,0.0,0.0,0.0,0.0,0.0,0.0,0.0,0.0,0.0,0.0,0.0,0.0,0.0,0.0,0.0,0.0,0.0,0.0,0.0,0.0,0.0,0.0,0.0,0.0,0.0,0.0,0.0,0.0,0.0,0.0,0.0,0.0,0.0,-3.8525,-3.8138,-3.7933,-3.7951,-3.7934,-3.7951,-3.8036,-3.8157,-3.8428,0.0,0.0,0.0,0.0,0.0,0.0,0.0,0.0,0.0,0.0,0.0,0.0,0.0,0.0,0.0,0.0,0.0,0.0,0.0,0.0,0.0,0.0,0.0,0.0,0.0,0.0,0.0,0.0,0.0,0.0,0.0,0.0,0.0,0.0,0.0,0.0,0.0,0.0,0.0,0.0,0.0,-3.8816,-3.9199,-3.9245,0.0,0.0,0.0,0.0,-3.8881,-3.8851,0.0,0.0,0.0,0.0,0.0,0.0,0.0,0.0,0.0,0.0,0.0,0.0,0.0,0.0,0.0,0.0,0.0,0.0,0.0,0.0,0.0,0.0,0.0,0.0,0.0,0.0,0.0,0.0,0.0,0.0,0.0,0.0,0.0,0.0,0.0,0.0,0.0,0.0,0.0,0.0,0.0,0.0,0.0,0.0,0.0,0.0,0.0,0.0,0.0,0.0,0.0,0.0,0.0,0.0,0.0,0.0,-3.8676,-3.8287,-3.8121,-3.814,-3.8054,-3.8053,-3.8174,-3.8192,-3.8446,0.0,0.0,0.0,0.0,0.0,0.0,0.0,0.0,0.0,0.0,0.0,0.0,0.0,0.0,0.0,0.0,0.0,0.0,0.0,0.0,0.0,0.0,0.0,0.0,0.0,0.0,0.0,0.0,0.0,0.0,0.0,0.0,0.0,0.0,0.0,0.0,0.0,0.0,0.0,0.0,0.0,-3.945,-3.8946,-3.8921,-3.8935,0.0,0.0,0.0,-3.8964,-3.8983,0.0,0.0,0.0,0.0,0.0,0.0,0.0,0.0,0.0,0.0,0.0,0.0,0.0,0.0,0.0,0.0,0.0,0.0,0.0,0.0,0.0,0.0,0.0,0.0,0.0,0.0,0.0,0.0,0.0,0.0,0.0,0.0,0.0,0.0,0.0,0.0,0.0,0.0,0.0,0.0,0.0,0.0,0.0,0.0,0.0,0.0,0.0,0.0,0.0,0.0,0.0,0.0,0.0,0.0,0.0,-3.8701,-3.8692,-3.8271,-3.8104,-3.8192,-3.807,-3.8053,-3.8209,-3.8209,-3.8446,0.0,0.0,0.0,0.0,0.0,0.0,0.0,0.0,0.0,0.0,0.0,0.0,0.0,0.0,0.0,0.0,0.0,0.0,0.0,0.0,0.0,0.0,0.0,0.0,0.0,0.0,0.0,0.0,0.0,0.0,0.0,0.0,0.0,0.0,0.0,0.0,0.0,0.0,0.0,0.0,0.0,0.0,-3.9017,-3.8983,0.0,0.0,0.0,-3.912,-3.9564,0.0,0.0,0.0,0.0,0.0,0.0,0.0,0.0,0.0,0.0,0.0,0.0,0.0,0.0,0.0,0.0,0.0,0.0,0.0,0.0,0.0,0.0,0.0,0.0,0.0,0.0,0.0,0.0,0.0,0.0,0.0,0.0,0.0,0.0,0.0,0.0,0.0,0.0,0.0,0.0,0.0,0.0,0.0,0.0,0.0,0.0,0.0,0.0,0.0,0.0,0.0,0.0,0.0,0.0,0.0,0.0,0.0,-3.8673,-3.8219,-3.8053,-3.8174,-3.8087,-3.8087,-3.8192,-3.8209,0.0,0.0,0.0,0.0,0.0,0.0,0.0,0.0,0.0,0.0,0.0,0.0,0.0,0.0,0.0,0.0,0.0,0.0,0.0,0.0,0.0,0.0,0.0,0.0,0.0,0.0,0.0,-3.7577,0.0,0.0,0.0,0.0,0.0,0.0,0.0,0.0,0.0,0.0,0.0,0.0,0.0,0.0,-3.9245,-3.9106,-3.9036,-3.91,0.0,0.0,-3.9571,-4.037,-4.0511,-4.0748,0.0,0.0,0.0,0.0,0.0,0.0,0.0,0.0,0.0,0.0,0.0,0.0,0.0,0.0,0.0,0.0,0.0,0.0,0.0,0.0,0.0,0.0,0.0,0.0,0.0,0.0,0.0,0.0,0.0,0.0,0.0,0.0,0.0,0.0,0.0,0.0,0.0,0.0,0.0,0.0,0.0,0.0,0.0,0.0,0.0,0.0,0.0,0.0,0.0,0.0,0.0,0.0,0.0,0.0,0.0,-3.8585,-3.8201,-3.807,-3.8192,-3.8192,-3.8192,-3.8209,-3.8209,-3.8338,0.0,0.0,0.0,0.0,0.0,0.0,0.0,0.0,0.0,0.0,0.0,0.0,0.0,0.0,0.0,0.0,0.0,0.0,0.0,0.0,0.0,0.0,0.0,0.0,0.0,0.0,0.0,0.0,0.0,0.0,0.0,0.0,0.0,0.0,0.0,0.0,0.0,0.0,0.0,0.0,0.0,-3.9237,-3.9036,-3.8993,-3.9318,0.0,0.0,-4.043,-4.1338,-4.1501,-4.1505,-4.1508,0.0,0.0,0.0,0.0,0.0,0.0,0.0,0.0,0.0,0.0,0.0,0.0,0.0,0.0,0.0,0.0,0.0,0.0,0.0,0.0,0.0,0.0,0.0,0.0,0.0,0.0,0.0,0.0,0.0,0.0,0.0,0.0,0.0,0.0,0.0,0.0,0.0,0.0,0.0,0.0,0.0,0.0,0.0,0.0,0.0,0.0,0.0,0.0,0.0,0.0,0.0,0.0,0.0,-3.8676,-3.8655,-3.8305,-3.8157,-3.8192,-3.8209,-3.8209,-3.8209,-3.8209,-3.8354,0.0,0.0,0.0,0.0,0.0,0.0,0.0,0.0,0.0,0.0,0.0,0.0,0.0,0.0,0.0,0.0,0.0,0.0,0.0,0.0,0.0,0.0,0.0,0.0,0.0,0.0,0.0,0.0,-3.8795,-3.8825,-3.8723,0.0,0.0,0.0,0.0,0.0,0.0,0.0,0.0,0.0,0.0,-3.9863,-3.9857,-4.0284,0.0,0.0,-4.1078,-4.1341,-4.2203,-4.2333,-4.2485,-4.2956,-4.3061,0.0,0.0,0.0,0.0,0.0,0.0,0.0,0.0,0.0,0.0,0.0,0.0,0.0,0.0,0.0,0.0,0.0,0.0,0.0,0.0,0.0,0.0,0.0,0.0,0.0,0.0,0.0,0.0,0.0,0.0,0.0,0.0,0.0,0.0,0.0,0.0,0.0,0.0,0.0,0.0,0.0,0.0,0.0,0.0,0.0,0.0,0.0,0.0,0.0,0.0,0.0,0.0,-3.8722,-3.8655,-3.8356,-3.8209,-3.8209,-3.8209,-3.8209,-3.8209,-3.8209,-3.8322,0.0,0.0,0.0,0.0,0.0,0.0,0.0,0.0,0.0,0.0,0.0,0.0,0.0,0.0,0.0,0.0,0.0,0.0,0.0,0.0,0.0,0.0,0.0,0.0,0.0,0.0,0.0,0.0,-3.8707,-3.8707,-3.8707,0.0,0.0,0.0,0.0,0.0,0.0,0.0,0.0,0.0,0.0,-4.0633,-4.0754,-4.1241,-4.1653,-4.1924,-4.1947,-4.2192,-4.3039,-4.3169,-4.3336,-4.3881,0.0,0.0,0.0,0.0,0.0,0.0,0.0,0.0,0.0,0.0,0.0,0.0,0.0,0.0,0.0,0.0,0.0,0.0,0.0,0.0,0.0,0.0,0.0,0.0,0.0,0.0,0.0,0.0,0.0,0.0,0.0,0.0,0.0,0.0,0.0,0.0,0.0,0.0,0.0,0.0,0.0,0.0,0.0,0.0,0.0,0.0,0.0,0.0,0.0,0.0,0.0,0.0,0.0,0.0,-3.86,-3.8338,-3.8209,-3.8209,-3.8209,-3.8209,-3.8209,-3.8209,-3.8242,-3.8323,0.0,0.0,0.0,0.0,0.0,0.0,0.0,0.0,0.0,0.0,0.0,0.0,0.0,0.0,0.0,0.0,0.0,0.0,0.0,0.0,0.0,0.0,0.0,0.0,0.0,0.0,-3.8707,-3.8707,-3.8707,0.0,0.0,0.0,0.0,0.0,0.0,0.0,0.0,0.0,0.0,-4.0937,-4.1501,-4.1557,-4.1553,-4.1853,-4.2652,-4.2721,-4.2984,-4.3822,-4.3949,-4.3955,0.0,0.0,0.0,0.0,0.0,0.0,0.0,0.0,0.0,0.0,0.0,0.0,0.0,0.0,0.0,0.0,0.0,0.0,0.0,0.0,0.0,0.0,0.0,0.0,0.0,0.0,0.0,-3.7004,-3.6986,0.0,0.0,0.0,0.0,0.0,0.0,0.0,0.0,0.0,0.0,0.0,-3.8138,-3.835,0.0,0.0,0.0,0.0,0.0,0.0,0.0,0.0,0.0,0.0,0.0,0.0,-3.8631,-3.8419,-3.8274,-3.8209,-3.8209,-3.8209,-3.8209,-3.8209,-3.8209,-3.8224,-3.829,0.0,0.0,0.0,0.0,0.0,0.0,0.0,0.0,0.0,0.0,0.0,0.0,0.0,0.0,0.0,0.0,0.0,0.0,0.0,0.0,0.0,0.0,0.0,0.0,0.0,-3.8707,0.0,0.0,0.0,0.0,0.0,0.0,0.0,0.0,0.0,0.0,0.0,-4.1021,-4.1067,-4.1812,-4.2377,-4.2389,-4.2823,-4.3268,0.0,0.0,0.0,0.0,0.0,0.0,0.0,0.0,0.0,0.0,0.0,0.0,0.0,0.0,-4.3974,-4.4005,-4.4005,-4.4005,-4.4005,0.0,0.0,0.0,0.0,0.0,0.0,0.0,0.0,0.0,0.0,0.0,0.0,0.0,0.0,0.0,0.0,-3.7577,0.0,0.0,0.0,0.0,0.0,0.0,0.0,0.0,-3.7951,-3.8003,-3.8003,-3.8239,-3.8305,0.0,-3.8387,-3.8401,0.0,0.0,0.0,0.0,0.0,0.0,0.0,0.0,-3.8523,-3.8354,-3.8241,-3.8209,-3.8209,-3.8209,-3.8209,-3.8209,-3.8257,-3.8289,-3.837,-3.8446,-3.851,0.0,0.0,0.0,0.0,0.0,0.0,0.0,0.0,0.0,0.0,0.0,0.0,0.0,0.0,0.0,0.0,0.0,0.0,0.0,0.0,0.0,0.0,0.0,-3.8845,0.0,0.0,0.0,0.0,0.0,0.0,0.0,0.0,0.0,-4.0492,-4.1302,-4.1949,-4.1946,-4.2693,-4.3206,-4.3225,0.0,0.0,0.0,0.0,0.0,0.0,0.0,-4.4005,-4.4005,-4.4005,-4.4005,-4.4005,-4.4005,-4.4005,-4.4005,0.0,0.0,-4.4005,-4.4005,-4.4005,-4.4005,-4.3578,-4.3392,-4.3893,-4.3596,-4.3373,0.0,0.0,0.0,0.0,0.0,0.0,0.0,0.0,-3.6615,-3.6838,0.0,-3.7188,0.0,0.0,0.0,0.0,0.0,0.0,0.0,0.0,-3.8122,-3.8192,-3.8192,-3.8209,-3.8209,-3.8192,-3.8088,-3.8036,-3.8035,-3.8396,0.0,0.0,0.0,0.0,0.0,0.0,-3.8338,-3.8366,-3.8274,-3.8209,-3.8209,-3.8209,-3.8209,-3.8209,-3.832,-3.843,-3.8476,-3.8491,-3.851,-3.851,-3.8368,0.0,0.0,0.0,0.0,0.0,0.0,0.0,0.0,0.0,0.0,0.0,0.0,0.0,0.0,0.0,0.0,0.0,0.0,0.0,0.0,-3.888,0.0,0.0,0.0,0.0,0.0,0.0,0.0,0.0,0.0,0.0,-4.1511,-4.2181,-4.2758,-4.2835,0.0,0.0,0.0,0.0,-4.3929,-4.3971,-4.3961,-4.3929,-4.3989,-4.4005,-4.4005,-4.4005,0.0,0.0,-4.4005,-4.4005,-4.4005,-4.4005,-4.4005,-4.4005,-4.4005,-4.4005,-4.4005,-4.4005,-4.3986,-4.4005,-4.4005,-4.3968,-4.3934,-3.6199,0.0,0.0,0.0,0.0,-3.6719,-3.6739,-3.6818,-3.6776,-3.6796,-3.6898,-3.6915,0.0,0.0,0.0,0.0,0.0,0.0,-3.7933,-3.8001,-3.8053,-3.8105,-3.8209,-3.8209,-3.8209,-3.8192,-3.8157,-3.8157,-3.8157,-3.8256,-3.8303,-3.83,0.0,0.0,0.0,0.0,-3.8303,-3.8119,-3.8156,-3.8209,-3.8209,-3.8209,-3.8225,-3.8274,-3.8352,-3.843,-3.8491,-3.8575,-3.864,-3.8658,-3.8611,0.0,0.0,0.0,0.0,0.0,0.0,0.0,0.0,0.0,0.0,0.0,0.0,0.0,0.0,0.0,0.0,0.0,0.0,0.0,-4.0391,-4.0535,-4.0655,0.0,0.0,0.0,0.0,0.0,0.0,0.0,0.0,0.0,-4.3124,-4.3444,-4.3636,0.0,0.0,-4.4005,-4.4005,-4.3989,-4.3974,-4.4005,0.0,0.0,0.0,-4.4005,-4.4005,-4.4005,-4.4005,-4.4005,-4.4005,-4.4005,-4.4005,-4.4005,-4.4005,-4.4005,-4.4005,-4.4005,-4.4005,-4.4005,-4.4005,-4.4005,-4.4005,-4.4005,-4.3923,-3.5871,-3.6374,-3.6308,-3.6329,-3.6374,-3.6322,-3.643,-3.6638,-3.643,-3.6495,-3.6818,-3.6676,-3.6652,-3.6693,-3.6878,0.0,0.0,0.0,-3.7828,-3.8088,-3.807,-3.8122,-3.8192,-3.8209,-3.8209,-3.8209,-3.8122,-3.814,-3.8209,-3.8157,-3.8087,-3.8068,0.0,0.0,-3.8068,-3.8186,-3.8204,-3.8087,-3.8157,-3.8209,-3.8209,-3.8209,-3.8242,-3.8307,-3.8368,-3.843,-3.851,-3.8624,-3.8707,-3.8707,-3.8658,-3.8624,0.0,0.0,0.0,0.0,0.0,0.0,0.0,0.0,0.0,0.0,0.0,-3.8719,0.0,0.0,0.0,0.0,-4.0022,-4.0851,-4.1643,-4.1517,0.0,0.0,0.0,0.0,0.0,0.0,0.0,-4.2374,-4.2894,-4.3386,-4.3871,-4.3992,-4.4005,-4.4005,-4.4005,-4.4005,-4.4005,0.0,-4.4005,-4.4005,-4.4005,-4.4005,-4.4005,-4.4005,-4.4005,-4.4005,-4.4005,-4.4005,-4.4005,-4.4005,-4.4005,-4.4005,-4.4005,-4.4005,-4.4005,-4.4005,-4.4005,-4.4005,-4.4005,-4.4005,-4.4005,-4.3908,-4.3795,-3.5616,-3.5577,-3.5496,-3.5502,-3.56,-3.5543,-3.5795,-3.6195,-3.5827,-3.6114,-3.6838,-3.6495,-3.6512,-3.6796,-3.6635,0.0,0.0,-3.7376,-3.7667,-3.8192,-3.8229,-3.8266,-3.8299,-3.8282,-3.8299,-3.8299,-3.8124,-3.807,-3.8174,-3.8088,-3.8019,-3.8018,-3.8001,-3.8001,-3.8001,-3.8019,-3.807,-3.8209,-3.8209,-3.8209,-3.8209,-3.8209,-3.8242,-3.8307,-3.8368,-3.843,-3.8525,-3.8624,-3.8707,-3.8707,-3.8593,-3.8575,-3.8692,0.0,0.0,0.0,0.0,0.0,0.0,0.0,0.0,0.0,0.0,0.0,0.0,0.0,0.0,0.0,-4.1024,0.0,-4.2696,-4.2122,0.0,0.0,0.0,-4.2709,-4.2709,-4.3421,-4.3897,-4.3915,0.0,0.0,0.0,0.0,-4.4005,-4.4005,-4.4005,-4.4005,-4.4005,-4.4005,-4.4005,-4.4005,-4.4005,-4.4005,-4.4005,-4.4005,-4.4005,-4.4005,-4.4005,-4.4005,-4.4005,-4.4005,-4.4005,-4.4005,-4.4005,-4.4005,-4.4005,-4.4005,-4.4005,-4.4005,-4.4005,-4.3986,-4.3958,-4.3779,-4.3614,-3.5616,-3.565,-3.6196,-3.6134,-3.56,-3.5594,-3.5644,-3.5783,-3.6023,-3.6241,-3.6451,-3.6678,-3.6801,-3.6841,-3.655,-3.6779,-3.7469,-3.7151,-3.7449,-3.8194,-3.8474,-3.878,-3.9097,-3.9115,-3.9097,-3.9079,-3.8465,-3.8192,-3.8209,-3.8157,-3.8157,-3.8157,-3.8157,-3.8105,-3.8001,-3.8087,-3.8157,-3.8209,-3.8209,-3.8209,-3.8209,-3.8209,-3.8257,-3.8385,-3.8401,-3.8481,-3.8624,-3.8673,-3.8707,-3.8707,-3.8658,-3.8658,-3.8707,-3.8658,0.0,0.0,0.0,0.0,0.0,0.0,0.0,0.0,0.0,-3.8992,-3.9642,0.0,-4.0249,0.0,-4.1964,-4.2777,-4.3449,-4.3405,0.0,0.0,-4.3557,-4.3557,-4.3664,-4.3818,-4.3913,-4.3974,-4.3989,-4.4005,-4.4005,-4.4005,-4.4005,-4.4005,-4.4005,-4.4005,-4.4005,-4.4005,-4.4005,-4.4005,-4.4005,-4.4005,-4.4005,-4.4005,-4.4005,-4.4005,-4.4005,-4.4005,-4.4005,-4.4005,-4.4005,-4.4005,-4.4005,-4.4005,-4.4005,-4.4005,-4.4005,-4.4005,-4.4005,-4.3923,-4.3747,-4.3629,-4.3477,-3.6614,-3.6671,-3.711,-3.7043,-3.6614,-3.6637,-3.6735,-3.6921,-3.6983,-3.71,-3.7284,-3.7175,-3.7245,-3.7391,-3.6835,-3.6919,-3.7469,-3.7283,-3.7738,-3.8736,-3.8905,-3.9319,-3.9876,-3.955,-3.9568,-3.984,-3.8735,-3.8408,-3.8698,-3.8372,-3.8209,-3.8209,-3.8209,-3.8157,-3.8105,-3.8157,-3.8192,-3.8123,-3.8192,-3.8209,-3.8209,-3.8224,-3.8274,-3.8322,-3.8382,-3.8481,-3.8562,-3.8661,-3.8707,-3.8707,-3.8707,-3.8707,-3.8707,-3.8707,-3.8707,0.0,0.0,0.0,0.0,0.0,0.0,0.0,0.0,0.0,0.0,0.0,-4.1456,0.0,-4.3033,0.0,-4.3814,-4.3915,-4.3961,-4.3945,-4.3913,-4.3913,-4.3989,-4.3958,-4.3976,-4.3989,-4.4005,-4.4005,-4.4005,-4.4005,-4.4005,-4.4005,-4.4005,-4.4005,-4.4005,-4.4005,-4.4005,-4.4005,-4.4005,-4.4005,-4.4005,-4.4005,-4.4005,-4.4005,-4.4005,-4.4005,-4.4005,-4.4005,-4.4005,-4.4005,-4.4005,-4.4005,-4.4005,-4.391,-4.3828,-4.3828,-4.3812,-4.3763,-4.3631,-4.3512,-4.3267,-3.7898,-3.7922,-3.8007,-3.8041,-3.8041,-3.8142,-3.8295,-3.8419,-3.8108,-3.8207,-3.8553,-3.7901,-3.7864,-3.8184,-3.7516,-3.7432,-3.779,-3.7735,-3.8366,-3.9514,-3.9606,-3.9986,-4.0601,-4.0003,-3.9967,-4.042,-3.9025,-3.8662,-3.9224,-3.8535,-3.8209,-3.8209,-3.8209,-3.8192,-3.8174,-3.8192,-3.814,-3.8036,-3.8157,-3.8209,-3.8209,-3.8276,-3.8274,-3.8241,-3.8401,-3.8478,-3.843,-3.8593,-3.8707,-3.8707,-3.8707,-3.8707,-3.8707,-3.8707,-3.8707,0.0,-3.8689,0.0,0.0,0.0,0.0,0.0,0.0,0.0,0.0,-4.2184,-4.3008,-4.3765,-4.3929,-4.3974,-4.3913,-4.3958,-4.4005,-4.4005,-4.4005,-4.4005,-4.4005,-4.4005,-4.4005,-4.4005,-4.4005,-4.4005,-4.4005,-4.4005,-4.4005,-4.4023,-4.4172,-4.4172,-4.4023,-4.4005,-4.4005,-4.4005,-4.4005,-4.4005,-4.4005,-4.4005,-4.4005,-4.4005,-4.4005,-4.4005,-4.4005,-4.4005,-4.4005,-4.3989,-4.3974,-4.3939,-4.3989,-4.3795,-4.3629,-4.3662,-4.3646,-4.3614,-4.3529,-4.3356,-4.3087,-3.7898,-3.7973,-3.8548,-3.8785,-3.8836,-3.9428,-3.9061,-3.8031,-3.8282,-3.861,-3.8971,-3.8895,-3.8926,-3.8971,-3.8907,-3.9042,-3.9432,-3.9102,-3.9444,-4.0311,-4.0631,-4.1027,-4.1433,-4.1325,-4.0999,-4.0456,-3.9604,-3.8915,-3.8426,-3.8281,-3.8209,-3.8209,-3.8209,-3.8157,-3.8053,0.0,0.0,0.0,-3.8174,-3.8209,-3.8209,-3.8257,-3.8322,-3.8368,-3.8446,0.0,-3.8643,-3.8673,-3.8707,-3.8707,-3.8707,0.0,0.0,0.0,0.0,0.0,0.0,0.0,0.0,0.0,0.0,0.0,-4.2057,-4.2195,-4.2421,-4.3206,-4.3759,-4.3881,-4.3942,-4.4005,-4.3974,-4.3989,-4.4005,-4.4005,-4.4005,-4.4005,-4.4005,-4.4005,-4.4005,-4.4005,-4.4005,-4.4005,-4.4005,-4.4005,-4.4005,-4.4098,-4.4599,-4.4711,-4.4116,-4.4079,-4.4023,-4.4005,-4.4042,-4.4023,-4.4005,-4.4023,-4.4023,-4.4005,-4.4005,-4.4005,-4.4005,-4.4042,-4.4005,-4.3989,-4.3828,-4.3781,-4.3939,-4.3779,-4.3664,-4.3876,-4.3728,-4.3528,-4.3322,-4.3232,-4.3105,-3.8988,0.0,-3.9402,-3.9554,0.0,-3.996,-3.9821,-3.9324,-3.93,-3.9525,-3.9929,-3.9808,-3.9866,-4.0058,-3.9961,-4.0013,-4.02,-3.9994,-4.0323,-4.1089,-4.1302,-4.1735,-4.2285,-4.1886,-4.1705,-4.1633,-4.0492,-3.993,-3.9912,-3.9514,-3.9333,-3.9351,-3.9333,-3.9116,-3.8702,-3.8356,-3.8209,-3.8209,-3.8242,-3.8241,-3.8241,-3.8354,-3.8382,-3.8399,0.0,0.0,0.0,0.0,0.0,0.0,0.0,0.0,0.0,0.0,0.0,-3.8707,-3.9102,-3.9537,-3.9942,-4.0741,-4.1599,-4.2426,-4.2982,-4.3283,-4.3301,-4.3735,-4.3971,-4.3942,-4.3974,-4.4005,-4.4005,-4.4005,-4.4005,-4.4005,-4.4005,-4.4005,-4.4005,-4.4005,-4.4005,-4.4005,-4.4005,-4.4005,-4.4005,-4.4005,-4.4209,-4.4581,-4.5008,-4.5305,-4.5212,-4.4878,-4.4525,-4.4116,-4.4413,-4.4655,-4.4599,-4.4228,-4.4191,-4.4488,-4.4283,-4.4042,-4.4005,-4.4339,-4.4493,-4.401,-4.411,-4.4364,-4.3872,-4.3697,-4.3647,-4.3747,-4.3597,-4.3392,-4.3233,-4.3214,-4.3105,-4.0113,-4.0113,-4.0113,-4.0113,-4.0113,-4.0113,-4.0353,-4.0778,0.0,0.0,0.0,-4.0518,-4.0658,-4.108,-4.0883,-4.0836,-4.0926,-4.0926,-4.1289,-4.1886,-4.1904,-4.2266,-4.2865,-4.223,-4.2194,-4.2611,-4.1343,-4.0981,-4.1451,-4.0818,-4.0492,-4.0492,-4.0492,-4.0184,-3.9586,-3.8825,-3.8425,-3.8425,-3.8347,-3.8289,-3.8305,-3.8449,-3.8478,-3.8415,-3.8611,-3.8658,-3.8541,-3.8658,-3.8707,-3.8707,-3.8707,-3.8762,-3.8909,-3.8909,-3.8982,-3.9163,-3.9782,-4.022,-4.0402,-4.1696,-4.2588,-4.2815,-4.3558,-4.3958,-4.3913,-4.3976,-4.4005,-4.4005,-4.4005,-4.4005,-4.4005,-4.4005,-4.4005,-4.4005,-4.4005,-4.4005,-4.4005,-4.4005,-4.4005,-4.4005,-4.4005,-4.4005,-4.4005,-4.4191,-4.4469,-4.5157,-4.5602,-4.5937,-4.6438,-4.5992,-4.5212,-4.4544,-4.4989,-4.5435,-4.5026,-4.4692,-4.4469,-4.4822,-4.4544,-4.4265,-4.4321,-4.4804,-4.4853,-4.4169,-4.4603,-4.4492,-4.3861,-4.3629,-4.3631,-4.3664,-4.3462,-4.3268,-4.3268,-4.3178,-4.3013,-4.0113,-4.0113,-4.0113,-4.0113,-4.0113,-4.0113,-4.0377,-4.0802,-4.0731,-4.0731,-4.0802,-4.0752,-4.0983,-4.1437,-4.1792,-4.2174,-4.2556,-4.2575,-4.2611,0.0,-4.2737,-4.2792,-4.2882,-4.2792,-4.2429,-4.1868,-4.1632,-4.1216,-4.0709,-4.0564,-4.0492,-4.051,-4.0492,-4.0456,-4.0311,-3.9656,-3.9327,-3.9309,-3.8636,-3.8322,-3.8385,-3.8462,-3.8491,-3.8494,-3.8624,-3.8692,-3.8692,-3.8692,-3.8707,-3.8707,-3.8707,-3.9019,-3.968,-3.9732,-4.006,-4.0783,-4.1009,-4.1474,-4.2236,-4.2576,-4.3049,-4.3732,-4.3871,-4.3945,-4.3992,-4.3989,-4.4005,-4.4005,-4.4005,-4.4005,-4.4005,-4.4005,-4.4005,-4.4005,-4.4005,-4.4005,-4.4005,-4.4005,-4.4042,-4.4061,-4.4005,-4.4005,-4.4116,-4.4599,-4.5026,-4.5454,-4.6457,-4.7367,-4.7293,-4.6847,-4.6048,-4.5435,-4.5807,-4.5658,-4.4841,-4.4804,-4.4822,-4.4246,-4.4766,-4.5008,-4.5008,-4.5157,-4.5159,-4.5015,-4.4478,-4.4022,-4.3878,-4.3728,-4.3712,-4.3844,-4.3681,-4.3495,-4.346,-4.3124,-4.2769,-4.0113,-4.0113,-4.0113,-4.0113,-4.0146,-4.0642,-4.0978,-4.1208,-4.1455,-4.1428,-4.1208,-4.1432,-4.1674,-4.1909,-4.236,-4.2692,-4.2919,-4.2919,-4.2919,-4.2919,-4.2919,-4.2919,-4.2919,-4.2919,-4.2719,-4.2375,-4.2357,-4.2176,-4.1832,-4.1796,-4.1796,-4.1759,-4.1452,-4.1252,-4.1216,-4.0559,-4.0245,-4.0277,-3.9073,-3.8415,-3.8462,-3.8559,-3.859,-3.8609,-3.8658,-3.8707,-3.8707,-3.8707,-3.8707,-3.8707,-3.9129,-3.9528,-3.9924,-4.0365,-4.082,-4.1301,-4.1738,-4.2174,-4.2609,-4.3116,-4.3568,-4.3952,-4.3974,-4.3958,-4.4005,-4.4005,-4.4005,-4.4005,-4.4005,-4.4005,-4.4005,-4.4005,-4.4005,-4.4005,-4.4005,-4.4005,-4.4005,-4.4005,-4.4191,-4.4562,-4.4283,-4.4191,-4.4636,-4.4636,-4.5026,-4.5825,-4.7348,-4.8166,-4.7813,-4.7776,-4.7348,-4.629,-4.6252,-4.616,-4.5454,-4.5249,-4.5305,-4.5305,-4.5287,-4.5305,-4.5287,-4.5287,-4.5053,-4.455,-4.4369,-4.4311,-4.3976,-4.3812,-4.3876,-4.3892,-4.3647,-4.3426,-4.3321,-4.2902,-4.2532,-4.0113,-4.0113,-4.0113,-4.0113,-4.0179,-4.1116,-4.1503,-4.1547,-4.2098,-4.2157,-4.1871,-4.1994,-4.2095,-4.2218,-4.2595,-4.2806,-4.29,-4.2919,-4.2919,-4.2919,-4.2919,-4.2919,-4.2919,-4.2919,-4.2919,-4.2919,-4.2919,-4.2919,-4.2919,-4.2938,-4.2957,-4.2903,-4.245,-4.2196,-4.2177,-4.1482,-4.1168,-4.1162,-3.9825,-3.8999,-3.8834,-3.8915,-3.8891,-3.8707,-3.8707,-3.8781,-3.8964,-3.8964,-3.9056,-3.9258,-3.9843,-4.0294,-4.0556,-4.1162,-4.1636,-4.197,-4.254,-4.291,-4.2942,-4.3545,-4.3945,-4.3989,-4.4005,-4.4005,-4.4005,-4.4005,-4.4005,-4.4005,-4.4005,-4.4005,-4.4005,-4.4005,-4.4005,-4.4005,-4.4005,-4.4005,-4.4023,-4.4172,-4.4525,-4.5101,-4.4859,-4.4822,-4.5064,-4.4878,-4.5231,-4.6643,-4.7868,-4.8333,-4.811,-4.8407,-4.8036,-4.7441,-4.6921,-4.668,-4.6531,-4.6011,-4.5788,-4.6234,-4.5881,-4.5677,-4.5602,-4.5491,-4.5201,-4.4572,-4.4636,-4.4538,-4.3874,-4.3844,-4.3923,-4.3876,-4.3529,-4.3196,-4.2957,-4.265,-4.2328,-4.0113,-4.0113,-4.0113,-4.0113,-4.0221,-4.1116,-4.1503,-4.1613,-4.244,-4.2825,-4.2673,-4.1913,-4.1828,-4.2157,-4.2259,-4.2518,-4.29,-4.2919,-4.2919,-4.2919,-4.2919,-4.2919,-4.2919,-4.2919,-4.2919,-4.2919,-4.2919,-4.2919,-4.2919,-4.303,-4.3087,-4.316,-4.3105,-4.3051,-4.2996,-4.2391,-4.2078,-4.2077,-4.1284,-4.0508,-3.9827,-3.979,-3.9441,-3.8726,-3.8726,-3.9038,-3.9735,-3.979,-4.012,-4.0818,-4.0974,-4.1409,-4.2067,-4.2369,-4.282,-4.3566,-4.3714,-4.3802,-4.3862,-4.3952,-4.3989,-4.4005,-4.4023,-4.4005,-4.4005,-4.4005,-4.4005,-4.4005,-4.4005,-4.4005,-4.4005,-4.4005,-4.4005,-4.4005,-4.4005,-4.4005,-4.4135,-4.4711,-4.5212,-4.5268,-4.5825,-4.6048,-4.5602,-4.5862,-4.6531,-4.7311,-4.7813,-4.8203,-4.8426,-4.8259,-4.8184,-4.8314,-4.8054,-4.7293,-4.6754,-4.6475,-4.6234,-4.5769,-4.603,-4.629,-4.629,-4.5825,-4.5363,-4.5389,-4.4867,-4.4178,-4.4066,-4.3989,-4.3892,-4.3714,-4.3391,-4.3031,-4.2552,-4.2348,-4.2308,-4.0113,-4.0113,-4.0113,-4.0113,-4.0229,-4.1116,-4.1503,-4.1591,-4.248,-4.2919,-4.2863,-4.248,-4.2438,-4.2596,-4.2614,-4.2711,-4.2882,-4.2919,-4.2919,-4.2919,-4.2919,-4.2919,-4.2919,-4.2919,-4.2919,-4.2919,-4.2919,-4.2938,-4.303,-4.3123,-4.3178,-4.3214,-4.3269,-4.3323,-4.3286,-4.3082,-4.2969,-4.2969,-4.2673,-4.2121,-4.1368,-4.0855,-4.0435,-4.0159,-4.0123,-4.0233,-4.0561,-4.0616,-4.0779,-4.1158,-4.1629,-4.2099,-4.2543,-4.3074,-4.3529,-4.3923,-4.3976,-4.4215,-4.4729,-4.4283,-4.4228,-4.4729,-4.4283,-4.4005,-4.4005,-4.4005,-4.4005,-4.4005,-4.4005,-4.4005,-4.4005,-4.4005,-4.4005,-4.4005,-4.4005,-4.4191,-4.4729,-4.5082,-4.5584,-4.6494,-4.6568,-4.6624,-4.6717,-4.6995,-4.733,-4.7738,-4.8054,-4.8389,-4.8277,-4.8296,-4.8351,-4.8166,-4.7887,-4.7608,-4.7256,-4.7218,-4.7014,-4.6847,-4.6958,-4.72,-4.7033,-4.6067,-4.5435,-4.5788,-4.4785,-4.4079,-4.4008,-4.3989,-4.3908,-4.3631,-4.3178,-4.2768,-4.2351,-4.2308,-4.2308,-4.0113,-4.0113,-4.0113,-4.0171,-4.036,-4.1162,-4.1569,-4.1782,-4.2557,-4.2919,-4.2919,-4.2919,-4.2919,-4.2919,-4.2919,-4.2919,-4.2919,-4.2919,-4.2919,-4.2919,-4.2919,-4.2919,-4.2919,-4.2919,-4.2919,-4.2938,-4.2956,-4.3031,-4.3178,-4.3233,-4.3269,-4.3304,-4.3358,-4.3557,-4.3758,-4.381,-4.3938,-4.4121,-4.3974,-4.3534,-4.2928,-4.2193,-4.1568,-4.1181,-4.1109,-4.1217,-4.1507,-4.1507,-4.165,-4.1917,-4.2502,-4.2881,-4.3026,-4.3614,-4.3961,-4.3989,-4.4005,-4.4265,-4.4896,-4.4358,-4.4265,-4.4785,-4.4321,-4.4005,-4.4005,-4.4005,-4.4005,-4.4005,-4.4005,-4.4005,-4.4005,-4.4005,-4.4005,-4.4005,-4.4153,-4.4636,-4.5194,-4.5584,-4.6438,-4.7441,-4.7423,-4.7237,-4.759,-4.7664,-4.7683,-4.7757,-4.8166,-4.8556,-4.8129,-4.8351,-4.837,-4.8054,-4.8036,-4.8036,-4.7999,-4.7757,-4.7757,-4.7701,-4.7646,-4.7627,-4.7571,-4.6308,-4.5788,-4.6197,-4.4896,-4.4265,-4.4432,-4.4342,-4.3828,-4.3477,-4.3014,-4.2573,-4.2348,-4.2308,-4.2308,-4.0113,-4.0113,-4.0113,-4.0336,-4.0802,-4.1316,-4.1778,-4.2246,-4.2782,-4.2955,-4.3028,-4.301,-4.2955,-4.301,-4.3082,-4.2937,-4.2937,-4.2973,-4.3028,-4.3064,-4.301,-4.2955,-4.2919,-4.2919,-4.3011,-4.3286,-4.3322,-4.3378,-4.3468,-4.3449,-4.3447,-4.3517,-4.3626,-4.3956,-4.4526,-4.4599,-4.5002,-4.5388,-4.4837,-4.4544,-4.4415,-4.3787,-4.2697,-4.1498,-4.1243,-4.1714,-4.2403,-4.2511,-4.2862,-4.3621,-4.3721,-4.3807,-4.3857,-4.3939,-4.4005,-4.4005,-4.4023,-4.4061,-4.4191,-4.4191,-4.4191,-4.4172,-4.4209,-4.4042,-4.4135,-4.4135,-4.4153,-4.4061,-4.4172,-4.4098,-4.4191,-4.4228,-4.4116,-4.4153,-4.4785,-4.5231,-4.5379,-4.6643,-4.7478,-4.7831,-4.824,-4.8296,-4.7831,-4.7701,-4.7794,-4.7794,-4.7813,-4.8036,-4.8556,-4.8259,-4.8203,-4.8593,-4.876,-4.8816,-4.876,-4.8333,-4.7887,-4.7868,-4.7961,-4.7794,-4.7163,-4.6698,-4.6791,-4.6475,-4.5194,-4.4618,-4.4896,-4.4598,-4.3848,-4.3285,-4.275,-4.2371,-4.2328,-4.2308,-4.2308,-4.0113,-4.0113,-4.0113,-4.036,-4.0901,-4.1828,-4.2524,-4.3042,-4.4009,-4.444,-4.4421,-4.444,-4.444,-4.444,-4.444,-4.415,-4.3679,-4.3643,-4.3914,-4.4405,-4.4536,-4.4574,-4.4556,-4.4614,-4.4653,-4.469,-4.4708,-4.4765,-4.4913,-4.4985,-4.5022,-4.5039,-4.5039,-4.5204,-4.5351,-4.4966,-4.4874,-4.5039,-4.4358,-4.3989,-4.4061,-4.3815,-4.3439,-4.2987,-4.2883,-4.3014,-4.3361,-4.3361,-4.3541,-4.3849,-4.3881,-4.3947,-4.3976,-4.3989,-4.4005,-4.4061,-4.4525,-4.5045,-4.5509,-4.5584,-4.5602,-4.5565,-4.5119,-4.4841,-4.4841,-4.4841,-4.5026,-4.5379,-4.5064,-4.5026,-4.5379,-4.5157,-4.4822,-4.4934,-4.5565,-4.6271,-4.6773,-4.7367,-4.7887,-4.837,-4.8742,-4.8742,-4.8537,-4.8463,-4.8481,-4.8481,-4.8463,-4.8593,-4.876,-4.863,-4.8556,-4.8797,-4.889,-4.889,-4.889,-4.8723,-4.8481,-4.8481,-4.85,-4.8481,-4.8091,-4.7367,-4.7256,-4.6698,-4.5491,-4.4565,-4.4644,-4.409,-4.3426,-4.3032,-4.2514,-4.2348,-4.2308,-4.2308,-4.2308,-4.0563,-4.0898,-4.0743,-4.1223,-4.2096,-4.2747,-4.3408,-4.4088,-4.4917,-4.5291,-4.5309,-4.5349,-4.5349,-4.5329,-4.5388,-4.5279,-4.4915,-4.464,-4.4803,-4.535,-4.5465,-4.5504,-4.5543,-4.5602,-4.5622,-4.566,-4.5698,-4.5735,-4.5828,-4.5902,-4.5902,-4.5883,-4.5902,-4.6049,-4.614,-4.5791,-4.5626,-4.5699,-4.52,-4.4736,-4.4495,-4.4286,-4.411,-4.3918,-4.3883,-4.3867,-4.3867,-4.3867,-4.3899,-4.3929,-4.3945,-4.3961,-4.4005,-4.4005,-4.4005,-4.4098,-4.4804,-4.5509,-4.6048,-4.6345,-4.6494,-4.6475,-4.603,-4.5695,-4.5677,-4.5695,-4.5974,-4.6234,-4.6067,-4.5955,-4.629,-4.6215,-4.5974,-4.5862,-4.642,-4.707,-4.7646,-4.7943,-4.8314,-4.8723,-4.8872,-4.889,-4.889,-4.889,-4.8872,-4.889,-4.889,-4.889,-4.889,-4.889,-4.889,-4.889,-4.889,-4.889,-4.889,-4.8797,-4.8742,-4.8742,-4.8742,-4.8853,-4.8686,-4.8017,-4.7404,-4.6791,-4.5883,-4.4848,-4.4059,-4.3552,-4.3105,-4.2751,-4.2514,-4.2328,-4.2308,-4.2308,-4.2308,-4.1557,-4.2491,-4.2122,-4.2841,-4.4125,-4.3994,-4.44,-4.5188,-4.5417,-4.56,-4.5675,-4.5609,-4.5718,-4.5515,-4.5816,-4.6074,-4.6375,-4.5805,-4.5551,-4.5721,-4.5723,-4.5763,-4.5822,-4.5896,-4.5953,-4.6047,-4.5975,-4.5993,-4.6104,-4.6159,-4.614,-4.603,-4.6159,-4.6562,-4.7113,-4.7114,-4.75,-4.7758,-4.7241,-4.6722,-4.6185,-4.5366,-4.4693,-4.4098,-4.3998,-4.3974,-4.3989,-4.3989,-4.3989,-4.4008,-4.3989,-4.4005,-4.4005,-4.4005,-4.4005,-4.4228,-4.4878,-4.5324,-4.5528,-4.6271,-4.6773,-4.6624,-4.6513,-4.6513,-4.6513,-4.6494,-4.6587,-4.6754,-4.6624,-4.6568,-4.6754,-4.7144,-4.72,-4.6735,-4.7218,-4.7738,-4.7906,-4.8426,-4.889,-4.889,-4.889,-4.889,-4.889,-4.889,-4.889,-4.889,-4.889,-4.889,-4.889,-4.889,-4.889,-4.889,-4.889,-4.889,-4.889,-4.889,-4.889,-4.889,-4.8872,-4.8872,-4.8667,-4.8147,-4.7738,-4.7107,-4.5616,-4.4566,-4.4094,-4.356,-4.3031,-4.2671,-4.2472,-4.2308,-4.2308,-4.2308,-4.2308,-4.2671,-4.3458,-4.3355,-4.3772,-4.4621,-4.5014,-4.5548,-4.6176,-4.6803,-4.7078,-4.7098,-4.7181,-4.7203,-4.7165,-4.7243,-4.7372,-4.7569,-4.7292,-4.7165,-4.7206,-4.7284,-4.7323,-4.7344,-4.7402,-4.7478,-4.7534,-4.7553,-4.7553,-4.7517,-4.7517,-4.7553,-4.7572,-4.761,-4.7813,-4.7978,-4.7647,-4.7535,-4.7609,-4.7015,-4.6494,-4.6234,-4.5614,-4.509,-4.4846,-4.4305,-4.4005,-4.4005,-4.4005,-4.4005,-4.4005,-4.4005,-4.4005,-4.4023,-4.4005,-4.4302,-4.4896,-4.5677,-4.642,-4.6977,-4.7627,-4.785,-4.7478,-4.733,-4.733,-4.733,-4.733,-4.7571,-4.7924,-4.7683,-4.7497,-4.798,-4.7813,-4.7627,-4.7348,-4.8036,-4.8481,-4.8463,-4.8742,-4.8872,-4.889,-4.889,-4.889,-4.889,-4.889,-4.889,-4.889,-4.889,-4.889,-4.889,-4.889,-4.889,-4.889,-4.889,-4.889,-4.889,-4.889,-4.889,-4.889,-4.889,-4.889,-4.8667,-4.8296,-4.7906,-4.7112,-4.5619,-4.4623,-4.4142,-4.3615,-4.3098,-4.2629,-4.2389,-4.2308,-4.2308,-4.2308,-4.2308,-4.4076,-4.4916,-4.4715,-4.5089,-4.5739,-4.6131,-4.6482,-4.699,-4.7604,-4.792,-4.7904,-4.801,-4.8032,-4.8032,-4.8072,-4.8092,-4.8072,-4.8092,-4.8111,-4.8111,-4.8149,-4.8207,-4.8246,-4.8286,-4.8324,-4.8324,-4.8306,-4.8324,-4.8306,-4.8344,-4.8363,-4.8382,-4.8476,-4.8513,-4.8532,-4.8144,-4.7902,-4.7846,-4.7527,-4.6986,-4.6428,-4.5976,-4.5435,-4.4841,-4.4283,-4.4042,-4.4005,-4.4005,-4.4005,-4.4079,-4.4283,-4.4501,-4.4563,-4.4876,-4.5267,-4.5826,-4.6555,-4.7264,-4.7737,-4.8351,-4.8723,-4.824,-4.8147,-4.8147,-4.8164,-4.8198,-4.8528,-4.8788,-4.8595,-4.8501,-4.8805,-4.8602,-4.8232,-4.8147,-4.8556,-4.8872,-4.889,-4.889,-4.889,-4.889,-4.889,-4.889,-4.889,-4.889,-4.889,-4.889,-4.889,-4.889,-4.889,-4.889,-4.889,-4.889,-4.889,-4.889,-4.889,-4.889,-4.889,-4.889,-4.889,-4.889,-4.8797,-4.8314,-4.7868,-4.7078,-4.5827,-4.5034,-4.4474,-4.383,-4.3268,-4.2833,-4.2512,-4.2308,-4.2308,-4.2308,-4.2308,-4.568,-4.6642,-4.6212,-4.6608,-4.7455,-4.7146,-4.7234,-4.7645,-4.7863,-4.7961,-4.7984,-4.8108,-4.813,-4.809,-4.8209,-4.8247,-4.8226,-4.8247,-4.8267,-4.8248,-4.8228,-4.8246,-4.8267,-4.8305,-4.8324,-4.8324,-4.8324,-4.8343,-4.8363,-4.8438,-4.8494,-4.8513,-4.8569,-4.8605,-4.8623,-4.8714,-4.8712,-4.8656,-4.8727,-4.8019,-4.6793,-4.6475,-4.5844,-4.4451,-4.4278,-4.4203,-4.4256,-4.4399,-4.4312,-4.4225,-4.4944,-4.545,-4.5686,-4.633,-4.6595,-4.6782,-4.7567,-4.786,-4.799,-4.8567,-4.894,-4.8864,-4.8846,-4.8943,-4.8881,-4.8961,-4.9046,-4.9193,-4.9214,-4.9265,-4.9209,-4.9102,-4.9017,-4.894,-4.894,-4.8942,-4.8926,-4.8925,-4.8943,-4.889,-4.889,-4.889,-4.889,-4.889,-4.889,-4.889,-4.889,-4.889,-4.889,-4.889,-4.889,-4.889,-4.889,-4.889,-4.889,-4.889,-4.889,-4.889,-4.889,-4.889,-4.889,-4.8444,-4.8147,-4.7319,-4.646,-4.5625,-4.5022,-4.4559,-4.3983,-4.3554,-4.3106,-4.2568,-4.2417,-4.253,-4.2323,-4.6815,-4.7603,-4.7502,-4.7629,-4.7891,-4.7749,-4.777,-4.7911,-4.8048,-4.8107,-4.8128,-4.8228,-4.8248,-4.8229,-4.8286,-4.8287,-4.8286,-4.8305,-4.8324,-4.8324,-4.8267,-4.8267,-4.8287,-4.8324,-4.8306,-4.8325,-4.8401,-4.8456,-4.8457,-4.8532,-4.8569,-4.8569,-4.8697,-4.8751,-4.8769,-4.884,-4.8874,-4.8874,-4.8873,-4.8723,-4.8129,-4.7033,-4.6327,-4.5934,-4.5339,-4.5117,-4.5189,-4.5836,-4.5817,-4.5226,-4.5901,-4.6408,-4.6596,-4.6873,-4.7286,-4.7774,-4.8021,-4.8418,-4.8858,-4.9108,-4.9239,-4.9255,-4.9241,-4.9255,-4.9255,-4.9321,-4.9352,-4.9352,-4.9384,-4.9399,-4.9352,-4.9337,-4.9305,-4.9273,-4.9195,-4.9129,-4.9113,-4.9113,-4.9062,-4.8943,-4.8907,-4.8907,-4.8907,-4.889,-4.889,-4.889,-4.889,-4.889,-4.889,-4.889,-4.889,-4.889,-4.889,-4.889,-4.889,-4.889,-4.889,-4.889,-4.889,-4.889,-4.889,-4.8742,-4.863,-4.8317,-4.7404,-4.6581,-4.6269,-4.5919,-4.5218,-4.4384,-4.3938,-4.349,-4.3178,-4.3124,-4.2581,-4.7671,-4.8072,-4.809,-4.805,-4.8012,-4.7992,-4.7992,-4.8032,-4.8148,-4.8187,-4.8207,-4.8286,-4.8324,-4.8324,-4.8324,-4.8324,-4.8324,-4.8324,-4.8324,-4.8306,-4.8363,-4.8382,-4.8401,-4.8401,-4.842,-4.8439,-4.8513,-4.855,-4.855,-4.8642,-4.8678,-4.8715,-4.8804,-4.8821,-4.8839,-4.8874,-4.889,-4.889,-4.889,-4.876,-4.8314,-4.7534,-4.6913,-4.6627,-4.6193,-4.603,-4.6237,-4.702,-4.7027,-4.6435,-4.6824,-4.7417,-4.7602,-4.7956,-4.8351,-4.8807,-4.8825,-4.9021,-4.9283,-4.9415,-4.9415,-4.9399,-4.9415,-4.9415,-4.9415,-4.9461,-4.9521,-4.954,-4.9566,-4.9581,-4.954,-4.9461,-4.9446,-4.9495,-4.9449,-4.9371,-4.9308,-4.9273,-4.9225,-4.9127,-4.9061,-4.9029,-4.8993,-4.896,-4.8909,-4.889,-4.889,-4.889,-4.889,-4.889,-4.8907,-4.8942,-4.8993,-4.9027,-4.9046,-4.9046,-4.8995,-4.8978,-4.889,-4.889,-4.889,-4.889,-4.8853,-4.8652,-4.8106,-4.7629,-4.7224,-4.6746,-4.5989,-4.5285,-4.4859,-4.4397,-4.4009,-4.3571,-4.303,-4.8248,-4.8207,-4.8207,-4.813,-4.8052,-4.8032,-4.8052,-4.8052,-4.8169,-4.8207,-4.8226,-4.8267,-4.8305,-4.8324,-4.8324,-4.8324,-4.8324,-4.8324,-4.8324,-4.8382,-4.8457,-4.8532,-4.855,-4.855,-4.8569,-4.8569,-4.8624,-4.8624,-4.8642,-4.8769,-4.8804,-4.8822,-4.8874,-4.8891,-4.8873,-4.889,-4.889,-4.8909,-4.8942,-4.8717,-4.8232,-4.7839,-4.7436,-4.7081,-4.7027,-4.7121,-4.7439,-4.7972,-4.8003,-4.7068,-4.7886,-4.8374,-4.8631,-4.9325,-4.9589,-4.9608,-4.957,-4.955,-4.9506,-4.9506,-4.9491,-4.9506,-4.9491,-4.9461,-4.9521,-4.9625,-4.9721,-4.9702,-4.983,-4.9802,-4.9717,-4.9551,-4.9566,-4.9673,-4.9688,-4.963,-4.9506,-4.9446,-4.943,-4.9399,-4.9292,-4.9228,-4.9179,-4.9062,-4.8943,-4.8995,-4.8978,-4.8925,-4.8978,-4.9012,-4.9029,-4.9044,-4.911,-4.9193,-4.9211,-4.9214,-4.9148,-4.9079,-4.8943,-4.889,-4.889,-4.889,-4.889,-4.8691,-4.8399,-4.8106,-4.7793,-4.7206,-4.6726,-4.6374,-4.6061,-4.5302,-4.4578,-4.4127,-4.359,-4.8287,-4.8286,-4.8286,-4.8267,-4.8229,-4.8229,-4.8229,-4.8229,-4.8267,-4.8286,-4.8267,-4.8305,-4.8306,-4.8324,-4.8324,-4.8324,-4.8325,-4.8325,-4.8363,-4.8494,-4.8661,-4.8715,-4.8715,-4.8678,-4.8605,-4.8623,-4.8715,-4.875,-4.8787,-4.8821,-4.8874,-4.8874,-4.8873,-4.889,-4.889,-4.889,-4.889,-4.8907,-4.9046,-4.9019,-4.877,-4.8327,-4.805,-4.7883,-4.7968,-4.8413,-4.9003,-4.94,-4.9386,-4.9196,-4.92,-4.9325,-4.9494,-4.9692,-4.9824,-4.9843,-4.9857,-4.9811,-4.9783,-4.9769,-4.9783,-4.9769,-4.9755,-4.9816,-4.9797,-4.9797,-4.9857,-4.9857,-4.9885,-4.9866,-4.9843,-4.9811,-4.9783,-4.983,-4.9843,-4.983,-4.9788,-4.9702,-4.9566,-4.9461,-4.9399,-4.9352,-4.9352,-4.9228,-4.9146,-4.9131,-4.9062,-4.9012,-4.9046,-4.9113,-4.9162,-4.9193,-4.9289,-4.9368,-4.9371,-4.934,-4.9276,-4.9211,-4.9061,-4.8993,-4.8993,-4.8959,-4.8976,-4.8942,-4.8837,-4.8543,-4.8232,-4.8324,-4.7941,-4.7611,-4.7168,-4.6408,-4.5639,-4.4962,-4.441,-4.8324,-4.8324,-4.8324,-4.8324,-4.8324,-4.8324,-4.8324,-4.8324,-4.8324,-4.8324,-4.8324,-4.8324,-4.8343,-4.8382,-4.8401,-4.842,-4.8439,-4.8439,-4.8495,-4.8642,-4.8769,-4.8804,-4.8821,-4.8786,-4.875,-4.875,-4.8804,-4.8857,-4.8856,-4.8874,-4.889,-4.889,-4.889,-4.889,-4.889,-4.889,-4.896,-4.9046,-4.9129,-4.9228,-4.9177,-4.8974,-4.8837,-4.8911,-4.9042,-4.9386,-4.9707,-4.9819,-4.9838,-4.9802,-4.9788,-4.9816,-4.9866,-4.9893,-4.9893,-4.9893,-4.9893,-4.9893,-4.9893,-4.9893,-4.9879,-4.9893,-4.9893,-4.9893,-4.9893,-4.9893,-4.9893,-4.9893,-4.9893,-4.9893,-4.9893,-4.9893,-4.9893,-4.9893,-4.9893,-4.9893,-4.9879,-4.983,-4.9774,-4.964,-4.9581,-4.9555,-4.9495,-4.9387,-4.9324,-4.9292,-4.9276,-4.9209,-4.9225,-4.9289,-4.9305,-4.9352,-4.9461,-4.954,-4.9525,-4.9495,-4.9402,-4.9321,-4.9239,-4.9209,-4.9209,-4.916,-4.9075,-4.9027,-4.896,-4.8909,-4.8689,-4.889,-4.889,-4.8436,-4.7887,-4.7348,-4.6686,-4.5765,-4.5308,-4.8324,-4.8324,-4.8324,-4.8324,-4.8324,-4.8324,-4.8324,-4.8324,-4.8324,-4.8363,-4.8325,-4.8325,-4.8438,-4.8494,-4.8495,-4.8532,-4.8587,-4.8624,-4.8678,-4.8769,-4.8804,-4.8857,-4.8874,-4.8873,-4.8874,-4.889,-4.8873,-4.8891,-4.8891,-4.889,-4.889,-4.889,-4.889,-4.8925,-4.8925,-4.8942,-4.9062,-4.9211,-4.9292,-4.9355,-4.9446,-4.9416,-4.9502,-4.9603,-4.9702,-4.9771,-4.9866,-4.9879,-4.9879,-4.9893,-4.9893,-4.9893,-4.9893,-4.9893,-4.9893,-4.9893,-4.9893,-4.9893,-4.9893,-4.9893,-4.9893,-4.9893,-4.9893,-4.9893,-4.9893,-4.9893,-4.9893,-4.9893,-4.9893,-4.9893,-4.9893,-4.9893,-4.9893,-4.9893,-4.9893,-4.9893,-4.9893,-4.9893,-4.9866,-4.9871,-4.9755,-4.9717,-4.9659,-4.957,-4.9491,-4.943,-4.943,-4.943,-4.9446,-4.9461,-4.9476,-4.9533,-4.9655,-4.9644,-4.9615,-4.96,-4.9525,-4.943,-4.9365,-4.9384,-4.9368,-4.9305,-4.9225,-4.911,-4.9062,-4.901,-4.8993,-4.9029,-4.8995,-4.8874,-4.844,-4.775,-4.7102,-4.6477,-4.6169,-4.8324,-4.8324,-4.8324,-4.8324,-4.8324,-4.8324,-4.8324,-4.8324,-4.8419,-4.8457,-4.8476,-4.8513,-4.855,-4.8587,-4.8587,-4.8587,-4.866,-4.8715,-4.8787,-4.8822,-4.8839,-4.8891,-4.8891,-4.889,-4.889,-4.889,-4.8907,-4.8942,-4.8925,-4.889,-4.8976,-4.8907,-4.8942,-4.901,-4.9144,-4.9162,-4.9255,-4.9442,-4.9533,-4.9625,-4.9698,-4.9764,-4.9819,-4.9893,-4.9946,-4.9946,-4.9933,-4.9906,-4.9893,-4.9893,-4.9893,-4.9906,-4.9933,-4.9933,-4.992,-4.9893,-4.9893,-4.9893,-4.9893,-4.9893,-4.9893,-4.9893,-4.9893,-4.9893,-4.9893,-4.9893,-4.9893,-4.9893,-4.9893,-4.9893,-4.9893,-4.9893,-4.9893,-4.9893,-4.9893,-4.9893,-4.9893,-4.9893,-4.9893,-4.9898,-4.9871,-4.9838,-4.9788,-4.9731,-4.9673,-4.9596,-4.9566,-4.9581,-4.963,-4.9659,-4.9688,-4.9741,-4.9838,-4.9774,-4.9688,-4.9673,-4.963,-4.9521,-4.9457,-4.9457,-4.9461,-4.9415,-4.9337,-4.9337,-4.9289,-4.9257,-4.9241,-4.9195,-4.9176,-4.9144,-4.864,-4.806,-4.7605,-4.7122,-4.6855,-4.8324,-4.8324,-4.8324,-4.8324,-4.8324,-4.8324,-4.8324,-4.8306,-4.8438,-4.8494,-4.8513,-4.8587,-4.8642,-4.8678,-4.8715,-4.8714,-4.8767,-4.8821,-4.8857,-4.8856,-4.8891,-4.889,-4.889,-4.889,-4.889,-4.8942,-4.9061,-4.916,-4.9179,-4.9096,-4.919,-4.9389,-4.9374,-4.9401,-4.9527,-4.9584,-4.9646,-4.979,-4.9889,-4.9987,-5.0032,-5.0106,-5.013,-5.0162,-5.0162,-5.0162,-5.0174,-5.0206,-5.021,-5.0222,-5.0248,-5.0222,-5.0178,-5.0125,-5.0019,-4.994,-4.9893,-4.9893,-4.9893,-4.9893,-4.9893,-4.9893,-4.9893,-4.9893,-4.9893,-4.9893,-4.9893,-4.9893,-4.9893,-4.9893,-4.9893,-4.9893,-4.9893,-4.9893,-4.9893,-4.9893,-4.9893,-4.9893,-4.9893,-4.9893,-4.9879,-4.9866,-4.9885,-4.9843,-4.9816,-4.9759,-4.9698,-4.9731,-4.9774,-4.9788,-4.9802,-4.9843,-4.9912,-4.9871,-4.9788,-4.9759,-4.9745,-4.9655,-4.9611,-4.9592,-4.9607,-4.9611,-4.964,-4.9669,-4.9611,-4.9491,-4.9384,-4.9305,-4.9352,-4.9318,-4.8781,-4.8309,-4.8098,-4.7818,-4.7432,-4.8324,-4.8324,-4.8324,-4.8306,-4.8343,-4.8343,-4.8344,-4.8382,-4.8513,-4.8569,-4.8569,-4.8642,-4.8714,-4.8786,-4.8822,-4.8839,-4.889,-4.8891,-4.8891,-4.8891,-4.8891,-4.889,-4.8909,-4.8976,-4.9025,-4.9104,-4.9362,-4.9472,-4.9377,-4.9396,-4.9583,-4.9716,-4.9752,-4.9832,-4.9911,-4.9911,-5.0078,-5.0168,-5.0222,-5.0298,-5.0363,-5.0385,-5.0396,-5.0436,-5.0417,-5.0417,-5.041,-5.0441,-5.0481,-5.0491,-5.0528,-5.0557,-5.044,-5.0378,-5.0248,-5.0062,-4.9967,-4.9906,-4.9906,-4.9893,-4.9893,-4.9893,-4.9893,-4.9893,-4.9893,-4.9893,-4.9893,-4.9893,-4.9893,-4.9893,-4.9893,-4.9893,-4.9893,-4.9893,-4.9893,-4.9893,-4.9893,-4.9893,-4.9893,-4.9893,-4.9893,-4.9893,-4.9912,-4.9898,-4.9857,-4.9857,-4.9797,-4.9797,-4.9857,-4.9871,-4.9885,-4.9866,-4.9893,-4.9893,-4.9866,-4.9871,-4.9838,-4.9797,-4.9783,-4.9783,-4.9811,-4.9838,-4.9871,-4.983,-4.9741,-4.9592,-4.9503,-4.9457,-4.9537,-4.9377,-4.8902,-4.8549,-4.8347,-4.8018,-4.7603,-4.8324,-4.8324,-4.8324,-4.8363,-4.8475,-4.8494,-4.8513,-4.8587,-4.8678,-4.8787,-4.8733,-4.8821,-4.8874,-4.8874,-4.8891,-4.8873,-4.889,-4.889,-4.8907,-4.8942,-4.894,-4.8974,-4.8993,-4.9225,-4.9324,-4.9394,-4.9688,-4.9627,-4.9599,-4.9735,-4.9846,-4.9949,-4.9998,-4.9998,-5.0203,-5.0226,-5.0252,-5.0353,-5.0374,-5.0396,-5.0417,-5.0427,-5.0479,-5.05,-5.0529,-5.0548,-5.0601,-5.0645,-5.0626,-5.0617,-5.0617,-5.06,-5.0564,-5.0583,-5.0555,-5.0393,-5.018,-4.9939,-4.9986,-4.9986,-4.9933,-4.9933,-4.9925,-4.9893,-4.9906,-4.9906,-4.9906,-4.9893,-4.9893,-4.9893,-4.9906,-4.9893,-4.9893,-4.9893,-4.9893,-4.9893,-4.9893,-4.9893,-4.9893,-4.9893,-4.9893,-4.9893,-4.9893,-4.9893,-4.9893,-4.9893,-4.9893,-4.9893,-4.9893,-4.9893,-4.9893,-4.9893,-4.9893,-4.9893,-4.9893,-4.9893,-4.9893,-4.9893,-4.9893,-4.9893,-4.9893,-4.9893,-4.9893,-4.9852,-4.9783,-4.9769,-4.9726,-4.9712,-4.9726,-4.9499,-4.9118,-4.8849,-4.8602,-4.8196,-4.7687,-4.8476,-4.8476,-4.8458,-4.8495,-4.8569,-4.8569,-4.8569,-4.8624,-4.8732,-4.8804,-4.8822,-4.8874,-4.889,-4.889,-4.889,-4.889,-4.889,-4.8907,-4.9027,-4.9155,-4.9185,-4.9277,-4.9472,-4.9613,-4.9687,-4.9768,-4.998,-5.0126,-5.0042,-5.0049,-5.0176,-5.0418,-5.0398,-5.0449,-5.0519,-5.0596,-5.0625,-5.0681,-5.0699,-5.0698,-5.0713,-5.0731,-5.0745,-5.0832,-5.0832,-5.0835,-5.0865,-5.094,-5.0933,-5.094,-5.0985,-5.0946,-5.0893,-5.085,-5.0801,-5.0679,-5.0471,-5.0292,-5.0237,-5.0209,-5.0125,-5.0019,-5.0012,-5.0012,-4.9999,-4.9999,-4.9999,-5.0018,-4.9978,-4.9946,-4.9933,-4.9906,-4.9893,-4.9893,-4.9906,-4.9893,-4.9893,-4.9893,-4.9893,-4.9893,-4.9893,-4.9893,-4.9893,-4.9893,-4.9893,-4.9893,-4.9893,-4.9893,-4.9893,-4.9893,-4.9893,-4.9893,-4.9893,-4.9893,-4.9893,-4.9893,-4.9893,-4.9893,-4.9893,-4.9893,-4.9893,-4.9893,-4.9893,-4.9893,-4.9852,-4.9852,-4.9898,-4.9885,-4.9811,-4.9621,-4.9374,-4.9067,-4.8709,-4.8038,-4.76,-4.8678,-4.8678,-4.8623,-4.8605,-4.866,-4.8642,-4.866,-4.8678,-4.8786,-4.884,-4.884,-4.8874,-4.889,-4.889,-4.889,-4.8907,-4.8976,-4.9008,-4.9204,-4.9389,-4.9546,-4.9664,-4.9813,-4.9936,-5.0016,-5.0033,-5.0366,-5.0489,-5.049,-5.047,-5.0567,-5.0908,-5.0736,-5.0771,-5.0858,-5.0855,-5.0847,-5.0867,-5.0894,-5.094,-5.0997,-5.0991,-5.1037,-5.108,-5.1109,-5.1134,-5.1155,-5.1176,-5.122,-5.1225,-5.1239,-5.1196,-5.1131,-5.1084,-5.1016,-5.094,-5.0804,-5.0731,-5.0585,-5.049,-5.0366,-5.0275,-5.0202,-5.023,-5.02,-5.0175,-5.0133,-5.0095,-5.0057,-5.0012,-4.9999,-4.9973,-4.9946,-4.9933,-4.992,-4.9906,-4.9893,-4.9893,-4.9893,-4.9893,-4.9893,-4.9893,-4.9893,-4.9893,-4.9893,-4.9893,-4.9893,-4.9893,-4.9893,-4.9893,-4.9893,-4.9893,-4.9893,-4.9893,-4.9893,-4.9893,-4.9893,-4.9893,-4.9893,-4.9893,-4.9893,-4.9893,-4.9893,-4.9893,-4.9893,-4.9893,-4.9912,-4.9893,-4.9879,-4.9736,-4.9544,-4.9166,-4.871,-4.8055,-4.7597,-4.8873,-4.8874,-4.8678,-4.8678,-4.8787,-4.8787,-4.884,-4.8838,-4.8891,-4.8891,-4.8873,-4.889,-4.889,-4.889,-4.8925,-4.901,-4.916,-4.9309,-4.9502,-4.9688,-4.9813,-4.9917,-5.0083,-5.024,-5.0368,-5.0411,-5.0653,-5.078,-5.083,-5.0761,-5.0822,-5.089,-5.0866,-5.0882,-5.0906,-5.0914,-5.0959,-5.0976,-5.099,-5.103,-5.1075,-5.1099,-5.1128,-5.1171,-5.1186,-5.1225,-5.1265,-5.1269,-5.1288,-5.1284,-5.1292,-5.13,-5.1248,-5.1243,-5.1186,-5.1172,-5.1147,-5.1064,-5.0953,-5.0747,-5.061,-5.0583,-5.0538,-5.0481,-5.0417,-5.0393,-5.0313,-5.0205,-5.0209,-5.0169,-5.0132,-5.0076,-5.007,-5.0063,-5.0038,-4.9978,-4.9965,-4.9906,-4.9906,-4.9893,-4.9893,-4.9893,-4.9893,-4.9893,-4.9893,-4.9893,-4.9893,-4.9893,-4.9893,-4.9893,-4.9893,-4.9893,-4.9893,-4.9893,-4.9893,-4.9893,-4.9893,-4.9893,-4.9893,-4.9893,-4.9893,-4.9893,-4.9893,-4.9893,-4.9893,-4.9893,-4.9893,-4.9893,-4.9893,-4.9912,-4.9693,-4.9249,-4.8782,-4.8191,-4.7847,-4.889,-4.8873,-4.8803,-4.8803,-4.8856,-4.8856,-4.8874,-4.889,-4.889,-4.889,-4.889,-4.889,-4.889,-4.8925,-4.9062,-4.9174,-4.9343,-4.9521,-4.9798,-5.003,-5.0176,-5.0327,-5.048,-5.0587,-5.0707,-5.0724,-5.085,-5.0901,-5.089,-5.0906,-5.0898,-5.0898,-5.0914,-5.0898,-5.0906,-5.0932,-5.0997,-5.1043,-5.1069,-5.1099,-5.1145,-5.118,-5.1206,-5.1267,-5.1256,-5.1261,-5.1296,-5.13,-5.13,-5.13,-5.13,-5.13,-5.13,-5.13,-5.13,-5.13,-5.13,-5.1261,-5.1201,-5.0997,-5.0877,-5.0731,-5.0715,-5.0717,-5.064,-5.064,-5.0613,-5.0539,-5.046,-5.0429,-5.045,-5.0363,-5.026,-5.0221,-5.0169,-5.0095,-5.0038,-5.0025,-4.9959,-4.9973,-4.992,-4.9893,-4.9893,-4.9893,-4.9893,-4.9893,-4.9893,-4.9893,-4.9893,-4.9893,-4.9893,-4.9893,-4.9893,-4.9893,-4.9893,-4.9893,-4.9893,-4.9893,-4.9893,-4.9893,-4.9893,-4.9893,-4.9893,-4.9893,-4.9893,-4.9893,-4.9893,-4.9893,-4.9893,-4.9912,-4.9636,-4.9236,-4.8766,-4.8326,-4.8072,-4.889,-4.889,-4.889,-4.889,-4.889,-4.889,-4.889,-4.889,-4.889,-4.889,-4.889,-4.8942,-4.8976,-4.9044,-4.9255,-4.942,-4.9599,-4.9813,-5.0133,-5.0366,-5.0548,-5.0689,-5.0833,-5.0893,-5.0866,-5.0898,-5.0906,-5.0906,-5.0944,-5.0937,-5.0947,-5.0961,-5.0974,-5.0954,-5.094,-5.0997,-5.1069,-5.1117,-5.1134,-5.1161,-5.1225,-5.1234,-5.1258,-5.1292,-5.1296,-5.1296,-5.13,-5.13,-5.13,-5.13,-5.13,-5.13,-5.13,-5.13,-5.13,-5.13,-5.13,-5.13,-5.1261,-5.1205,-5.1103,-5.0991,-5.0972,-5.0946,-5.0898,-5.0877,-5.0847,-5.0739,-5.0723,-5.0731,-5.0731,-5.0595,-5.049,-5.046,-5.0418,-5.0344,-5.0245,-5.0205,-5.0114,-5.0057,-4.9999,-4.9973,-4.9992,-4.9992,-4.9959,-4.9952,-4.9912,-4.9925,-4.9933,-4.992,-4.9893,-4.9893,-4.9893,-4.9893,-4.9893,-4.9893,-4.9893,-4.9893,-4.9893,-4.9893,-4.9893,-4.9893,-4.9893,-4.9893,-4.9893,-4.9893,-4.9893,-4.9893,-4.9893,-4.9893,-4.9592,-4.9286,-4.9073,-4.8695,-4.8326,-4.8834,-4.889,-4.8853,-4.8853,-4.8816,-4.889,-4.889,-4.8909,-4.8907,-4.8926,-4.8942,-4.9113,-4.9211,-4.9289,-4.9539,-4.9757,-4.9936,-5.0218,-5.048,-5.0653,-5.0743,-5.0874,-5.089,-5.0898,-5.0906,-5.0906,-5.0921,-5.0959,-5.0997,-5.0997,-5.103,-5.1069,-5.1069,-5.1043,-5.101,-5.1049,-5.1128,-5.1181,-5.1186,-5.1234,-5.128,-5.1288,-5.1292,-5.1296,-5.13,-5.13,-5.13,-5.13,-5.13,-5.13,-5.13,-5.13,-5.13,-5.13,-5.13,-5.13,-5.13,-5.13,-5.1296,-5.1296,-5.1256,-5.1215,-5.1172,-5.1157,-5.1122,-5.1074,-5.103,-5.094,-5.0865,-5.0835,-5.0813,-5.079,-5.075,-5.069,-5.0647,-5.0576,-5.0459,-5.0385,-5.0309,-5.0209,-5.0151,-5.0108,-5.0095,-5.0082,-5.0057,-5.0018,-4.9952,-4.9952,-4.9973,-4.9946,-4.992,-4.9906,-4.9906,-4.9893,-4.9893,-4.9893,-4.9893,-4.9893,-4.9893,-4.9893,-4.9893,-4.9893,-4.9893,-4.9893,-4.9893,-4.9893,-4.9893,-4.9893,-4.9893,-4.9866,-4.9669,-4.943,-4.9255,-4.9057,-4.8694,-4.7311,-4.7348,-4.7887,-4.811,-4.8184,-4.8686,-4.889,-4.8907,-4.9029,-4.9096,-4.916,-4.9396,-4.9529,-4.9627,-4.9851,-5.0116,-5.0251,-5.0448,-5.0691,-5.0833,-5.0882,-5.089,-5.0898,-5.0914,-5.0929,-5.0947,-5.0969,-5.0997,-5.1069,-5.1069,-5.1075,-5.1105,-5.1145,-5.115,-5.1139,-5.1161,-5.1186,-5.1248,-5.1256,-5.1265,-5.1296,-5.13,-5.13,-5.13,-5.13,-5.13,-5.13,-5.13,-5.13,-5.13,-5.13,-5.13,-5.13,-5.13,-5.13,-5.13,-5.13,-5.13,-5.13,-5.1296,-5.13,-5.13,-5.1296,-5.1284,-5.1234,-5.1215,-5.1172,-5.1146,-5.1075,-5.1075,-5.1127,-5.1042,-5.0972,-5.0939,-5.087,-5.0758,-5.0666,-5.0622,-5.0558,-5.0427,-5.0336,-5.024,-5.0193,-5.0264,-5.0221,-5.0169,-5.0126,-5.007,-5.007,-4.9999,-4.9959,-4.9965,-4.9952,-4.9906,-4.9893,-4.992,-4.992,-4.9906,-4.9893,-4.9893,-4.9893,-4.9893,-4.9893,-4.9893,-4.9893,-4.9893,-4.9893,-4.9893,-4.9893,-4.9824,-4.9698,-4.9581,-4.9427,-4.9268,-4.9071,-4.6513,-4.6568,-4.707,-4.746,-4.7813,-4.8556,-4.8943,-4.9012,-4.9146,-4.926,-4.9411,-4.9655,-4.9803,-4.993,-5.0206,-5.0415,-5.0519,-5.069,-5.0791,-5.0898,-5.0898,-5.0921,-5.0937,-5.0932,-5.0995,-5.1017,-5.1043,-5.1075,-5.1134,-5.1134,-5.115,-5.1196,-5.1215,-5.123,-5.1234,-5.1239,-5.1248,-5.1273,-5.1296,-5.1296,-5.13,-5.13,-5.13,-5.13,-5.13,-5.13,-5.13,-5.13,-5.13,-5.13,-5.13,-5.13,-5.13,-5.13,-5.13,-5.13,-5.13,-5.13,-5.13,-5.13,-5.13,-5.13,-5.13,-5.13,-5.13,-5.1288,-5.1292,-5.1288,-5.13,-5.1296,-5.1261,-5.1171,-5.1155,-5.1109,-5.1066,-5.0959,-5.0891,-5.0847,-5.0766,-5.0641,-5.0548,-5.0427,-5.0342,-5.0393,-5.0427,-5.038,-5.031,-5.0248,-5.017,-5.0095,-5.0025,-5.0018,-5.0005,-5.0005,-4.9992,-4.9986,-4.9973,-4.9933,-4.9976,-5.0052,-4.9893,-4.9893,-4.9893,-4.9893,-4.9893,-4.9893,-4.9893,-4.9893,-4.9893,-4.9893,-4.9852,-4.9726,-4.9596,-4.9488,-4.9377,-4.6401,-4.6455,-4.6455,-4.6919,-4.7735,-4.8551,-4.9027,-4.9211,-4.9228,-4.9411,-4.9712,-4.987,-5.0056,-5.0252,-5.0567,-5.0701,-5.0718,-5.085,-5.0898,-5.0921,-5.0944,-5.0974,-5.1009,-5.1004,-5.105,-5.1087,-5.1111,-5.1134,-5.1186,-5.1191,-5.1234,-5.128,-5.1284,-5.1288,-5.1288,-5.1288,-5.1273,-5.1296,-5.13,-5.13,-5.13,-5.13,-5.13,-5.13,-5.13,-5.13,-5.13,-5.13,-5.13,-5.13,-5.13,-5.13,-5.13,-5.13,-5.13,-5.13,-5.13,-5.13,-5.13,-5.13,-5.13,-5.13,-5.13,-5.13,-5.13,-5.13,-5.13,-5.13,-5.13,-5.13,-5.1288,-5.1284,-5.128,-5.1256,-5.1256,-5.1191,-5.1128,-5.1062,-5.0972,-5.0889,-5.0786,-5.0692,-5.0666,-5.0686,-5.0623,-5.0577,-5.0518,-5.0434,-5.0344,-5.0158,-5.012,-5.0108,-5.0095,-5.0082,-5.012,-5.0241,-5.012,-5.0113,-5.0271,-5.0328,-5.0136,-4.9925,-4.9906,-4.9906,-4.9893,-4.9893,-4.9893,-4.9893,-4.9893,-4.9893,-4.9893,-4.9866,-4.9726,-4.9769,-4.9679,-4.4808,-4.499,-4.555,-4.634,-4.733,-4.8677,-4.927,-4.9368,-4.9569,-4.9776,-4.987,-5.0286,-5.0457,-5.0567,-5.0754,-5.0825,-5.0882,-5.091,-5.0974,-5.0995,-5.1023,-5.1043,-5.1069,-5.1081,-5.1117,-5.115,-5.1171,-5.1191,-5.1248,-5.1261,-5.1261,-5.1296,-5.13,-5.13,-5.13,-5.13,-5.13,-5.13,-5.13,-5.13,-5.13,-5.13,-5.13,-5.13,-5.13,-5.13,-5.13,-5.13,-5.13,-5.13,-5.13,-5.13,-5.13,-5.13,-5.13,-5.13,-5.13,-5.13,-5.13,-5.13,-5.13,-5.13,-5.13,-5.13,-5.13,-5.13,-5.13,-5.13,-5.13,-5.13,-5.13,-5.13,-5.13,-5.13,-5.13,-5.128,-5.1215,-5.1181,-5.112,-5.1048,-5.0959,-5.0905,-5.0891,-5.0862,-5.0801,-5.0761,-5.0741,-5.0682,-5.0556,-5.0382,-5.0207,-5.0182,-5.0386,-5.045,-5.0539,-5.066,-5.0437,-5.033,-5.0634,-5.0659,-5.0189,-4.9997,-4.9952,-4.992,-4.992,-4.9906,-4.9893,-4.9893,-4.9893,-4.9893,-4.9893,-4.9893,-4.9893,-4.9912,-4.9898,-4.4203,-4.4429,-4.4897,-4.5846,-4.723,-4.8894,-4.9646,-4.9731,-4.9844,-5.0,-5.0241,-5.0537,-5.0729,-5.0763,-5.0858,-5.0914,-5.0952,-5.0969,-5.1004,-5.105,-5.1087,-5.1111,-5.1128,-5.1145,-5.1196,-5.122,-5.1243,-5.1252,-5.1296,-5.13,-5.13,-5.13,-5.13,-5.13,-5.13,-5.13,-5.13,-5.13,-5.13,-5.13,-5.13,-5.13,-5.13,-5.13,-5.13,-5.13,-5.1304,-5.1304,-5.1292,-5.1316,-5.1319,-5.1342,-5.1342,-5.1346,-5.1319,-5.1319,-5.1296,-5.1296,-5.1292,-5.1304,-5.13,-5.13,-5.13,-5.13,-5.13,-5.13,-5.13,-5.13,-5.13,-5.13,-5.13,-5.13,-5.13,-5.13,-5.13,-5.13,-5.1296,-5.1296,-5.1243,-5.1181,-5.112,-5.1066,-5.1023,-5.1004,-5.0979,-5.0945,-5.1032,-5.1138,-5.0957,-5.0729,-5.0432,-5.0248,-5.0593,-5.0874,-5.1021,-5.1256,-5.1237,-5.1263,-5.1535,-5.1358,-5.0564,-5.0253,-5.0392,-5.0214,-4.9946,-4.9946,-4.9933,-4.9906,-4.9893,-4.9893,-4.9925,-4.9912,-4.9912,-4.9893,-4.9893,-4.4401,-4.4547,-4.4604,-4.5649,-4.727,-4.8914,-4.9772,-5.0109,-4.9891,-5.0172,-5.0596,-5.071,-5.078,-5.0871,-5.0929,-5.0974,-5.0997,-5.1037,-5.1075,-5.1111,-5.1139,-5.1166,-5.1206,-5.1215,-5.1239,-5.1284,-5.1296,-5.1292,-5.1296,-5.13,-5.13,-5.13,-5.13,-5.13,-5.13,-5.13,-5.13,-5.13,-5.1304,-5.1308,-5.13,-5.13,-5.13,-5.1304,-5.1308,-5.1308,-5.1292,-5.13,-5.1294,-5.132,-5.1343,-5.1391,-5.1391,-5.1388,-5.1362,-5.134,-5.1333,-5.1333,-5.133,-5.1323,-5.1331,-5.1312,-5.1304,-5.1308,-5.1312,-5.13,-5.13,-5.13,-5.13,-5.13,-5.13,-5.13,-5.13,-5.13,-5.13,-5.13,-5.13,-5.13,-5.1288,-5.1239,-5.1234,-5.1167,-5.1172,-5.1157,-5.1116,-5.1109,-5.1396,-5.1619,-5.1632,-5.1359,-5.1241,-5.087,-5.0975,-5.1457,-5.1858,-5.2068,-5.217,-5.2304,-5.2508,-5.1879,-5.0951,-5.0825,-5.0888,-5.0469,-5.0031,-4.9999,-4.9986,-4.9978,-4.9965,-4.9965,-4.9952,-4.9939,-4.9925,-4.9925,-4.9893,-4.4524,-4.4748,-4.5475,-4.6139,-4.6697,-4.7753,-4.878,-4.9557,-4.9537,-4.9971,-5.0614,-5.0789,-5.0887,-5.0961,-5.0976,-5.103,-5.1075,-5.1111,-5.1169,-5.1201,-5.122,-5.1234,-5.128,-5.1256,-5.1269,-5.1296,-5.13,-5.13,-5.13,-5.13,-5.13,-5.13,-5.13,-5.1304,-5.1304,-5.1304,-5.1308,-5.1308,-5.1319,-5.1316,-5.1308,-5.13,-5.1303,-5.131,-5.1314,-5.1359,-5.1362,-5.1366,-5.1369,-5.1372,-5.1391,-5.1394,-5.1394,-5.1394,-5.1394,-5.1388,-5.1369,-5.1369,-5.1369,-5.1362,-5.1356,-5.1359,-5.1359,-5.1333,-5.1326,-5.1308,-5.13,-5.13,-5.13,-5.13,-5.13,-5.13,-5.13,-5.13,-5.1304,-5.1304,-5.13,-5.13,-5.13,-5.13,-5.13,-5.13,-5.13,-5.1296,-5.1269,-5.1548,-5.205,-5.2368,-5.258,-5.2523,-5.2777,-5.2444,-5.1748,-5.2039,-5.256,-5.2996,-5.3124,-5.3181,-5.3321,-5.2463,-5.1415,-5.1066,-5.0882,-5.0444,-5.0082,-5.033,-5.0387,-5.0108,-5.0095,-5.005,-5.0005,-4.9992,-4.9965,-4.9965,-4.9925,-4.4672,-4.4909,-4.5866,-4.6367,-4.6636,-4.7475,-4.8269,-4.8824,-4.936,-4.9845,-5.0317,-5.0716,-5.0995,-5.1037,-5.105,-5.1081,-5.1139,-5.1171,-5.122,-5.1267,-5.128,-5.1288,-5.13,-5.13,-5.1296,-5.13,-5.13,-5.13,-5.13,-5.13,-5.13,-5.1304,-5.1308,-5.1296,-5.1296,-5.1319,-5.1342,-5.1365,-5.134,-5.1336,-5.1346,-5.1336,-5.1343,-5.1366,-5.1369,-5.1394,-5.1397,-5.14,-5.1386,-5.1389,-5.1391,-5.1389,-5.1391,-5.1394,-5.1391,-5.1389,-5.1386,-5.1386,-5.1383,-5.14,-5.1397,-5.1397,-5.1394,-5.1366,-5.1366,-5.1349,-5.1316,-5.1312,-5.13,-5.13,-5.1304,-5.1308,-5.1304,-5.1304,-5.1319,-5.133,-5.1323,-5.13,-5.1312,-5.13,-5.13,-5.13,-5.13,-5.13,-5.1409,-5.2013,-5.2524,-5.3303,-5.3502,-5.3694,-5.3941,-5.3983,-5.3288,-5.3031,-5.3511,-5.392,-5.4187,-5.4218,-5.411,-5.3334,-5.2418,-5.1459,-5.0785,-5.0811,-5.0913,-5.1129,-5.1078,-5.0717,-5.0279,-5.0146,-5.0095,-5.0044,-5.0031,-5.0005,-4.9978,-4.4846,-4.5086,-4.5883,-4.6343,-4.658,-4.7382,-4.7865,-4.8174,-4.9139,-4.9705,-4.9977,-5.0701,-5.1011,-5.108,-5.1117,-5.1155,-5.1186,-5.1205,-5.1252,-5.1284,-5.1296,-5.13,-5.13,-5.13,-5.13,-5.13,-5.13,-5.1304,-5.1308,-5.1308,-5.1312,-5.1312,-5.1303,-5.1294,-5.132,-5.1366,-5.1388,-5.1388,-5.1375,-5.1378,-5.1397,-5.1397,-5.1397,-5.1397,-5.14,-5.14,-5.1386,-5.1391,-5.1399,-5.1403,-5.1386,-5.1386,-5.1384,-5.1386,-5.1384,-5.1401,-5.1399,-5.1399,-5.1399,-5.1391,-5.1386,-5.1403,-5.14,-5.1397,-5.14,-5.1372,-5.1356,-5.1326,-5.1316,-5.1312,-5.1316,-5.1319,-5.1316,-5.1319,-5.1356,-5.1369,-5.1343,-5.1314,-5.13,-5.1304,-5.13,-5.13,-5.1339,-5.1339,-5.1826,-5.243,-5.319,-5.3989,-5.458,-5.4791,-5.5008,-5.5093,-5.4804,-5.4703,-5.465,-5.4655,-5.4908,-5.486,-5.4642,-5.4084,-5.3403,-5.2367,-5.1763,-5.1775,-5.1896,-5.2005,-5.177,-5.1415,-5.0958,-5.0475,-5.0177,-5.012,-5.0095,-5.007,-5.0031,-4.5164,-4.5341,-4.5543,-4.5705,-4.5923,-4.6117,-4.6639,-4.7514,-4.8443,-4.9188,-4.992,-5.0708,-5.1166,-5.1171,-5.119,-5.122,-5.1252,-5.1261,-5.1265,-5.1296,-5.13,-5.13,-5.13,-5.1304,-5.13,-5.13,-5.1308,-5.1292,-5.1323,-5.1307,-5.1333,-5.1362,-5.1366,-5.1372,-5.1372,-5.1397,-5.14,-5.1403,-5.1389,-5.1394,-5.1394,-5.1394,-5.1394,-5.1399,-5.1384,-5.1386,-5.1388,-5.139,-5.139,-5.1392,-5.1392,-5.1392,-5.1392,-5.1392,-5.139,-5.139,-5.1388,-5.1388,-5.1386,-5.1384,-5.1401,-5.1401,-5.1401,-5.1399,-5.1396,-5.1394,-5.1383,-5.1372,-5.1366,-5.1362,-5.1366,-5.1366,-5.1366,-5.1366,-5.1378,-5.1378,-5.1372,-5.1323,-5.1294,-5.13,-5.1312,-5.1386,-5.1495,-5.1768,-5.2353,-5.3073,-5.4024,-5.4764,-5.5197,-5.5602,-5.5968,-5.5958,-5.5935,-5.5881,-5.5638,-5.5296,-5.536,-5.5332,-5.5116,-5.4451,-5.3797,-5.3168,-5.2766,-5.2678,-5.269,-5.2742,-5.2462,-5.2266,-5.1655,-5.1166,-5.0493,-5.0214,-5.017,-5.0145,-5.0095]},{"header":{"parameterUnit":"m.s-1","parameterCategory":1,"la1":31.0,"la2":29.5877,"lo1":-88.7671,"lo2":-86.6584,"dx":0.0162,"dy":0.0185,"nx":115,"ny":88,"refTime":"2023-01-30T06:00:00:Z","depth":0,"parameterNumber":3,"parameterNumberName":"V-component_of_WINDS"},"data":[0.0,0.0,0.0,0.0,0.0,0.0,0.0,0.0,0.0,0.0,0.0,0.0,0.0,0.0,0.0,0.0,0.0,0.0,0.0,0.0,0.0,0.0,0.0,0.0,0.0,0.0,0.0,0.0,0.0,0.0,0.0,0.0,0.0,0.0,0.0,0.0,0.0,0.0,0.0,0.0,0.0,0.0,0.0,0.0,0.0,0.0,0.0,0.0,0.0,0.0,0.0,0.0,0.0,0.0,0.0,0.0,0.0,0.0,0.0,0.0,0.0,0.0,0.0,0.0,0.0,0.0,0.0,0.0,0.0,0.0,0.0,0.0,0.0,0.0,0.0,0.0,0.0,0.0,0.0,0.0,0.0,0.0,0.0,0.0,0.0,0.0,0.0,0.0,0.0,0.0,0.0,0.0,0.0,0.0,0.0,0.0,0.0,0.0,0.0,0.0,0.0,0.0,0.0,0.0,0.0,0.0,0.0,0.0,0.0,0.0,0.0,0.0,0.0,0.0,0.0,0.0,0.0,0.0,0.0,0.0,0.0,0.0,0.0,0.0,0.0,0.0,0.0,0.0,0.0,0.0,0.0,0.0,0.0,0.0,0.0,0.0,0.0,0.0,0.0,0.0,0.0,0.0,0.0,0.0,0.0,0.0,0.0,0.0,0.0,0.0,0.0,0.0,0.0,0.0,0.0,0.0,0.0,0.0,0.0,0.0,0.0,0.0,0.0,0.0,0.0,0.0,0.0,0.0,0.0,0.0,0.0,0.0,0.0,0.0,0.0,0.0,0.0,0.0,0.0,0.0,0.0,0.0,0.0,0.0,0.0,0.0,0.0,0.0,0.0,0.0,0.0,0.0,0.0,0.0,0.0,0.0,0.0,0.0,0.0,0.0,0.0,0.0,0.0,0.0,0.0,0.0,0.0,0.0,0.0,0.0,0.0,0.0,0.0,0.0,0.0,0.0,0.0,0.0,0.0,0.0,0.0,0.0,0.0,0.0,0.0,0.0,0.0,0.0,0.0,0.0,0.0,0.0,0.0,0.0,0.0,0.0,0.0,0.0,0.0,0.0,0.0,0.0,0.0,0.0,0.0,0.0,0.0,0.0,0.0,0.0,0.0,0.0,0.0,0.0,0.0,0.0,0.0,0.0,0.0,0.0,0.0,0.0,0.0,0.0,0.0,0.0,0.0,0.0,0.0,0.0,0.0,0.0,0.0,0.0,0.0,0.0,0.0,0.0,0.0,0.0,0.0,0.0,0.0,0.0,0.0,0.0,0.0,0.0,0.0,0.0,0.0,0.0,0.0,0.0,0.0,0.0,0.0,0.0,0.0,0.0,0.0,0.0,0.0,0.0,0.0,0.0,0.0,0.0,0.0,0.0,0.0,0.0,0.0,0.0,0.0,0.0,0.0,0.0,0.0,0.0,0.0,0.0,0.0,0.0,0.0,0.0,0.0,0.0,0.0,0.0,0.0,0.0,0.0,0.0,0.0,0.0,0.0,0.0,0.0,0.0,0.0,0.0,0.0,0.0,0.0,0.0,0.0,0.0,0.0,0.0,0.0,0.0,0.0,0.0,0.0,0.0,0.0,0.0,0.0,0.0,0.0,0.0,0.0,0.0,0.0,0.0,0.0,0.0,0.0,0.0,0.0,0.0,0.0,0.0,0.0,0.0,0.0,0.0,0.0,0.0,0.0,0.0,0.0,0.0,0.0,0.0,0.0,0.0,0.0,0.0,0.0,0.0,0.0,0.0,0.0,0.0,0.0,0.0,0.0,0.0,0.0,0.0,0.0,0.0,0.0,0.0,0.0,0.0,0.0,0.0,0.0,0.0,0.0,0.0,0.0,0.0,0.0,0.0,0.0,0.0,0.0,0.0,0.0,0.0,0.0,0.0,0.0,0.0,0.0,0.0,0.0,0.0,0.0,0.0,0.0,0.0,0.0,0.0,0.0,0.0,0.0,0.0,0.0,0.0,0.0,0.0,0.0,0.0,0.0,0.0,0.0,0.0,0.0,0.0,0.0,0.0,0.0,0.0,0.0,0.0,0.0,0.0,0.0,0.0,0.0,0.0,0.0,0.0,0.0,0.0,0.0,0.0,0.0,0.0,0.0,0.0,0.0,0.0,0.0,0.0,0.0,0.0,0.0,0.0,0.0,0.0,0.0,0.0,0.0,0.0,0.0,0.0,0.0,0.0,0.0,0.0,0.0,0.0,0.0,0.0,0.0,0.0,0.0,0.0,0.0,0.0,0.0,0.0,0.0,0.0,0.0,0.0,0.0,0.0,0.0,0.0,0.0,0.0,0.0,0.0,0.0,0.0,0.0,0.0,0.0,0.0,0.0,0.0,0.0,0.0,0.0,0.0,0.0,0.0,0.0,0.0,0.0,0.0,0.0,0.0,0.0,0.0,0.0,0.0,0.0,0.0,0.0,0.0,0.0,0.0,0.0,0.0,0.0,0.0,0.0,0.0,0.0,0.0,0.0,0.0,0.0,0.0,0.0,0.0,0.0,0.0,0.0,0.0,0.0,0.0,0.0,0.0,0.0,0.0,0.0,0.0,0.0,0.0,0.0,0.0,0.0,0.0,0.0,0.0,0.0,0.0,0.0,0.0,0.0,0.0,0.0,0.0,0.0,0.0,0.0,0.0,0.0,0.0,0.0,0.0,0.0,0.0,0.0,0.0,0.0,0.0,0.0,0.0,0.0,0.0,0.0,0.0,0.0,0.0,0.0,0.0,0.0,0.0,0.0,0.0,0.0,0.0,0.0,0.0,0.0,0.0,0.0,0.0,0.0,0.0,0.0,0.0,0.0,0.0,0.0,0.0,0.0,0.0,0.0,0.0,0.0,0.0,0.0,0.0,0.0,0.0,0.0,0.0,0.0,0.0,0.0,0.0,0.0,0.0,0.0,0.0,0.0,0.0,0.0,0.0,0.0,0.0,0.0,0.0,0.0,0.0,0.0,0.0,0.0,0.0,0.0,0.0,0.0,0.0,0.0,0.0,0.0,0.0,0.0,0.0,0.0,0.0,0.0,0.0,0.0,0.0,0.0,0.0,0.0,0.0,0.0,0.0,0.0,0.0,0.0,0.0,0.0,0.0,0.0,0.0,0.0,0.0,0.0,0.0,0.0,0.0,0.0,0.0,0.0,0.0,0.0,0.0,0.0,0.0,0.0,0.0,0.0,0.0,0.0,0.0,0.0,0.0,0.0,0.0,0.0,0.0,0.0,0.0,0.0,0.0,0.0,0.0,0.0,0.0,0.0,0.0,0.0,0.0,0.0,0.0,0.0,0.0,0.0,0.0,0.0,0.0,0.0,0.0,0.0,0.0,0.0,0.0,0.0,0.0,0.0,0.0,0.0,0.0,0.0,0.0,0.0,0.0,0.0,0.0,0.0,0.0,0.0,0.0,0.0,0.0,0.0,0.0,0.0,0.0,0.0,0.0,0.0,0.0,0.0,0.0,0.0,0.0,0.0,0.0,0.0,0.0,0.0,0.0,0.0,0.0,0.0,0.0,0.0,0.0,0.0,0.0,0.0,0.0,0.0,0.0,0.0,0.0,0.0,0.0,0.0,0.0,0.0,0.0,0.0,0.0,0.0,0.0,0.0,0.0,0.0,0.0,0.0,0.0,0.0,0.0,0.0,0.0,0.0,0.0,0.0,0.0,0.0,0.0,0.0,0.0,0.0,0.0,0.0,0.0,0.0,0.0,0.0,0.0,0.0,0.0,0.0,0.0,0.0,0.0,0.0,0.0,0.0,0.0,0.0,0.0,0.0,0.0,0.0,0.0,0.0,0.0,0.0,0.0,0.0,0.0,0.0,0.0,0.0,0.0,0.0,0.0,0.0,0.0,0.0,0.0,0.0,0.0,0.0,0.0,0.0,0.0,0.0,0.0,0.0,0.0,0.0,0.0,0.0,0.0,0.0,0.0,0.0,0.0,0.0,0.0,0.0,0.0,0.0,0.0,0.0,0.0,0.0,0.0,0.0,0.0,0.0,0.0,0.0,0.0,0.0,0.0,0.0,0.0,0.0,0.0,0.0,0.0,0.0,0.0,0.0,0.0,0.0,0.0,0.0,0.0,0.0,0.0,0.0,0.0,0.0,0.0,0.0,0.0,0.0,0.0,0.0,0.0,0.0,0.0,0.0,0.0,0.0,0.0,0.0,0.0,0.0,0.0,0.0,0.0,0.0,0.0,0.0,0.0,0.0,0.0,0.0,0.0,0.0,0.0,0.0,0.0,0.0,0.0,0.0,0.0,0.0,0.0,0.0,0.0,0.0,0.0,1.0265,0.0,0.0,0.0,0.0,0.0,0.0,0.0,0.0,0.0,0.0,0.0,0.0,0.0,0.0,0.0,0.0,0.0,0.0,0.0,0.0,0.0,0.0,0.0,0.0,0.0,0.0,0.0,0.0,0.0,0.0,0.0,0.0,0.0,0.0,0.0,0.0,0.0,0.0,0.0,0.0,0.0,0.0,0.0,0.0,0.0,0.0,0.0,0.0,0.0,0.0,0.0,0.0,0.0,0.0,0.0,0.0,0.0,0.0,0.0,0.0,0.0,0.0,0.0,0.0,0.0,0.0,0.0,0.0,0.0,0.0,0.0,0.0,0.0,0.0,0.0,0.0,0.0,0.0,0.0,0.0,0.0,0.0,0.0,0.0,0.0,0.0,0.0,0.0,0.0,0.0,0.0,0.0,0.0,0.0,0.0,0.0,0.0,0.0,0.0,0.0,0.0,0.0,0.0,0.0,0.0,0.0,0.0,0.0,0.0,0.0,0.9994,0.9994,0.9994,1.0094,1.0308,0.0,0.0,0.0,0.0,0.0,0.0,0.0,0.0,0.0,0.0,0.0,0.0,0.0,0.0,0.0,0.0,0.0,0.0,0.0,0.0,0.0,0.0,0.0,0.0,0.0,0.0,0.0,0.0,0.0,0.0,0.0,0.0,0.0,0.0,0.0,0.0,0.0,0.0,0.0,0.0,0.0,0.0,0.0,0.0,0.0,0.0,0.0,0.0,0.0,0.0,0.0,0.0,0.0,0.0,0.0,0.0,0.0,0.0,0.0,0.0,0.0,0.0,0.0,0.0,0.0,0.0,0.0,0.0,0.0,0.0,0.0,0.0,0.0,0.0,0.0,0.0,0.0,0.0,0.0,0.0,0.0,0.0,0.0,0.0,0.0,0.0,0.0,0.0,0.0,0.0,0.0,0.0,0.0,0.0,0.0,0.0,0.0,0.0,0.0,0.0,0.0,0.0,0.0,0.0,0.0,0.0,0.0,0.0,0.0,0.0,0.0,0.0,0.9994,1.0118,1.0384,0.0,0.0,0.0,0.0,0.0,0.0,0.0,0.0,0.0,0.0,0.0,0.0,0.0,0.0,0.0,0.0,0.0,0.0,0.0,0.0,0.0,0.0,0.0,0.0,0.0,0.0,0.0,0.0,0.0,0.0,0.0,0.0,0.0,0.0,0.0,0.0,0.0,0.0,0.0,0.0,0.0,0.0,0.0,0.0,0.0,0.0,0.0,0.0,0.0,0.0,0.0,0.0,0.0,0.0,0.0,0.0,0.0,0.0,0.0,0.0,0.0,0.0,0.0,0.0,0.0,0.0,0.0,0.0,0.0,0.0,0.0,0.0,0.0,0.0,0.0,0.0,0.0,0.0,0.0,0.0,0.0,0.0,0.0,0.0,0.0,0.0,0.0,0.0,0.0,0.0,0.0,0.0,0.0,0.0,0.0,0.0,0.0,0.0,0.0,0.0,0.0,0.0,0.0,0.0,0.0,0.0,0.0,0.0,0.0,0.0,0.9994,0.9994,0.9994,0.0,1.0578,0.0,0.0,0.0,0.0,0.0,0.0,0.0,0.0,0.0,0.0,0.0,0.0,0.0,0.0,0.0,0.0,0.0,0.0,0.0,0.0,0.0,0.0,0.0,0.0,0.0,0.0,0.0,0.0,0.0,0.0,0.0,0.0,0.0,0.0,0.0,0.0,0.0,0.0,0.0,0.0,0.0,0.0,0.0,0.0,0.0,0.0,0.0,0.0,0.0,0.0,0.0,0.0,0.0,0.0,0.0,0.0,0.0,0.0,0.0,0.0,0.0,0.0,0.0,0.0,0.0,0.0,0.0,0.0,0.0,0.0,0.0,0.0,0.0,0.0,0.0,0.0,0.0,0.0,0.0,0.0,0.0,0.0,0.0,0.0,0.0,0.0,0.0,0.0,0.0,0.0,0.0,0.0,0.0,0.0,0.0,0.0,0.0,0.0,0.0,0.0,0.0,0.0,0.0,0.0,0.0,0.0,0.0,0.0,0.0,0.0,1.0332,1.0337,1.0509,1.0591,0.0,0.0,0.0,0.0,0.0,0.0,0.0,0.0,0.0,0.0,0.0,0.0,0.0,0.0,0.0,0.0,0.0,0.0,0.0,0.0,0.0,0.0,0.0,0.0,0.0,0.0,0.0,0.0,0.0,0.0,0.0,0.0,0.0,0.0,0.0,0.0,0.0,0.0,0.0,0.0,0.0,0.0,0.0,0.0,0.0,0.0,0.0,0.0,0.0,0.0,0.0,0.0,0.0,0.0,0.0,0.0,0.0,0.0,0.0,0.0,0.0,0.0,0.0,0.0,0.0,0.0,0.0,0.0,0.0,0.0,0.0,0.0,0.0,0.0,0.0,0.0,0.0,0.0,0.0,0.0,0.0,0.0,0.0,0.0,0.0,0.0,0.0,0.0,0.0,0.0,0.0,0.0,0.0,0.0,0.0,0.0,0.0,0.0,0.0,0.0,0.0,0.0,0.0,0.0,0.0,0.0,0.0,0.0,0.0,0.0,1.0463,1.0593,1.0603,1.0731,1.07,1.0531,0.0,0.0,0.0,0.0,0.0,0.0,0.0,0.0,0.0,0.0,0.0,0.0,0.0,0.0,0.0,0.0,0.0,0.0,0.0,0.0,0.0,0.0,0.0,0.0,0.0,0.0,0.0,0.0,0.0,0.0,0.0,0.0,0.0,0.0,0.0,0.0,0.0,0.0,0.0,0.0,0.0,0.0,0.0,0.0,0.0,0.0,0.0,0.0,0.0,0.0,0.0,0.0,0.0,0.0,0.0,0.0,0.0,0.0,0.0,0.0,0.0,0.0,0.0,0.0,0.0,0.0,0.0,0.0,0.0,0.0,0.0,0.0,0.0,0.0,0.0,0.0,0.0,0.0,0.0,0.0,0.0,0.0,0.0,0.0,0.0,0.0,0.0,0.0,0.0,0.0,0.0,0.0,0.0,0.0,0.0,0.0,0.0,0.0,0.0,0.0,0.0,0.0,0.0,0.0,0.0,0.0,0.0,0.0,1.0549,1.0593,1.0593,1.0598,1.042,1.0322,0.0,0.0,0.0,0.0,0.0,0.0,0.0,0.0,0.0,0.0,0.0,0.0,0.0,0.0,0.0,0.0,0.0,0.0,0.0,0.0,0.0,0.0,0.0,0.0,0.0,0.0,0.0,0.0,0.0,0.0,0.0,0.0,0.0,0.0,0.0,0.0,0.0,0.0,0.0,0.0,0.0,0.0,0.0,0.0,0.0,0.0,0.0,0.0,0.0,0.0,0.0,0.0,0.0,0.0,0.0,0.0,0.0,0.0,0.0,0.0,0.0,0.0,0.0,0.0,0.0,0.0,0.0,0.0,0.0,0.0,0.0,0.0,0.0,0.0,0.0,0.0,0.0,0.0,0.0,0.0,0.0,0.0,0.0,0.0,0.0,0.0,0.0,0.0,0.0,0.0,0.0,0.0,0.0,0.0,0.0,0.0,0.0,0.0,0.0,0.0,0.0,0.0,0.0,0.0,0.0,0.0,0.0,0.0,0.0,1.0593,1.089,1.0895,1.0593,1.0547,1.044,0.0,0.0,0.0,0.0,0.0,0.0,0.0,0.0,0.0,0.0,0.0,0.0,0.0,0.0,0.0,0.0,0.0,0.0,0.0,0.0,0.0,0.0,0.0,0.0,0.0,0.0,0.0,0.0,0.0,0.0,0.0,0.0,0.0,0.0,0.0,0.0,0.0,0.0,0.0,0.0,0.0,0.0,0.0,0.0,0.0,0.0,0.0,0.0,0.0,0.0,0.0,0.0,0.0,0.0,0.0,0.0,0.0,0.0,0.0,0.0,0.0,0.0,0.0,0.0,0.0,0.0,0.0,0.0,0.0,0.0,0.0,0.0,0.0,0.0,0.0,0.0,0.0,0.0,0.0,0.0,0.0,0.0,0.0,0.0,0.0,0.0,0.0,0.0,0.0,0.0,0.0,0.0,0.0,0.0,0.0,0.0,0.0,0.0,0.0,0.0,0.0,0.0,0.0,0.0,0.0,0.0,0.0,0.0,0.0,1.0593,0.0,1.0939,1.0636,1.0467,1.0319,0.0,0.0,0.0,0.0,0.0,0.0,0.0,0.0,0.0,0.0,0.0,0.0,0.0,0.0,0.0,0.0,0.0,0.0,0.0,0.0,0.0,0.0,0.0,0.0,0.0,0.0,0.0,0.0,0.0,0.0,0.0,0.0,0.0,0.0,0.0,0.0,0.0,0.0,0.0,0.0,0.0,0.0,0.0,0.0,0.0,0.0,0.0,0.0,0.0,0.0,0.0,0.0,0.0,0.0,0.0,0.0,0.0,0.0,0.0,0.0,0.0,0.0,0.0,0.0,0.0,0.0,0.0,0.0,0.0,0.0,0.0,0.0,0.0,0.0,0.0,0.0,0.0,0.0,0.0,0.0,0.0,0.0,0.0,0.0,0.0,0.0,0.0,0.0,0.0,0.0,0.0,0.0,0.0,0.0,0.0,0.0,0.0,0.0,0.0,0.0,0.0,0.0,0.0,0.0,0.0,0.0,0.0,0.0,1.0212,1.0593,1.0636,1.0636,1.0593,1.0212,0.9994,0.0,0.0,0.0,0.0,0.0,0.0,0.0,0.0,0.0,0.0,0.0,0.0,0.0,0.0,0.0,0.0,0.0,0.0,0.0,0.0,0.0,0.0,0.0,0.0,0.0,0.0,0.0,0.0,0.0,0.0,0.0,0.0,0.0,0.0,0.0,0.0,0.0,0.0,0.0,0.0,0.0,0.0,0.0,0.0,0.0,0.0,0.0,0.0,0.0,0.0,0.0,0.0,0.0,0.0,0.0,0.0,0.0,0.0,0.0,0.0,0.0,0.0,0.0,0.0,0.0,0.0,0.0,0.0,0.0,0.0,0.0,0.0,0.0,0.0,0.0,0.0,0.0,0.0,0.0,0.0,0.0,0.0,0.0,0.0,0.0,0.0,0.0,0.0,0.0,0.0,0.0,0.0,0.0,0.0,0.0,0.0,0.0,0.0,0.0,0.0,0.0,0.0,0.0,0.0,0.0,0.0,0.0,0.0,0.0,1.1068,1.0761,1.0593,1.0593,1.0207,0.9994,0.0,0.0,0.0,0.0,0.0,0.0,0.0,0.0,0.0,0.0,0.0,0.0,0.0,0.0,0.0,0.0,0.0,0.0,0.0,0.0,0.0,0.0,0.0,0.0,0.0,0.0,0.0,0.0,0.0,0.0,0.0,0.0,0.0,0.0,0.0,0.0,0.0,0.0,0.0,0.0,0.0,0.0,0.0,0.0,0.0,0.0,0.0,0.0,0.0,0.0,0.0,0.0,0.0,0.0,0.0,0.0,0.0,0.0,0.0,0.0,0.0,0.0,0.0,0.0,0.0,0.0,0.0,0.0,0.0,0.0,0.0,0.0,0.0,0.0,0.0,0.0,0.0,0.0,0.0,0.0,0.0,0.0,0.0,0.0,0.0,0.0,0.0,0.0,0.0,0.0,0.0,0.0,0.0,0.0,0.0,0.0,0.0,0.0,0.0,0.0,0.0,0.0,0.0,0.0,0.0,0.0,0.0,0.0,0.0,1.2266,1.1192,1.0593,1.0593,1.0337,1.0168,0.9994,0.0,0.0,0.0,0.0,0.0,0.0,0.0,0.0,0.0,0.0,0.0,0.0,0.0,0.0,0.0,0.0,0.0,0.0,0.0,0.0,0.0,0.0,0.0,0.0,0.0,0.0,0.0,0.0,0.0,0.0,0.0,0.0,0.0,0.0,0.0,0.0,0.0,0.0,0.0,0.0,0.0,0.0,0.0,0.0,0.0,0.0,0.0,0.0,0.0,0.0,0.0,0.0,0.0,0.0,0.0,0.0,0.0,0.0,0.0,0.0,0.0,0.0,0.0,0.0,0.0,0.0,0.0,0.0,0.0,0.0,0.0,0.0,0.0,0.0,0.0,0.0,0.0,0.0,0.0,0.0,0.0,0.0,0.0,0.0,0.0,0.0,0.0,0.0,0.0,0.0,0.0,0.0,0.0,0.0,0.0,0.0,0.0,0.0,0.0,0.0,0.0,0.0,0.0,0.0,0.0,0.0,0.0,0.0,1.4055,1.1875,1.0679,1.0679,1.0593,1.0376,0.0,0.0,0.0,0.0,0.0,0.0,0.0,0.0,0.0,0.0,0.0,0.0,0.0,0.0,0.0,0.0,0.0,0.0,0.0,0.0,0.0,0.0,0.0,0.0,0.0,0.0,0.0,0.0,0.0,0.0,0.0,0.0,0.0,0.0,0.0,0.0,0.0,0.0,0.0,0.0,0.0,0.0,0.0,0.0,0.0,0.0,0.0,0.0,0.0,0.0,0.0,0.0,0.0,0.0,0.0,0.0,0.0,0.0,0.0,0.0,0.0,0.0,0.0,0.0,0.0,0.0,0.0,0.0,0.0,0.0,0.0,0.0,0.0,0.0,0.0,0.0,0.0,0.0,0.0,0.0,0.0,0.0,0.0,0.0,0.0,0.0,0.0,0.0,0.0,0.0,0.0,0.0,0.0,0.0,0.0,0.0,0.0,0.0,0.0,0.0,0.0,0.0,0.0,0.0,0.0,0.0,0.0,0.0,0.0,1.3948,1.2485,1.1628,1.1628,1.0679,1.0081,0.0,0.0,0.0,0.0,0.0,0.0,0.0,0.0,0.0,0.0,0.0,0.0,0.0,0.0,0.0,0.0,0.0,0.0,0.0,0.0,0.0,0.0,0.0,0.0,0.0,0.0,0.0,0.0,0.0,0.0,0.0,0.0,0.0,0.0,0.0,0.0,0.0,0.0,0.0,0.0,0.0,0.0,0.0,0.0,0.0,0.0,0.0,0.0,0.0,0.0,0.0,0.0,0.0,0.0,0.0,0.0,0.0,0.0,0.0,0.0,0.0,0.0,0.0,0.0,0.0,0.0,0.0,0.0,0.0,0.0,0.0,0.0,0.0,0.0,0.0,0.0,0.0,0.0,0.0,0.0,0.0,0.0,0.0,0.0,0.0,0.0,0.0,0.0,0.0,0.0,0.0,0.0,0.0,0.0,0.0,0.0,0.0,0.0,0.0,0.0,0.0,0.0,0.0,0.0,0.0,0.0,0.0,0.0,1.3088,1.4587,1.3118,1.2479,1.2869,1.1154,1.0164,0.0,0.0,0.0,0.0,0.0,0.0,0.0,0.0,0.0,0.0,0.0,0.0,0.0,0.0,0.0,0.0,0.0,0.0,0.0,0.0,0.0,0.0,0.0,0.0,0.0,0.0,0.0,0.0,0.0,0.0,0.0,0.0,0.0,0.0,0.0,0.0,0.0,0.0,0.0,0.0,0.0,0.0,0.0,0.0,0.0,0.0,0.0,0.0,0.0,0.0,0.0,0.0,0.0,0.0,0.0,0.0,0.0,0.0,0.0,0.0,0.0,0.0,0.0,0.0,0.0,0.0,0.0,0.0,0.0,0.0,0.0,0.0,0.0,0.0,0.0,0.0,0.0,0.0,0.0,0.0,0.0,0.0,0.0,0.0,0.0,0.0,0.0,0.0,0.0,0.0,0.0,0.0,0.0,0.0,0.0,0.0,0.0,0.0,0.0,0.0,0.0,0.0,0.0,0.0,0.0,0.0,0.0,0.0,1.3633,1.534,1.3747,1.3275,1.4006,1.1955,1.0593,0.0,0.0,0.0,0.0,0.0,0.0,0.0,0.0,0.0,0.0,0.0,0.0,0.0,0.0,0.0,0.0,0.0,0.0,0.0,0.0,0.0,0.0,0.0,0.0,0.0,0.0,0.0,0.0,0.0,0.0,0.0,0.0,0.0,0.0,0.0,0.0,0.0,0.0,0.0,0.0,0.0,0.0,0.0,0.0,0.0,0.0,0.0,0.0,0.0,0.0,0.0,0.0,0.0,0.0,0.0,0.0,0.0,0.0,0.0,0.0,0.0,0.0,0.0,0.0,0.0,0.0,0.0,0.0,0.0,0.0,0.0,0.0,0.0,0.0,0.0,0.0,0.0,0.0,0.0,0.0,0.0,0.0,0.0,0.0,0.0,0.0,0.0,0.0,0.0,0.0,0.0,0.0,0.0,0.0,0.0,0.0,0.0,0.0,0.0,0.0,0.0,0.0,0.0,0.0,0.0,0.0,0.0,0.0,1.4097,1.5347,1.4524,1.4048,1.4097,1.2893,1.1869,0.0,0.0,0.0,0.0,0.0,0.0,0.0,0.0,0.0,0.0,0.0,0.0,0.0,0.0,0.0,0.0,0.0,0.0,0.0,0.0,0.0,0.0,0.0,0.0,0.0,0.0,0.0,0.0,0.0,0.0,0.0,0.0,0.0,0.0,0.0,0.0,0.0,0.0,0.0,0.0,0.0,0.0,0.0,0.0,0.0,0.0,0.0,0.0,0.9641,0.0,0.0,0.0,0.0,0.0,0.0,0.0,0.0,0.0,0.0,0.0,0.0,0.0,0.0,0.0,0.0,0.0,0.0,0.0,0.0,0.0,0.0,0.0,0.0,0.0,0.0,0.0,0.0,0.0,0.0,0.0,0.0,0.0,0.0,0.0,0.0,0.0,0.0,0.0,0.0,0.0,0.0,0.0,0.0,0.0,0.0,0.0,0.0,0.0,0.0,0.0,0.0,0.0,0.0,0.0,0.0,0.0,0.0,0.0,1.4817,1.5673,1.5242,1.4977,1.4852,1.43,1.3154,0.0,0.0,0.0,0.0,0.0,0.0,0.0,0.0,0.0,0.0,0.0,0.0,0.0,0.0,0.0,0.0,0.0,0.0,0.0,0.0,0.0,0.0,0.0,0.0,0.0,0.0,0.0,0.0,0.0,0.0,0.0,0.0,0.0,0.0,0.0,0.0,0.0,0.0,0.0,0.0,0.0,0.0,0.0,0.0,0.0,0.0,0.0,0.0,0.0,0.0,0.0,0.0,0.0,0.0,0.0,0.0,0.0,0.0,0.0,0.0,0.0,0.0,0.0,0.0,0.0,0.0,0.0,0.0,0.0,0.0,0.0,0.0,0.0,0.0,0.0,0.0,0.0,0.0,0.0,0.0,0.0,0.0,0.0,0.0,0.0,0.0,0.0,0.0,0.0,0.0,0.0,0.0,0.0,0.0,0.0,0.0,0.0,0.0,0.0,0.0,0.0,0.0,0.0,0.0,0.0,0.0,0.0,1.4699,1.5298,1.5963,1.5824,1.5733,1.5658,1.5506,1.4188,1.1617,0.0,0.0,0.0,0.0,0.0,0.0,0.0,0.0,0.0,0.0,0.0,0.0,0.0,0.0,0.0,0.0,0.0,0.0,0.0,0.0,0.0,0.0,0.0,0.0,0.0,0.0,0.0,0.0,0.0,0.0,0.0,0.0,0.0,0.0,0.0,0.0,0.0,0.0,0.8078,0.8752,0.0,0.0,0.0,0.0,0.0,0.0,0.0,0.0,1.2143,0.0,0.0,0.0,0.0,0.0,0.0,0.0,0.0,0.0,0.0,0.0,0.0,0.0,0.0,0.0,0.0,0.0,0.0,0.0,0.0,0.0,0.0,0.0,0.0,0.0,0.0,0.0,0.0,0.0,0.0,0.0,0.0,0.0,0.0,0.0,0.0,0.0,0.0,0.0,0.0,0.0,0.0,0.0,0.0,0.0,0.0,0.0,0.0,0.0,0.0,0.0,0.0,0.0,0.0,0.0,0.0,1.3542,1.3964,1.4601,1.5472,1.588,1.5839,1.5465,1.5423,1.4482,1.2589,0.0,0.0,0.0,0.0,0.0,0.0,0.0,0.0,0.0,0.0,0.0,0.0,0.0,0.0,0.0,0.0,0.0,0.0,0.0,0.0,0.0,0.0,0.0,0.0,0.0,0.0,0.0,0.0,0.0,0.0,0.0,0.0,0.0,0.0,0.0,0.0,0.0,0.0,0.0,0.9209,0.9535,0.0,0.0,0.0,0.0,0.0,0.0,0.0,0.0,1.3173,0.0,0.0,0.0,0.0,0.0,0.0,0.0,0.0,0.0,0.0,0.0,0.0,0.0,0.0,0.0,0.0,0.0,0.0,0.0,0.0,0.0,0.0,0.0,0.0,0.0,0.0,0.0,0.0,0.0,0.0,0.0,0.0,0.0,0.0,0.0,0.0,0.0,0.0,0.0,0.0,0.0,0.0,0.0,0.0,0.0,0.0,0.0,0.0,0.0,0.0,0.0,0.0,0.0,0.0,0.0,1.3922,1.4685,1.5325,1.5763,1.6004,1.5922,1.5582,1.5465,1.4566,0.0,0.0,0.0,0.0,0.0,0.0,0.0,0.0,0.0,0.0,0.0,0.0,0.0,0.0,0.0,0.0,0.0,0.0,0.0,0.0,0.0,0.0,0.0,0.0,0.0,0.0,0.0,0.0,0.0,0.0,0.0,0.0,0.0,0.0,0.0,0.0,0.0,0.0,0.0,0.0,0.9882,1.0167,1.1332,0.0,0.0,0.0,0.0,0.0,0.0,1.3434,1.3561,0.0,0.0,0.0,0.0,0.0,0.0,0.0,0.0,0.0,0.0,0.0,0.0,0.0,0.0,0.0,0.0,0.0,0.0,0.0,0.0,0.0,0.0,0.0,0.0,0.0,0.0,0.0,0.0,0.0,0.0,0.0,0.0,0.0,0.0,0.0,0.0,0.0,0.0,0.0,0.0,0.0,0.0,0.0,0.0,0.0,0.0,0.0,0.0,0.0,0.0,0.0,0.0,0.0,0.0,0.0,1.4356,1.5409,1.5955,1.5963,1.6004,1.5914,1.5658,1.5465,1.4559,0.0,0.0,0.0,0.0,0.0,0.0,0.0,0.0,0.0,0.0,0.0,0.0,0.0,0.0,0.0,0.0,0.0,0.0,0.0,0.0,0.0,0.0,0.0,0.0,0.0,0.0,0.0,0.0,0.0,0.0,0.0,0.0,0.0,0.0,0.0,0.0,0.0,0.0,0.0,0.0,0.0,1.081,1.1938,1.2186,0.0,0.0,0.0,0.0,1.3483,1.3568,0.0,0.0,0.0,0.0,0.0,0.0,0.0,0.0,0.0,0.0,0.0,0.0,0.0,0.0,0.0,0.0,0.0,0.0,0.0,0.0,0.0,0.0,0.0,0.0,0.0,0.0,0.0,0.0,0.0,0.0,0.0,0.0,0.0,0.0,0.0,0.0,0.0,0.0,0.0,0.0,0.0,0.0,0.0,0.0,0.0,0.0,0.0,0.0,0.0,0.0,0.0,0.0,0.0,0.0,0.0,0.0,1.4173,1.5033,1.545,1.5506,1.5665,1.5616,1.5423,1.5431,1.4566,0.0,0.0,0.0,0.0,0.0,0.0,0.0,0.0,0.0,0.0,0.0,0.0,0.0,0.0,0.0,0.0,0.0,0.0,0.0,0.0,0.0,0.0,0.0,0.0,0.0,0.0,0.0,0.0,0.0,0.0,0.0,0.0,0.0,0.0,0.0,0.0,0.0,0.0,0.0,0.0,0.0,1.108,1.3173,1.3307,1.3264,0.0,0.0,0.0,1.3179,1.3185,0.0,0.0,0.0,0.0,0.0,0.0,0.0,0.0,0.0,0.0,0.0,0.0,0.0,0.0,0.0,0.0,0.0,0.0,0.0,0.0,0.0,0.0,0.0,0.0,0.0,0.0,0.0,0.0,0.0,0.0,0.0,0.0,0.0,0.0,0.0,0.0,0.0,0.0,0.0,0.0,0.0,0.0,0.0,0.0,0.0,0.0,0.0,0.0,0.0,0.0,0.0,0.0,0.0,0.0,0.0,1.399,1.413,1.5075,1.5492,1.5431,1.5575,1.5616,1.5389,1.5389,1.4566,0.0,0.0,0.0,0.0,0.0,0.0,0.0,0.0,0.0,0.0,0.0,0.0,0.0,0.0,0.0,0.0,0.0,0.0,0.0,0.0,0.0,0.0,0.0,0.0,0.0,0.0,0.0,0.0,0.0,0.0,0.0,0.0,0.0,0.0,0.0,0.0,0.0,0.0,0.0,0.0,0.0,0.0,1.296,1.3185,0.0,0.0,0.0,1.3327,1.3478,0.0,0.0,0.0,0.0,0.0,0.0,0.0,0.0,0.0,0.0,0.0,0.0,0.0,0.0,0.0,0.0,0.0,0.0,0.0,0.0,0.0,0.0,0.0,0.0,0.0,0.0,0.0,0.0,0.0,0.0,0.0,0.0,0.0,0.0,0.0,0.0,0.0,0.0,0.0,0.0,0.0,0.0,0.0,0.0,0.0,0.0,0.0,0.0,0.0,0.0,0.0,0.0,0.0,0.0,0.0,0.0,0.0,1.4124,1.5151,1.5616,1.5423,1.5533,1.5533,1.5431,1.5389,0.0,0.0,0.0,0.0,0.0,0.0,0.0,0.0,0.0,0.0,0.0,0.0,0.0,0.0,0.0,0.0,0.0,0.0,0.0,0.0,0.0,0.0,0.0,0.0,0.0,0.0,0.0,1.1893,0.0,0.0,0.0,0.0,0.0,0.0,0.0,0.0,0.0,0.0,0.0,0.0,0.0,0.0,1.2186,1.2753,1.2966,1.3083,0.0,0.0,1.3336,1.3655,1.3604,1.3634,0.0,0.0,0.0,0.0,0.0,0.0,0.0,0.0,0.0,0.0,0.0,0.0,0.0,0.0,0.0,0.0,0.0,0.0,0.0,0.0,0.0,0.0,0.0,0.0,0.0,0.0,0.0,0.0,0.0,0.0,0.0,0.0,0.0,0.0,0.0,0.0,0.0,0.0,0.0,0.0,0.0,0.0,0.0,0.0,0.0,0.0,0.0,0.0,0.0,0.0,0.0,0.0,0.0,0.0,0.0,1.4139,1.5144,1.5575,1.5431,1.5431,1.5431,1.5389,1.5389,1.4957,0.0,0.0,0.0,0.0,0.0,0.0,0.0,0.0,0.0,0.0,0.0,0.0,0.0,0.0,0.0,0.0,0.0,0.0,0.0,0.0,0.0,0.0,0.0,0.0,0.0,0.0,0.0,0.0,0.0,0.0,0.0,0.0,0.0,0.0,0.0,0.0,0.0,0.0,0.0,0.0,0.0,1.2277,1.2966,1.3094,1.3108,0.0,0.0,1.3479,1.3531,1.3535,1.3586,1.3888,0.0,0.0,0.0,0.0,0.0,0.0,0.0,0.0,0.0,0.0,0.0,0.0,0.0,0.0,0.0,0.0,0.0,0.0,0.0,0.0,0.0,0.0,0.0,0.0,0.0,0.0,0.0,0.0,0.0,0.0,0.0,0.0,0.0,0.0,0.0,0.0,0.0,0.0,0.0,0.0,0.0,0.0,0.0,0.0,0.0,0.0,0.0,0.0,0.0,0.0,0.0,0.0,0.0,1.3886,1.4117,1.5041,1.5465,1.5431,1.5389,1.5389,1.5389,1.5389,1.4915,0.0,0.0,0.0,0.0,0.0,0.0,0.0,0.0,0.0,0.0,0.0,0.0,0.0,0.0,0.0,0.0,0.0,0.0,0.0,0.0,0.0,0.0,0.0,0.0,0.0,0.0,0.0,0.0,1.3786,1.3701,1.4046,0.0,0.0,0.0,0.0,0.0,0.0,0.0,0.0,0.0,0.0,1.2952,1.3095,1.3235,0.0,0.0,1.3446,1.3582,1.3713,1.3755,1.3856,1.4113,1.4043,0.0,0.0,0.0,0.0,0.0,0.0,0.0,0.0,0.0,0.0,0.0,0.0,0.0,0.0,0.0,0.0,0.0,0.0,0.0,0.0,0.0,0.0,0.0,0.0,0.0,0.0,0.0,0.0,0.0,0.0,0.0,0.0,0.0,0.0,0.0,0.0,0.0,0.0,0.0,0.0,0.0,0.0,0.0,0.0,0.0,0.0,0.0,0.0,0.0,0.0,0.0,0.0,1.376,1.4117,1.4964,1.5389,1.5389,1.5389,1.5389,1.5389,1.5389,1.4999,0.0,0.0,0.0,0.0,0.0,0.0,0.0,0.0,0.0,0.0,0.0,0.0,0.0,0.0,0.0,0.0,0.0,0.0,0.0,0.0,0.0,0.0,0.0,0.0,0.0,0.0,0.0,0.0,1.4088,1.4088,1.4088,0.0,0.0,0.0,0.0,0.0,0.0,0.0,0.0,0.0,0.0,1.3546,1.3242,1.345,1.3635,1.3622,1.368,1.3811,1.3984,1.4026,1.4081,1.4364,0.0,0.0,0.0,0.0,0.0,0.0,0.0,0.0,0.0,0.0,0.0,0.0,0.0,0.0,0.0,0.0,0.0,0.0,0.0,0.0,0.0,0.0,0.0,0.0,0.0,0.0,0.0,0.0,0.0,0.0,0.0,0.0,0.0,0.0,0.0,0.0,0.0,0.0,0.0,0.0,0.0,0.0,0.0,0.0,0.0,0.0,0.0,0.0,0.0,0.0,0.0,0.0,0.0,0.0,1.4097,1.4957,1.5389,1.5389,1.5389,1.5389,1.5389,1.5389,1.5305,1.5048,0.0,0.0,0.0,0.0,0.0,0.0,0.0,0.0,0.0,0.0,0.0,0.0,0.0,0.0,0.0,0.0,0.0,0.0,0.0,0.0,0.0,0.0,0.0,0.0,0.0,0.0,1.4088,1.4088,1.4088,0.0,0.0,0.0,0.0,0.0,0.0,0.0,0.0,0.0,0.0,1.3747,1.3785,1.3553,1.3752,1.3902,1.391,1.4139,1.4278,1.4292,1.428,1.4388,0.0,0.0,0.0,0.0,0.0,0.0,0.0,0.0,0.0,0.0,0.0,0.0,0.0,0.0,0.0,0.0,0.0,0.0,0.0,0.0,0.0,0.0,0.0,0.0,0.0,0.0,0.0,1.5994,1.5986,0.0,0.0,0.0,0.0,0.0,0.0,0.0,0.0,0.0,0.0,0.0,1.5409,1.4817,0.0,0.0,0.0,0.0,0.0,0.0,0.0,0.0,0.0,0.0,0.0,0.0,1.4013,1.4748,1.5173,1.5389,1.5389,1.5389,1.5389,1.5389,1.5389,1.5298,1.5131,0.0,0.0,0.0,0.0,0.0,0.0,0.0,0.0,0.0,0.0,0.0,0.0,0.0,0.0,0.0,0.0,0.0,0.0,0.0,0.0,0.0,0.0,0.0,0.0,0.0,1.4088,0.0,0.0,0.0,0.0,0.0,0.0,0.0,0.0,0.0,0.0,0.0,1.3925,1.3791,1.3838,1.3871,1.3773,1.4017,1.4163,0.0,0.0,0.0,0.0,0.0,0.0,0.0,0.0,0.0,0.0,0.0,0.0,0.0,0.0,1.4394,1.4298,1.4298,1.4298,1.4298,0.0,0.0,0.0,0.0,0.0,0.0,0.0,0.0,0.0,0.0,0.0,0.0,0.0,0.0,0.0,0.0,1.6681,0.0,0.0,0.0,0.0,0.0,0.0,0.0,0.0,1.5963,1.5839,1.5839,1.5208,1.5041,0.0,1.4831,1.4741,0.0,0.0,0.0,0.0,0.0,0.0,0.0,0.0,1.4307,1.4915,1.5257,1.5389,1.5389,1.5389,1.5389,1.5389,1.5215,1.5082,1.4873,1.4566,1.4398,0.0,0.0,0.0,0.0,0.0,0.0,0.0,0.0,0.0,0.0,0.0,0.0,0.0,0.0,0.0,0.0,0.0,0.0,0.0,0.0,0.0,0.0,0.0,1.3995,0.0,0.0,0.0,0.0,0.0,0.0,0.0,0.0,0.0,1.4141,1.407,1.3985,1.3933,1.3975,1.4039,1.4045,0.0,0.0,0.0,0.0,0.0,0.0,0.0,1.4298,1.4298,1.4298,1.4298,1.4298,1.4298,1.4298,1.4298,0.0,0.0,1.4298,1.4298,1.4298,1.4298,1.4159,1.4099,1.4262,1.4165,1.4093,0.0,0.0,0.0,0.0,0.0,0.0,0.0,0.0,1.8656,1.8167,0.0,1.744,0.0,0.0,0.0,0.0,0.0,0.0,0.0,0.0,1.5499,1.5431,1.5431,1.5389,1.5389,1.5431,1.5582,1.5658,1.5609,1.4643,0.0,0.0,0.0,0.0,0.0,0.0,1.4957,1.4776,1.5173,1.5389,1.5389,1.5389,1.5389,1.5389,1.495,1.4608,1.4433,1.4391,1.4398,1.4398,1.4824,0.0,0.0,0.0,0.0,0.0,0.0,0.0,0.0,0.0,0.0,0.0,0.0,0.0,0.0,0.0,0.0,0.0,0.0,0.0,0.0,1.3721,0.0,0.0,0.0,0.0,0.0,0.0,0.0,0.0,0.0,0.0,1.4243,1.4216,1.4151,1.3918,0.0,0.0,0.0,0.0,1.4592,1.434,1.4496,1.4592,1.4346,1.4298,1.4298,1.4298,0.0,0.0,1.4298,1.4298,1.4298,1.4298,1.4298,1.4298,1.4298,1.4298,1.4298,1.4298,1.4292,1.4298,1.4298,1.4286,1.4328,1.945,0.0,0.0,0.0,0.0,1.8407,1.8367,1.8207,1.8336,1.8296,1.8046,1.8055,0.0,0.0,0.0,0.0,0.0,0.0,1.5955,1.5692,1.5616,1.5541,1.5389,1.5389,1.5389,1.5431,1.5465,1.5465,1.5465,1.5166,1.4992,1.4894,0.0,0.0,0.0,0.0,1.4992,1.5401,1.5416,1.5389,1.5389,1.5389,1.5347,1.5173,1.4866,1.4608,1.4391,1.4279,1.4159,1.4166,1.4292,0.0,0.0,0.0,0.0,0.0,0.0,0.0,0.0,0.0,0.0,0.0,0.0,0.0,0.0,0.0,0.0,0.0,0.0,0.0,1.4601,1.4255,1.4148,0.0,0.0,0.0,0.0,0.0,0.0,0.0,0.0,0.0,1.4534,1.4378,1.4231,0.0,0.0,1.4298,1.4298,1.4346,1.4394,1.4298,0.0,0.0,0.0,1.4298,1.4298,1.4298,1.4298,1.4298,1.4298,1.4298,1.4298,1.4298,1.4298,1.4298,1.4298,1.4298,1.4298,1.4298,1.4298,1.4298,1.4298,1.4298,1.4484,2.0089,1.9036,1.9204,1.9164,1.9036,1.9262,1.9015,1.8567,1.9015,1.8847,1.8207,1.8536,1.8625,1.8545,1.8086,0.0,0.0,0.0,1.6154,1.5582,1.5575,1.5499,1.5431,1.5389,1.5389,1.5389,1.5499,1.5506,1.5389,1.5465,1.5533,1.5477,0.0,0.0,1.5477,1.5235,1.5242,1.5533,1.5465,1.5389,1.5389,1.5389,1.5305,1.509,1.4824,1.4608,1.4398,1.4201,1.4088,1.4088,1.4166,1.4201,0.0,0.0,0.0,0.0,0.0,0.0,0.0,0.0,0.0,0.0,0.0,1.3997,0.0,0.0,0.0,0.0,1.4124,1.4416,1.4696,1.4346,0.0,0.0,0.0,0.0,0.0,0.0,0.0,1.4436,1.43,1.4306,1.4519,1.44,1.4298,1.4298,1.4298,1.4298,1.4298,0.0,1.4298,1.4298,1.4298,1.4298,1.4298,1.4298,1.4298,1.4298,1.4298,1.4298,1.4298,1.4298,1.4298,1.4298,1.4298,1.4298,1.4298,1.4298,1.4298,1.4298,1.4298,1.4298,1.4298,1.4532,1.4867,2.0615,2.0644,2.1013,2.0965,2.0605,2.078,2.0303,1.9499,2.0167,1.9608,1.8167,1.8847,1.8856,1.8296,1.8616,0.0,0.0,1.7033,1.6476,1.5431,1.5494,1.5509,1.5425,1.5467,1.5425,1.5425,1.5597,1.5575,1.5423,1.5582,1.5699,1.565,1.5692,1.5692,1.5692,1.5699,1.5575,1.5389,1.5389,1.5389,1.5389,1.5389,1.5305,1.509,1.4824,1.4608,1.4356,1.4201,1.4088,1.4088,1.4286,1.4279,1.413,0.0,0.0,0.0,0.0,0.0,0.0,0.0,0.0,0.0,0.0,0.0,0.0,0.0,0.0,0.0,1.3976,0.0,1.4338,1.4145,0.0,0.0,0.0,1.4602,1.4602,1.4634,1.4688,1.4694,0.0,0.0,0.0,0.0,1.4298,1.4298,1.4298,1.4298,1.4298,1.4298,1.4298,1.4298,1.4298,1.4298,1.4298,1.4298,1.4298,1.4298,1.4298,1.4298,1.4298,1.4298,1.4298,1.4298,1.4298,1.4298,1.4298,1.4298,1.4298,1.4298,1.4298,1.4292,1.4442,1.4914,1.5391,2.0615,2.0635,2.1056,2.0968,2.0605,2.0654,2.0527,2.0245,1.9814,1.9371,1.8975,1.8487,1.8198,1.8118,1.8825,1.8287,1.678,1.7472,1.6919,1.5529,1.6331,1.6411,1.5796,1.5804,1.5796,1.5789,1.559,1.5431,1.5389,1.5465,1.5465,1.5465,1.5465,1.5541,1.5692,1.5533,1.5465,1.5389,1.5389,1.5389,1.5389,1.5389,1.5215,1.4783,1.4741,1.4531,1.4201,1.4124,1.4088,1.4088,1.4166,1.4166,1.4088,1.4166,0.0,0.0,0.0,0.0,0.0,0.0,0.0,0.0,0.0,1.4048,1.4087,0.0,1.4302,0.0,1.3939,1.4157,1.4855,1.4681,0.0,0.0,1.4839,1.4839,1.4398,1.4555,1.464,1.4394,1.4346,1.4298,1.4298,1.4298,1.4298,1.4298,1.4298,1.4298,1.4298,1.4298,1.4298,1.4298,1.4298,1.4298,1.4298,1.4298,1.4298,1.4298,1.4298,1.4298,1.4298,1.4298,1.4298,1.4298,1.4298,1.4298,1.4298,1.4298,1.4298,1.4298,1.4298,1.4484,1.501,1.5289,1.5717,2.1192,2.1172,2.1426,2.1387,2.1192,2.1152,2.0942,2.0571,2.05,2.0248,1.9824,1.9147,1.8621,1.8237,1.8567,1.7957,1.678,1.7188,1.6753,1.57,1.6314,1.6438,1.6111,1.5979,1.5987,1.6096,1.565,1.5469,1.5586,1.5455,1.5389,1.5389,1.5389,1.5465,1.5541,1.5465,1.5431,1.5548,1.5431,1.5389,1.5389,1.5298,1.5173,1.4999,1.4734,1.4531,1.437,1.4215,1.4088,1.4088,1.4088,1.4088,1.4088,1.4088,1.4088,0.0,0.0,0.0,0.0,0.0,0.0,0.0,0.0,0.0,0.0,0.0,1.4579,0.0,1.419,0.0,1.4873,1.4694,1.4496,1.4544,1.464,1.464,1.4346,1.4442,1.4448,1.4346,1.4298,1.4298,1.4298,1.4298,1.4298,1.4298,1.4298,1.4298,1.4298,1.4298,1.4298,1.4298,1.4298,1.4298,1.4298,1.4298,1.4298,1.4298,1.4298,1.4298,1.4298,1.4298,1.4298,1.4298,1.4298,1.4298,1.4298,1.4586,1.4771,1.4771,1.4819,1.4962,1.5343,1.5676,1.6285,2.1936,2.1894,2.1943,2.1963,2.1963,2.2021,2.1556,2.0806,2.1451,2.1233,2.0391,1.9994,1.9345,1.8572,1.8247,1.7654,1.6875,1.6949,1.6632,1.5965,1.6102,1.6308,1.6455,1.6162,1.6148,1.6382,1.5767,1.5571,1.5848,1.552,1.5389,1.5389,1.5389,1.5431,1.5423,1.5431,1.5506,1.5658,1.5465,1.5389,1.5389,1.5222,1.5173,1.5257,1.4741,1.4482,1.4608,1.4286,1.4088,1.4088,1.4088,1.4088,1.4088,1.4088,1.4088,0.0,1.4082,0.0,0.0,0.0,0.0,0.0,0.0,0.0,0.0,1.4628,1.4756,1.5016,1.4592,1.4394,1.464,1.4442,1.4298,1.4298,1.4298,1.4298,1.4298,1.4298,1.4298,1.4298,1.4298,1.4298,1.4298,1.4298,1.4298,1.4304,1.4352,1.4352,1.4304,1.4298,1.4298,1.4298,1.4298,1.4298,1.4298,1.4298,1.4298,1.4298,1.4298,1.4298,1.4298,1.4298,1.4298,1.4346,1.4394,1.4436,1.4346,1.4867,1.5289,1.5194,1.5242,1.5391,1.5629,1.6103,1.681,2.1936,2.1924,2.2256,2.2393,2.2422,2.2764,2.2382,2.1627,2.1057,2.0367,1.9536,1.9339,1.9144,1.9007,1.8871,1.8361,1.7556,1.8234,1.7768,1.6338,1.7299,1.7415,1.6845,1.6749,1.6617,1.6397,1.6001,1.5673,1.5476,1.5418,1.5389,1.5389,1.5389,1.5465,1.5616,0.0,0.0,0.0,1.5423,1.5389,1.5389,1.5215,1.4999,1.4824,1.4566,0.0,1.4208,1.4124,1.4088,1.4088,1.4088,0.0,0.0,0.0,0.0,0.0,0.0,0.0,0.0,0.0,0.0,0.0,1.4636,1.4477,1.4297,1.4352,1.4483,1.4736,1.449,1.4298,1.4394,1.4346,1.4298,1.4298,1.4298,1.4298,1.4298,1.4298,1.4298,1.4298,1.4298,1.4298,1.4298,1.4298,1.4298,1.4328,1.4491,1.4527,1.4334,1.4322,1.4304,1.4298,1.431,1.4304,1.4298,1.4304,1.4304,1.4298,1.4298,1.4298,1.4298,1.431,1.4298,1.4346,1.4771,1.4968,1.4436,1.4914,1.5248,1.4627,1.5003,1.5575,1.6251,1.6487,1.6817,2.251,0.0,2.2691,2.2779,0.0,2.3013,2.2587,2.1797,2.184,2.1349,2.0455,1.9739,1.9176,1.8679,1.8001,1.745,1.7064,1.7494,1.7324,1.6705,1.7266,1.7394,1.7084,1.6976,1.685,1.6821,1.636,1.6133,1.6126,1.5965,1.5891,1.5899,1.5891,1.5854,1.5784,1.5546,1.5389,1.5389,1.5305,1.5257,1.5257,1.4915,1.4734,1.4692,0.0,0.0,0.0,0.0,0.0,0.0,0.0,0.0,0.0,0.0,0.0,1.4088,1.4087,1.4147,1.4291,1.4377,1.4527,1.4764,1.459,1.443,1.4436,1.4369,1.434,1.449,1.4394,1.4298,1.4298,1.4298,1.4298,1.4298,1.4298,1.4298,1.4298,1.4298,1.4298,1.4298,1.4298,1.4298,1.4298,1.4298,1.4364,1.4485,1.4624,1.4721,1.469,1.4582,1.4467,1.4334,1.4431,1.4509,1.4491,1.437,1.4358,1.4455,1.4389,1.431,1.4298,1.4407,1.4564,1.4779,1.4973,1.4952,1.4946,1.5153,1.5296,1.501,1.5439,1.6062,1.6541,1.6588,1.6817,2.3101,2.3101,2.3101,2.3101,2.3101,2.3101,2.2599,2.1739,0.0,0.0,0.0,2.0589,1.9557,1.8559,1.7354,1.6706,1.6587,1.6535,1.6682,1.6976,1.6983,1.7077,1.7264,1.7062,1.7047,1.7216,1.6704,1.6609,1.68,1.6543,1.6411,1.6411,1.6411,1.6287,1.5994,1.5637,1.5427,1.5427,1.5202,1.5082,1.5041,1.4615,1.4482,1.465,1.4292,1.4166,1.4314,1.4166,1.4088,1.4088,1.4088,1.4108,1.4162,1.4162,1.4188,1.4206,1.4332,1.4441,1.4456,1.4663,1.4716,1.4534,1.4469,1.4442,1.464,1.4448,1.4298,1.4298,1.4298,1.4298,1.4298,1.4298,1.4298,1.4298,1.4298,1.4298,1.4298,1.4298,1.4298,1.4298,1.4298,1.4298,1.4298,1.4358,1.4449,1.4672,1.4817,1.4926,1.5089,1.4944,1.469,1.4473,1.4618,1.4763,1.463,1.4521,1.4449,1.4564,1.4473,1.4383,1.4401,1.4558,1.4845,1.5101,1.4978,1.4941,1.5156,1.5289,1.5343,1.5248,1.5872,1.6393,1.6393,1.6629,1.6998,2.3101,2.3101,2.3101,2.3101,2.3101,2.3101,2.2555,2.1695,2.1828,2.1828,2.1695,2.1497,2.0882,1.9875,1.8881,1.8011,1.7194,1.7147,1.7216,0.0,1.7267,1.7235,1.7326,1.7235,1.7143,1.6969,1.6873,1.6705,1.6499,1.6441,1.6411,1.6419,1.6411,1.6397,1.6287,1.5821,1.5591,1.5583,1.5268,1.4999,1.4783,1.4524,1.4391,1.444,1.4201,1.413,1.413,1.413,1.4088,1.4088,1.4088,1.4202,1.4442,1.4412,1.4482,1.4492,1.4321,1.423,1.4235,1.4142,1.4143,1.4315,1.4519,1.4544,1.44,1.4346,1.4298,1.4298,1.4298,1.4298,1.4298,1.4298,1.4298,1.4298,1.4298,1.4298,1.4298,1.4298,1.431,1.4316,1.4298,1.4298,1.4334,1.4491,1.463,1.4769,1.5095,1.539,1.5366,1.5221,1.4962,1.4763,1.4883,1.4835,1.457,1.4558,1.4564,1.4377,1.4545,1.4624,1.4624,1.4672,1.4728,1.4789,1.5044,1.5051,1.4682,1.5003,1.5051,1.4723,1.5201,1.5724,1.5764,1.6662,1.7552,2.3101,2.3101,2.3101,2.3101,2.3003,2.1952,2.1275,2.0827,2.0331,2.043,2.0827,2.0376,1.9877,1.9376,1.8419,1.7738,1.7286,1.7286,1.7286,1.7286,1.7286,1.7286,1.7286,1.7286,1.726,1.7121,1.7113,1.704,1.6901,1.6887,1.6887,1.6872,1.659,1.6458,1.6391,1.5874,1.5549,1.5411,1.495,1.465,1.4524,1.4321,1.4237,1.4243,1.4166,1.4088,1.4088,1.4088,1.4088,1.4088,1.4242,1.4289,1.4285,1.4443,1.4505,1.4372,1.4423,1.4419,1.4412,1.4374,1.4314,1.4334,1.4394,1.4442,1.4298,1.4298,1.4298,1.4298,1.4298,1.4298,1.4298,1.4298,1.4298,1.4298,1.4298,1.4298,1.4298,1.4298,1.4358,1.4479,1.4389,1.4358,1.4503,1.4503,1.463,1.489,1.5384,1.565,1.5535,1.5523,1.5384,1.504,1.5028,1.4998,1.4769,1.4702,1.4721,1.4721,1.4714,1.4721,1.4714,1.4714,1.4802,1.5014,1.5061,1.4988,1.4821,1.4819,1.4627,1.458,1.5296,1.5913,1.6197,1.7225,1.8218,2.3101,2.3101,2.3101,2.3101,2.2906,2.1006,2.0187,2.0096,1.8964,1.888,1.9413,1.9193,1.9018,1.8742,1.7971,1.7512,1.7333,1.7286,1.7286,1.7286,1.7286,1.7286,1.7286,1.7286,1.7286,1.7286,1.7286,1.7286,1.7286,1.7239,1.7192,1.7117,1.6722,1.6515,1.6508,1.5924,1.5597,1.539,1.484,1.4484,1.4423,1.426,1.4155,1.4088,1.4088,1.4115,1.4182,1.4182,1.4215,1.4289,1.4452,1.4467,1.4312,1.4475,1.454,1.4349,1.4492,1.4618,1.4525,1.457,1.4544,1.4346,1.4298,1.4298,1.4298,1.4298,1.4298,1.4298,1.4298,1.4298,1.4298,1.4298,1.4298,1.4298,1.4298,1.4298,1.4304,1.4352,1.4467,1.4654,1.4576,1.4564,1.4642,1.4582,1.4696,1.5155,1.5553,1.5704,1.5632,1.5728,1.5608,1.5415,1.5246,1.5167,1.5119,1.495,1.4877,1.5022,1.4908,1.4841,1.4817,1.4781,1.485,1.513,1.4881,1.474,1.5,1.4723,1.4484,1.4627,1.5629,1.6636,1.7138,1.7939,1.8735,2.3101,2.3101,2.3101,2.3101,2.2872,2.1006,2.0187,1.996,1.8234,1.7466,1.7785,1.9322,1.9505,1.888,1.865,1.8102,1.7333,1.7286,1.7286,1.7286,1.7286,1.7286,1.7286,1.7286,1.7286,1.7286,1.7286,1.7286,1.7286,1.7113,1.6918,1.6676,1.6601,1.6579,1.6504,1.6061,1.5785,1.5732,1.523,1.4794,1.4496,1.4482,1.4355,1.4095,1.4095,1.4208,1.4462,1.4482,1.4603,1.4856,1.4711,1.4714,1.4845,1.4692,1.464,1.463,1.468,1.4603,1.4358,1.4334,1.4346,1.4298,1.4304,1.4298,1.4298,1.4298,1.4298,1.4298,1.4298,1.4298,1.4298,1.4298,1.4298,1.4298,1.4298,1.4298,1.434,1.4527,1.469,1.4708,1.489,1.4962,1.4817,1.4902,1.5119,1.5372,1.5535,1.5662,1.5734,1.568,1.5656,1.5698,1.5614,1.5366,1.5191,1.5101,1.5022,1.4871,1.4956,1.504,1.504,1.489,1.4794,1.4967,1.4741,1.4461,1.4424,1.4346,1.458,1.5105,1.6008,1.7005,1.8172,1.8689,1.8781,2.3101,2.3101,2.3101,2.3101,2.2818,2.1006,2.0187,2.0005,1.8141,1.7286,1.7372,1.8141,1.8288,1.7917,1.7924,1.7692,1.7326,1.7286,1.7286,1.7286,1.7286,1.7286,1.7286,1.7286,1.7286,1.7286,1.7286,1.7239,1.7113,1.6878,1.6737,1.6588,1.6447,1.6359,1.6346,1.6001,1.5799,1.5799,1.5584,1.5331,1.5057,1.487,1.4767,1.4666,1.4653,1.4693,1.4763,1.4783,1.4792,1.4777,1.4793,1.4753,1.4545,1.4622,1.4617,1.4484,1.4448,1.4473,1.4533,1.4389,1.437,1.4533,1.4389,1.4298,1.4298,1.4298,1.4298,1.4298,1.4298,1.4298,1.4298,1.4298,1.4298,1.4298,1.4298,1.4358,1.4533,1.4648,1.4811,1.5107,1.5131,1.5149,1.5179,1.527,1.5378,1.5511,1.5614,1.5722,1.5686,1.5692,1.571,1.565,1.5559,1.5469,1.5354,1.5342,1.5276,1.5221,1.5258,1.5336,1.5282,1.4968,1.4763,1.4877,1.4552,1.4322,1.4352,1.4346,1.4532,1.5343,1.652,1.7606,1.8635,1.8781,1.8781,2.3101,2.3101,2.3101,2.296,2.2545,2.0917,2.0051,1.965,1.801,1.7286,1.7286,1.7286,1.7286,1.7286,1.7286,1.7286,1.7286,1.7286,1.7286,1.7286,1.7286,1.7286,1.7286,1.7286,1.7286,1.7239,1.7246,1.7059,1.6791,1.6595,1.6447,1.6353,1.6211,1.6123,1.6198,1.6,1.5992,1.6059,1.5951,1.5845,1.5625,1.5305,1.5078,1.4887,1.4912,1.49,1.4903,1.4903,1.4851,1.4741,1.4842,1.4765,1.4396,1.4487,1.4496,1.4346,1.4298,1.4383,1.4588,1.4413,1.4383,1.4552,1.4401,1.4298,1.4298,1.4298,1.4298,1.4298,1.4298,1.4298,1.4298,1.4298,1.4298,1.4298,1.4346,1.4503,1.4684,1.4811,1.5089,1.5415,1.5409,1.5348,1.5463,1.5487,1.5493,1.5517,1.565,1.5777,1.5638,1.571,1.5716,1.5614,1.5608,1.5608,1.5596,1.5517,1.5517,1.5499,1.5481,1.5475,1.5457,1.5046,1.4877,1.501,1.4588,1.4383,1.4437,1.4461,1.4771,1.5717,1.6889,1.8071,1.8689,1.8781,1.8781,2.3101,2.3101,2.3101,2.2589,2.1695,2.0656,1.9704,1.892,1.7776,1.7301,1.733,1.7323,1.7301,1.7323,1.7352,1.7293,1.7293,1.7308,1.733,1.7344,1.7323,1.7301,1.7286,1.7286,1.7214,1.7105,1.7065,1.6815,1.636,1.6245,1.6082,1.5893,1.5879,1.5999,1.6261,1.6288,1.638,1.652,1.6319,1.6213,1.6166,1.5721,1.5172,1.4695,1.4656,1.467,1.4652,1.4638,1.4759,1.5073,1.4841,1.4711,1.4621,1.4436,1.4298,1.4298,1.4304,1.4316,1.4358,1.4358,1.4358,1.4352,1.4364,1.431,1.434,1.434,1.4346,1.4316,1.4352,1.4328,1.4358,1.437,1.4334,1.4346,1.4552,1.4696,1.4745,1.5155,1.5427,1.5541,1.5674,1.5692,1.5541,1.5499,1.5529,1.5529,1.5535,1.5608,1.5777,1.568,1.5662,1.5789,1.5843,1.5861,1.5843,1.5704,1.5559,1.5553,1.5584,1.5529,1.5324,1.5173,1.5203,1.5101,1.4684,1.4497,1.4588,1.4868,1.5313,1.6237,1.7598,1.8589,1.8735,1.8781,1.8781,2.3101,2.3101,2.3101,2.2545,2.1633,2.0854,1.9999,1.9051,1.8285,1.7955,1.7947,1.7955,1.7955,1.7955,1.7955,1.7838,1.7647,1.7633,1.7743,1.7884,1.7768,1.7671,1.7663,1.7518,1.7364,1.7323,1.733,1.7128,1.6792,1.6596,1.6498,1.6393,1.6393,1.6453,1.6506,1.6366,1.6333,1.6393,1.6036,1.5794,1.5765,1.5408,1.5063,1.4697,1.4818,1.4916,1.493,1.493,1.4886,1.4831,1.4736,1.4598,1.4448,1.4346,1.4298,1.4316,1.4467,1.4636,1.4787,1.4811,1.4817,1.4805,1.466,1.457,1.457,1.457,1.463,1.4745,1.4642,1.463,1.4745,1.4672,1.4564,1.46,1.4805,1.5034,1.5197,1.539,1.5559,1.5716,1.5837,1.5837,1.5771,1.5747,1.5753,1.5753,1.5747,1.5789,1.5843,1.5801,1.5777,1.5855,1.5885,1.5885,1.5885,1.5831,1.5753,1.5753,1.5759,1.5753,1.5626,1.539,1.5354,1.5173,1.4781,1.4534,1.4668,1.5451,1.5913,1.6897,1.821,1.8689,1.8781,1.8781,1.8781,2.2542,2.238,2.2701,2.215,2.1103,2.1023,2.0184,1.8999,1.8491,1.8299,1.8306,1.8207,1.8207,1.8256,1.8108,1.8065,1.7976,1.7979,1.8045,1.815,1.7967,1.7867,1.7768,1.7562,1.7456,1.7356,1.7256,1.7157,1.6964,1.6764,1.6707,1.67,1.6707,1.676,1.6794,1.6554,1.6494,1.6464,1.6062,1.5732,1.5593,1.5303,1.4973,1.4748,1.479,1.4838,1.4838,1.4838,1.4742,1.4592,1.4544,1.4496,1.4298,1.4298,1.4298,1.4328,1.4558,1.4787,1.4962,1.5059,1.5107,1.5101,1.4956,1.4847,1.4841,1.4847,1.4938,1.5022,1.4968,1.4932,1.504,1.5016,1.4938,1.4902,1.5083,1.5294,1.5481,1.5578,1.5698,1.5831,1.5879,1.5885,1.5885,1.5885,1.5879,1.5885,1.5885,1.5885,1.5885,1.5885,1.5885,1.5885,1.5885,1.5885,1.5885,1.5855,1.5837,1.5837,1.5837,1.5873,1.5819,1.5602,1.5403,1.5203,1.4964,1.4735,1.5063,1.5852,1.6709,1.7544,1.821,1.8735,1.8781,1.8781,1.8781,2.1346,2.1012,2.1869,2.136,2.0167,2.0866,2.0176,1.8602,1.835,1.8366,1.8338,1.8081,1.8124,1.8159,1.7875,1.7859,1.8268,1.8275,1.8173,1.801,1.7953,1.7796,1.7589,1.756,1.741,1.7159,1.6904,1.6797,1.6837,1.68,1.6794,1.6754,1.6743,1.689,1.7206,1.68,1.6821,1.6853,1.6439,1.6088,1.5846,1.5344,1.4954,1.4702,1.4508,1.4394,1.4346,1.4346,1.4346,1.4352,1.4346,1.4298,1.4298,1.4298,1.4298,1.437,1.4582,1.4727,1.4793,1.5034,1.5197,1.5149,1.5113,1.5113,1.5113,1.5107,1.5137,1.5191,1.5149,1.5131,1.5191,1.5318,1.5336,1.5185,1.5342,1.5511,1.5565,1.5734,1.5885,1.5885,1.5885,1.5885,1.5885,1.5885,1.5885,1.5885,1.5885,1.5885,1.5885,1.5885,1.5885,1.5885,1.5885,1.5885,1.5885,1.5885,1.5885,1.5885,1.5879,1.5879,1.5813,1.5644,1.5511,1.5306,1.5152,1.4966,1.5615,1.6395,1.7059,1.7839,1.8357,1.8781,1.8781,1.8781,1.8781,2.1043,2.1079,2.138,2.0878,1.9925,2.0336,1.9805,1.8715,1.8673,1.8723,1.8671,1.8407,1.8297,1.8341,1.8194,1.8184,1.8379,1.8391,1.8341,1.818,1.8032,1.7929,1.7819,1.7664,1.7515,1.7418,1.7367,1.7308,1.7295,1.7295,1.7308,1.7315,1.7152,1.7108,1.7167,1.6697,1.6484,1.6509,1.6017,1.5726,1.5582,1.5096,1.4814,1.468,1.4449,1.4298,1.4298,1.4298,1.4298,1.4298,1.4298,1.4298,1.4304,1.4298,1.4395,1.4588,1.4841,1.5083,1.5264,1.5475,1.5547,1.5427,1.5378,1.5378,1.5378,1.5378,1.5457,1.5572,1.5493,1.5433,1.559,1.5535,1.5475,1.5384,1.5608,1.5753,1.5747,1.5837,1.5879,1.5885,1.5885,1.5885,1.5885,1.5885,1.5885,1.5885,1.5885,1.5885,1.5885,1.5885,1.5885,1.5885,1.5885,1.5885,1.5885,1.5885,1.5885,1.5885,1.5885,1.5885,1.5813,1.5692,1.5565,1.5478,1.5264,1.5583,1.623,1.6906,1.7522,1.804,1.8596,1.8781,1.8781,1.8781,1.8781,2.0087,2.0174,2.0614,2.0311,1.971,2.0178,1.991,1.9045,1.8932,1.8876,1.881,1.8429,1.8318,1.8318,1.8213,1.816,1.8213,1.816,1.8108,1.8108,1.8062,1.7964,1.7859,1.7694,1.7589,1.7589,1.7582,1.7589,1.7582,1.7477,1.7483,1.7371,1.7166,1.7001,1.6948,1.6577,1.6319,1.6241,1.5902,1.555,1.531,1.4994,1.4763,1.457,1.4389,1.431,1.4298,1.4298,1.4298,1.4322,1.4389,1.4352,1.4158,1.4203,1.4327,1.4504,1.479,1.5073,1.5453,1.571,1.5831,1.5674,1.5644,1.5644,1.5591,1.5486,1.5417,1.55,1.5205,1.5176,1.5447,1.5441,1.5381,1.5644,1.5777,1.5879,1.5885,1.5885,1.5885,1.5885,1.5885,1.5885,1.5885,1.5885,1.5885,1.5885,1.5885,1.5885,1.5885,1.5885,1.5885,1.5885,1.5885,1.5885,1.5885,1.5885,1.5885,1.5885,1.5885,1.5885,1.5855,1.5698,1.5553,1.5581,1.5445,1.6003,1.6683,1.7376,1.8033,1.8458,1.8706,1.8781,1.8781,1.8781,1.8781,1.8688,1.8549,1.9497,1.9664,1.9354,2.0195,1.9989,1.925,1.8914,1.8772,1.866,1.8227,1.8115,1.822,1.7845,1.7799,1.7911,1.7799,1.7687,1.774,1.7852,1.7859,1.7687,1.7641,1.7589,1.7589,1.7589,1.7536,1.7483,1.7272,1.7173,1.712,1.6842,1.6677,1.6624,1.6418,1.624,1.6221,1.6009,1.566,1.526,1.5101,1.4896,1.4443,1.428,1.4256,1.422,1.4159,1.4238,1.4316,1.4441,1.433,1.3968,1.3999,1.4134,1.4191,1.4429,1.4804,1.5304,1.5488,1.5666,1.5583,1.5577,1.5785,1.553,1.5144,1.4936,1.4922,1.4578,1.4476,1.4869,1.4953,1.5162,1.5666,1.5666,1.5725,1.5838,1.5779,1.5785,1.5885,1.5885,1.5885,1.5885,1.5885,1.5885,1.5885,1.5885,1.5885,1.5885,1.5885,1.5885,1.5885,1.5885,1.5885,1.5885,1.5885,1.5885,1.5885,1.5885,1.5885,1.5885,1.5741,1.5644,1.5661,1.5828,1.6437,1.6945,1.7496,1.7938,1.8208,1.8464,1.8675,1.8775,1.8714,1.8843,1.8323,1.8452,1.8712,1.8762,1.8684,1.899,1.8938,1.8632,1.8384,1.8286,1.8174,1.7852,1.774,1.7793,1.7694,1.7635,1.7694,1.7641,1.7589,1.7589,1.7687,1.7687,1.7635,1.7589,1.7582,1.7529,1.7378,1.7338,1.7279,1.7008,1.6842,1.6842,1.653,1.643,1.6377,1.6164,1.5998,1.5998,1.5939,1.5831,1.5638,1.5282,1.5052,1.487,1.4295,1.3955,1.3923,1.3741,1.3735,1.3935,1.4198,1.4078,1.3582,1.3607,1.3727,1.3868,1.3997,1.417,1.4473,1.4663,1.4702,1.4648,1.4761,1.4648,1.4648,1.4493,1.4385,1.4385,1.4277,1.4223,1.4385,1.4439,1.4546,1.4654,1.4982,1.5196,1.525,1.525,1.541,1.5785,1.5832,1.5832,1.5832,1.5885,1.5885,1.5885,1.5885,1.5885,1.5885,1.5885,1.5885,1.5885,1.5885,1.5885,1.5885,1.5885,1.5885,1.5885,1.5885,1.5885,1.5885,1.5837,1.5801,1.5816,1.6207,1.6724,1.684,1.7168,1.7527,1.7989,1.82,1.846,1.8495,1.8472,1.8791,1.8002,1.8213,1.822,1.8325,1.837,1.8422,1.8422,1.8318,1.8122,1.8016,1.7964,1.7694,1.7589,1.7589,1.7589,1.7589,1.7589,1.7589,1.7589,1.7582,1.7483,1.743,1.7378,1.7318,1.7206,1.7213,1.706,1.7014,1.6955,1.669,1.6524,1.6477,1.6271,1.6158,1.6105,1.5998,1.5885,1.5885,1.5885,1.5843,1.5698,1.5445,1.5017,1.4757,1.4178,1.3908,1.3696,1.3594,1.3707,1.392,1.3981,1.3765,1.3257,1.3299,1.3409,1.3593,1.3598,1.3768,1.4132,1.4169,1.4169,1.4223,1.4169,1.4169,1.4169,1.4008,1.3792,1.3797,1.363,1.3576,1.3797,1.4008,1.4062,1.3959,1.4121,1.439,1.4606,1.4654,1.4815,1.5137,1.5351,1.5517,1.5565,1.5731,1.5891,1.5885,1.5885,1.5885,1.5885,1.5885,1.5832,1.5725,1.5565,1.5458,1.5464,1.5464,1.5624,1.5678,1.5885,1.5885,1.5885,1.5885,1.5873,1.5984,1.6506,1.6808,1.6781,1.6956,1.7481,1.7838,1.8011,1.8163,1.8285,1.8719,1.8934,1.774,1.7964,1.7964,1.8115,1.8265,1.8318,1.8265,1.8265,1.801,1.7964,1.7911,1.7687,1.7641,1.7589,1.7589,1.7589,1.7589,1.7589,1.7589,1.743,1.7279,1.7067,1.7014,1.6895,1.6783,1.6783,1.6683,1.6683,1.663,1.6377,1.6271,1.6217,1.5998,1.5945,1.5939,1.5885,1.5885,1.5891,1.5725,1.5594,1.5381,1.5198,1.4786,1.4282,1.3986,1.3735,1.3547,1.353,1.3708,1.4054,1.3901,1.3472,1.2974,1.3101,1.3171,1.3176,1.3166,1.3393,1.3846,1.3846,1.39,1.3846,1.39,1.4008,1.3792,1.3413,1.3207,1.3202,1.2713,1.2822,1.3147,1.3684,1.363,1.331,1.3256,1.3472,1.3846,1.4062,1.4116,1.4223,1.4659,1.4874,1.5035,1.541,1.5785,1.5624,1.5678,1.5779,1.5678,1.5571,1.5517,1.5405,1.519,1.4922,1.4928,1.4987,1.5202,1.5357,1.5785,1.5885,1.5885,1.5885,1.5885,1.6056,1.6312,1.6447,1.6456,1.6832,1.7238,1.7512,1.7566,1.7902,1.8237,1.8958,1.9407,1.7635,1.7694,1.7694,1.7747,1.7793,1.7793,1.7793,1.7793,1.7747,1.7694,1.7687,1.7641,1.7582,1.7589,1.7589,1.7589,1.7529,1.7529,1.7483,1.7232,1.6696,1.6537,1.6537,1.6583,1.6677,1.6624,1.6477,1.6371,1.6324,1.6158,1.5998,1.5998,1.5939,1.5885,1.5885,1.5885,1.5885,1.5832,1.5464,1.5221,1.4969,1.4545,1.4176,1.3843,1.3472,1.3256,1.3245,1.2891,1.2945,1.3355,1.3414,1.3101,1.2685,1.262,1.2654,1.2659,1.2604,1.2708,1.2817,1.2871,1.2817,1.2871,1.2925,1.2767,1.2762,1.2762,1.2604,1.2604,1.2495,1.2491,1.2659,1.2708,1.2817,1.2713,1.2659,1.2713,1.2876,1.3202,1.363,1.4008,1.4223,1.4385,1.4385,1.4874,1.5143,1.5256,1.541,1.5571,1.5464,1.525,1.5089,1.4922,1.46,1.4331,1.439,1.4498,1.4713,1.4928,1.5351,1.5565,1.5565,1.5672,1.5618,1.5725,1.5986,1.6066,1.6197,1.6169,1.6507,1.6801,1.7226,1.7698,1.8323,1.9143,1.9773,1.7589,1.7589,1.7589,1.7589,1.7589,1.7589,1.7589,1.7589,1.7589,1.7589,1.7589,1.7589,1.7536,1.743,1.7378,1.7325,1.7213,1.7153,1.7054,1.6749,1.6436,1.6271,1.6158,1.6264,1.6311,1.6311,1.6211,1.6111,1.6051,1.5998,1.5885,1.5885,1.5885,1.5885,1.5885,1.5885,1.5731,1.5464,1.5196,1.4874,1.4567,1.4217,1.3773,1.3507,1.3026,1.2715,1.2797,1.2595,1.2599,1.2822,1.2876,1.2767,1.2491,1.2382,1.2382,1.2382,1.2382,1.2382,1.2382,1.2382,1.2436,1.2382,1.2382,1.2382,1.2382,1.2382,1.2382,1.2382,1.2382,1.2382,1.2382,1.2382,1.2382,1.2382,1.2382,1.2382,1.2436,1.2713,1.293,1.3359,1.3576,1.3743,1.3959,1.4337,1.4552,1.4659,1.4713,1.4869,1.4815,1.46,1.4546,1.4385,1.4008,1.3797,1.3851,1.3959,1.4283,1.4493,1.4702,1.4869,1.4869,1.503,1.5238,1.5458,1.5731,1.5891,1.5997,1.5885,1.5885,1.6324,1.6899,1.7585,1.8331,1.9249,1.9818,1.7589,1.7589,1.7589,1.7589,1.7589,1.7589,1.7589,1.7589,1.7589,1.7483,1.7529,1.7529,1.7272,1.7173,1.7113,1.6948,1.6789,1.6683,1.6583,1.6377,1.6271,1.6111,1.5998,1.5939,1.5998,1.5885,1.5939,1.5945,1.5945,1.5885,1.5885,1.5885,1.5885,1.5779,1.5779,1.5725,1.541,1.4928,1.4659,1.4444,1.4062,1.3879,1.3496,1.3117,1.2738,1.2467,1.2491,1.2436,1.2436,1.2382,1.2382,1.2382,1.2382,1.2382,1.2382,1.2382,1.2382,1.2382,1.2382,1.2382,1.2382,1.2382,1.2382,1.2382,1.2382,1.2382,1.2382,1.2382,1.2382,1.2382,1.2382,1.2382,1.2382,1.2382,1.2382,1.2382,1.2382,1.2382,1.2491,1.255,1.2925,1.3147,1.3364,1.3689,1.39,1.4116,1.4116,1.4116,1.4062,1.4008,1.3954,1.3678,1.3305,1.3418,1.3527,1.3581,1.3851,1.4116,1.4272,1.4277,1.4331,1.4546,1.4815,1.519,1.541,1.5512,1.5565,1.5517,1.5624,1.5998,1.6797,1.7735,1.8554,1.937,1.9895,1.7589,1.7589,1.7589,1.7589,1.7589,1.7589,1.7589,1.7589,1.7384,1.7279,1.7226,1.7001,1.6895,1.6789,1.6789,1.673,1.6577,1.6477,1.6324,1.6217,1.6105,1.5945,1.5945,1.5885,1.5885,1.5885,1.5832,1.5725,1.5779,1.5885,1.5618,1.5832,1.5725,1.5512,1.5083,1.5089,1.4648,1.4002,1.3678,1.3413,1.3142,1.2812,1.2595,1.2382,1.2164,1.2164,1.2219,1.2327,1.2382,1.2382,1.2382,1.2327,1.2219,1.2219,1.2273,1.2382,1.2382,1.2382,1.2382,1.2382,1.2382,1.2382,1.2382,1.2382,1.2382,1.2382,1.2382,1.2382,1.2382,1.2382,1.2382,1.2382,1.2382,1.2382,1.2382,1.2382,1.2382,1.2382,1.2382,1.2441,1.255,1.2599,1.2876,1.3093,1.331,1.3521,1.363,1.3576,1.3472,1.3364,1.3256,1.298,1.2599,1.293,1.3256,1.331,1.3472,1.3792,1.3948,1.3948,1.4008,1.4169,1.4439,1.4439,1.46,1.4708,1.4761,1.4982,1.4976,1.5083,1.6393,1.7909,1.8393,1.8979,2.013,1.7589,1.7589,1.7589,1.7589,1.7589,1.7589,1.7589,1.7582,1.7331,1.7232,1.712,1.6849,1.663,1.6524,1.6477,1.6418,1.6258,1.6158,1.6111,1.6051,1.5945,1.5885,1.5885,1.5885,1.5885,1.5725,1.5351,1.503,1.5035,1.5303,1.4863,1.4046,1.4099,1.3932,1.3329,1.3112,1.2955,1.2472,1.215,1.1828,1.1551,1.1223,1.1114,1.1063,1.1063,1.1063,1.1008,1.0672,1.0558,1.0503,1.028,1.0503,1.0895,1.1227,1.1605,1.2105,1.2382,1.2382,1.2382,1.2382,1.2382,1.2382,1.2382,1.2382,1.2382,1.2382,1.2382,1.2382,1.2382,1.2382,1.2382,1.2382,1.2382,1.2382,1.2382,1.2382,1.2382,1.2382,1.2382,1.2382,1.2436,1.2491,1.2495,1.2659,1.2767,1.2985,1.3142,1.3093,1.293,1.2876,1.2822,1.2659,1.2387,1.255,1.2876,1.2985,1.3039,1.3305,1.3467,1.3462,1.3408,1.3467,1.3359,1.3251,1.3467,1.39,1.4277,1.4546,1.4385,1.4433,1.5968,1.7285,1.7864,1.8655,1.9768,1.7589,1.7589,1.7589,1.7582,1.7536,1.7536,1.7477,1.7371,1.712,1.6961,1.6961,1.669,1.6418,1.6264,1.6217,1.6105,1.5885,1.5945,1.5945,1.5945,1.5945,1.5885,1.5891,1.5618,1.5399,1.5013,1.4213,1.3894,1.4159,1.4164,1.3344,1.2684,1.2462,1.2136,1.1638,1.1638,1.0988,1.0664,1.0503,1.0233,0.9904,0.9794,0.9739,0.9633,0.9629,0.9629,0.9457,0.9178,0.8958,0.8789,0.8569,0.8517,0.9292,0.9622,1.028,1.1328,1.1996,1.2327,1.2327,1.2382,1.2382,1.2382,1.2382,1.2382,1.2382,1.2382,1.2382,1.2382,1.2382,1.2382,1.2382,1.2382,1.2382,1.2382,1.2382,1.2382,1.2382,1.2382,1.2382,1.2382,1.2382,1.2382,1.2387,1.2441,1.2604,1.2604,1.2762,1.2762,1.2604,1.255,1.2495,1.2491,1.2382,1.2382,1.2491,1.255,1.2599,1.2762,1.2817,1.2817,1.2708,1.2599,1.255,1.2713,1.298,1.3462,1.3786,1.3948,1.3738,1.4159,1.5595,1.6599,1.7121,1.8133,1.9354,1.7589,1.7589,1.7589,1.7483,1.7285,1.7232,1.706,1.6789,1.6583,1.6383,1.6483,1.6158,1.5998,1.5998,1.5945,1.5939,1.5885,1.5885,1.5832,1.5725,1.5666,1.5559,1.5565,1.4815,1.4202,1.3814,1.2792,1.295,1.3058,1.2689,1.2082,1.1474,1.1256,1.1256,1.0499,1.039,1.0453,0.9959,0.9849,0.9739,0.9629,0.9574,0.9299,0.8961,0.8796,0.8572,0.8128,0.7852,0.7849,0.7904,0.7904,0.8014,0.8235,0.8238,0.829,0.9226,1.0609,1.2278,1.2001,1.2001,1.2219,1.2219,1.2332,1.2382,1.2327,1.2327,1.2327,1.2382,1.2382,1.2382,1.2327,1.2382,1.2382,1.2382,1.2382,1.2382,1.2382,1.2382,1.2382,1.2382,1.2382,1.2382,1.2382,1.2382,1.2382,1.2382,1.2382,1.2382,1.2382,1.2382,1.2382,1.2382,1.2382,1.2382,1.2382,1.2382,1.2382,1.2382,1.2382,1.2382,1.2382,1.2382,1.2382,1.2545,1.2817,1.2871,1.3034,1.3088,1.3034,1.3727,1.49,1.5695,1.6321,1.7542,1.9146,1.7107,1.7107,1.71,1.7054,1.6902,1.6902,1.6842,1.6683,1.6424,1.6271,1.6217,1.5998,1.5885,1.5885,1.5885,1.5885,1.5885,1.5832,1.5458,1.4911,1.4745,1.4363,1.3604,1.3004,1.2561,1.2236,1.1424,1.0769,1.1151,1.121,1.0722,0.9515,0.9625,0.935,0.9078,0.8751,0.8585,0.8367,0.8257,0.8143,0.7919,0.7808,0.7584,0.6974,0.6974,0.6805,0.6584,0.6142,0.6028,0.5973,0.5753,0.5917,0.6362,0.6695,0.6914,0.7631,0.8899,1.0061,1.0621,1.0844,1.1227,1.1778,1.1891,1.1891,1.1946,1.1946,1.1946,1.1951,1.2114,1.2164,1.2219,1.2327,1.2382,1.2382,1.2327,1.2382,1.2382,1.2382,1.2382,1.2382,1.2382,1.2382,1.2382,1.2382,1.2382,1.2382,1.2382,1.2382,1.2382,1.2382,1.2382,1.2382,1.2382,1.2382,1.2382,1.2382,1.2382,1.2382,1.2382,1.2382,1.2382,1.2382,1.2382,1.2382,1.2545,1.2545,1.2441,1.2495,1.2708,1.3354,1.4099,1.5001,1.6062,1.808,1.9413,1.6524,1.6524,1.6624,1.6677,1.6577,1.663,1.6577,1.6465,1.6264,1.6164,1.6164,1.5998,1.5885,1.5885,1.5885,1.5832,1.5618,1.5452,1.475,1.4046,1.3334,1.2729,1.2132,1.1529,1.1088,1.092,0.979,0.9244,0.913,0.924,0.8916,0.7551,0.8149,0.7928,0.7487,0.7374,0.7429,0.7149,0.7096,0.6763,0.6318,0.6204,0.5815,0.5425,0.5146,0.5093,0.4869,0.4646,0.4369,0.4313,0.4145,0.4423,0.4923,0.52,0.5475,0.5973,0.6745,0.7412,0.8352,0.9016,0.979,1.0343,1.0785,1.0562,1.1072,1.1181,1.1459,1.1623,1.1787,1.1891,1.1946,1.2055,1.2164,1.2219,1.2273,1.2327,1.2382,1.2382,1.2382,1.2382,1.2382,1.2382,1.2382,1.2382,1.2382,1.2382,1.2382,1.2382,1.2382,1.2382,1.2382,1.2382,1.2382,1.2382,1.2382,1.2382,1.2382,1.2382,1.2382,1.2382,1.2382,1.2382,1.2382,1.2382,1.2382,1.2382,1.2387,1.2382,1.2436,1.292,1.3565,1.4739,1.6121,1.8146,1.9472,1.5939,1.5998,1.6465,1.6524,1.6324,1.6324,1.6164,1.6045,1.5945,1.5945,1.5939,1.5885,1.5885,1.5885,1.5779,1.5512,1.503,1.4256,1.3496,1.2792,1.2132,1.1524,1.0874,1.0221,0.9677,0.9343,0.8533,0.7873,0.754,0.787,0.7595,0.7265,0.7432,0.7321,0.7154,0.7099,0.6765,0.6485,0.6374,0.604,0.565,0.5427,0.5148,0.4702,0.4534,0.4313,0.381,0.3754,0.3755,0.3811,0.3699,0.3587,0.4033,0.4089,0.4309,0.4477,0.4531,0.5198,0.6031,0.7301,0.8072,0.8238,0.8514,0.8958,0.9629,0.9853,1.0351,1.0958,1.0844,1.1122,1.1286,1.1618,1.1559,1.1673,1.1782,1.2114,1.2169,1.2327,1.2327,1.2382,1.2382,1.2382,1.2382,1.2382,1.2382,1.2382,1.2382,1.2382,1.2382,1.2382,1.2382,1.2382,1.2382,1.2382,1.2382,1.2382,1.2382,1.2382,1.2382,1.2382,1.2382,1.2382,1.2382,1.2382,1.2382,1.2382,1.2382,1.2382,1.2382,1.2387,1.3083,1.453,1.6027,1.7838,1.8848,1.5885,1.5939,1.6152,1.6152,1.6051,1.6051,1.5998,1.5885,1.5885,1.5885,1.5885,1.5885,1.5885,1.5779,1.541,1.4917,1.4207,1.3501,1.2358,1.1206,1.0437,0.9783,0.9185,0.8692,0.8088,0.7977,0.7543,0.7324,0.7265,0.7154,0.721,0.721,0.7099,0.721,0.7154,0.6818,0.6318,0.5929,0.5706,0.5427,0.4981,0.4815,0.4536,0.4035,0.3921,0.3866,0.3643,0.3587,0.3587,0.3587,0.3587,0.3587,0.3587,0.3587,0.3587,0.3587,0.3587,0.3866,0.4367,0.5641,0.6642,0.7412,0.7523,0.7636,0.8134,0.8134,0.83,0.8741,0.9182,0.946,0.9237,0.9904,1.0511,1.0789,1.1122,1.145,1.1782,1.1837,1.211,1.2055,1.2273,1.2382,1.2382,1.2382,1.2382,1.2382,1.2382,1.2382,1.2382,1.2382,1.2382,1.2382,1.2382,1.2382,1.2382,1.2382,1.2382,1.2382,1.2382,1.2382,1.2382,1.2382,1.2382,1.2382,1.2382,1.2382,1.2382,1.2382,1.2382,1.2387,1.33,1.4643,1.614,1.747,1.8213,1.5885,1.5885,1.5885,1.5885,1.5885,1.5885,1.5885,1.5885,1.5885,1.5885,1.5885,1.5725,1.5618,1.5405,1.4648,1.3938,1.3058,1.2132,1.0828,0.979,0.8913,0.8198,0.7654,0.7379,0.7432,0.721,0.7154,0.7154,0.6877,0.6932,0.6707,0.6596,0.6654,0.6652,0.6763,0.6318,0.5706,0.526,0.5093,0.4814,0.4313,0.4201,0.4147,0.3699,0.3643,0.3643,0.3587,0.3587,0.3587,0.3587,0.3587,0.3587,0.3587,0.3587,0.3587,0.3587,0.3587,0.3587,0.3866,0.4311,0.5202,0.5697,0.5864,0.6086,0.6475,0.6642,0.6864,0.7357,0.7467,0.7412,0.7412,0.841,0.9016,0.9182,0.9515,0.99,1.068,1.0958,1.1455,1.1787,1.1946,1.2055,1.206,1.206,1.211,1.2223,1.2387,1.2332,1.2219,1.2273,1.2382,1.2382,1.2382,1.2382,1.2382,1.2382,1.2382,1.2382,1.2382,1.2382,1.2382,1.2382,1.2382,1.2382,1.2382,1.2382,1.2382,1.2382,1.2382,1.2382,1.3462,1.4541,1.5179,1.6352,1.747,1.5867,1.5885,1.5873,1.5873,1.5861,1.5885,1.5885,1.5891,1.5832,1.5838,1.5725,1.525,1.4928,1.46,1.3506,1.2521,1.1701,1.0331,0.9185,0.8533,0.798,0.7376,0.7265,0.721,0.7154,0.7154,0.7043,0.6765,0.6318,0.6318,0.604,0.5706,0.5706,0.5759,0.6207,0.5704,0.5148,0.459,0.4534,0.4201,0.3867,0.3755,0.3699,0.3643,0.3587,0.3587,0.3587,0.3587,0.3587,0.3587,0.3587,0.3587,0.3587,0.3587,0.3587,0.3587,0.3587,0.3587,0.3643,0.3643,0.3921,0.4199,0.4477,0.4644,0.5204,0.5481,0.5701,0.6142,0.6584,0.6805,0.6972,0.7138,0.7415,0.7689,0.7965,0.852,0.9295,0.9794,1.0178,1.0844,1.1291,1.1568,1.1623,1.1678,1.1787,1.1951,1.2223,1.2223,1.2055,1.2164,1.2273,1.2327,1.2327,1.2382,1.2382,1.2382,1.2382,1.2382,1.2382,1.2382,1.2382,1.2382,1.2382,1.2382,1.2382,1.2382,1.2382,1.2382,1.2382,1.2491,1.3251,1.4116,1.4648,1.5232,1.6293,1.5372,1.5384,1.5559,1.5632,1.5656,1.5819,1.5885,1.5832,1.5517,1.5303,1.503,1.4164,1.3619,1.3181,1.2141,1.0996,1.0167,0.9464,0.8426,0.7654,0.7321,0.7265,0.721,0.7099,0.6988,0.6707,0.6541,0.6318,0.5706,0.5706,0.565,0.5371,0.4981,0.4925,0.5037,0.4814,0.4534,0.4033,0.3921,0.381,0.3643,0.3587,0.3587,0.3587,0.3587,0.3587,0.3587,0.3587,0.3587,0.3587,0.3587,0.3587,0.3587,0.3587,0.3587,0.3587,0.3587,0.3587,0.3587,0.3643,0.3587,0.3587,0.3643,0.3811,0.4201,0.4199,0.4477,0.4756,0.5087,0.5087,0.4754,0.559,0.6033,0.6311,0.6697,0.736,0.7968,0.8244,0.8631,0.9574,1.0241,1.0794,1.1013,1.0684,1.0789,1.1122,1.14,1.1732,1.1732,1.1946,1.211,1.2169,1.2223,1.2327,1.2382,1.2273,1.2273,1.2327,1.2382,1.2382,1.2382,1.2382,1.2382,1.2382,1.2382,1.2382,1.2382,1.2382,1.2382,1.2654,1.3142,1.3576,1.4056,1.4535,1.512,1.5113,1.5131,1.5294,1.5421,1.5535,1.5777,1.5785,1.5571,1.5143,1.4767,1.411,1.3073,1.2417,1.1814,1.0672,0.9743,0.8965,0.8312,0.7931,0.721,0.721,0.7043,0.6932,0.6818,0.6487,0.6151,0.5929,0.565,0.5093,0.5093,0.4925,0.4648,0.4424,0.4257,0.4201,0.4145,0.4033,0.3698,0.3643,0.3643,0.3587,0.3587,0.3587,0.3587,0.3587,0.3587,0.3587,0.3587,0.3587,0.3587,0.3587,0.3587,0.3587,0.3587,0.3587,0.3587,0.3587,0.3587,0.3587,0.3587,0.3587,0.3587,0.3587,0.3587,0.3587,0.3755,0.3699,0.3755,0.3587,0.3643,0.3866,0.4702,0.4869,0.5146,0.5367,0.5975,0.6531,0.6864,0.7304,0.8247,0.8913,0.9574,1.0014,0.9853,0.9574,1.0021,1.0464,1.0852,1.1295,1.1623,1.1837,1.1951,1.2005,1.2005,1.206,1.2001,1.2055,1.2219,1.2287,1.2306,1.2382,1.2382,1.2382,1.2382,1.2382,1.2382,1.2382,1.2382,1.2382,1.2382,1.2545,1.3034,1.3521,1.384,1.4159,1.5077,1.5038,1.5038,1.5188,1.5395,1.56,1.5458,1.4928,1.4874,1.411,1.2856,1.2146,1.1269,1.0453,0.9144,0.8484,0.826,0.7543,0.721,0.7043,0.6877,0.6654,0.6376,0.6262,0.5873,0.5539,0.5316,0.5093,0.4534,0.4479,0.4201,0.3867,0.3811,0.3755,0.3755,0.3755,0.3698,0.3643,0.3587,0.3587,0.3587,0.3587,0.3587,0.3587,0.3587,0.3587,0.3587,0.3587,0.3587,0.3587,0.3587,0.3587,0.3587,0.3587,0.3587,0.3587,0.3587,0.3587,0.3587,0.3587,0.3587,0.3587,0.3587,0.3587,0.3587,0.3587,0.3587,0.3587,0.3587,0.3587,0.3755,0.3811,0.3867,0.3921,0.3921,0.4479,0.5148,0.5592,0.6033,0.67,0.7307,0.7802,0.7968,0.7971,0.8358,0.8748,0.9192,0.9746,1.03,1.135,1.1514,1.1568,1.1623,1.1678,1.1686,1.1772,1.1859,1.1973,1.2069,1.2083,1.221,1.2332,1.2327,1.2327,1.2382,1.2382,1.2382,1.2382,1.2382,1.2382,1.2382,1.2491,1.3034,1.2871,1.3137,1.4289,1.397,1.4144,1.4167,1.4132,1.4534,1.4595,1.4331,1.3398,1.2526,1.2146,1.0288,0.9523,0.903,0.8039,0.7709,0.7321,0.6985,0.6654,0.6487,0.6265,0.5929,0.5706,0.5594,0.526,0.4925,0.4702,0.4479,0.4033,0.3866,0.3866,0.3643,0.3587,0.3587,0.3587,0.3587,0.3587,0.3587,0.3587,0.3587,0.3587,0.3587,0.3587,0.3587,0.3587,0.3587,0.3587,0.3587,0.3587,0.3587,0.3587,0.3587,0.3587,0.3587,0.3587,0.3587,0.3587,0.3587,0.3587,0.3587,0.3587,0.3587,0.3587,0.3587,0.3587,0.3587,0.3587,0.3587,0.3587,0.3587,0.3587,0.3587,0.3587,0.3587,0.3587,0.3867,0.4424,0.459,0.5035,0.5534,0.6144,0.642,0.6531,0.6753,0.7196,0.7473,0.7867,0.8481,0.9313,1.0308,1.1131,1.124,1.1401,1.1474,1.161,1.1696,1.1702,1.1735,1.1806,1.187,1.1991,1.2119,1.2223,1.2273,1.2273,1.2327,1.2382,1.2382,1.2382,1.2382,1.2382,1.2382,1.2382,1.2387,1.2441,1.3673,1.3266,1.3406,1.3363,1.3209,1.3273,1.3186,1.2861,1.2254,1.1601,1.0507,0.9196,0.8318,0.7983,0.7487,0.7099,0.6821,0.6541,0.6262,0.5873,0.5539,0.5316,0.5148,0.4981,0.4648,0.4369,0.4089,0.3977,0.3643,0.3587,0.3587,0.3587,0.3587,0.3587,0.3587,0.3587,0.3587,0.3587,0.3587,0.3587,0.3587,0.3587,0.3587,0.3587,0.3587,0.3587,0.3531,0.3531,0.3418,0.3363,0.3307,0.3253,0.3253,0.3197,0.3307,0.3307,0.3362,0.3362,0.3418,0.3531,0.3587,0.3587,0.3587,0.3587,0.3587,0.3587,0.3587,0.3587,0.3587,0.3587,0.3587,0.3587,0.3587,0.3587,0.3587,0.3587,0.3643,0.3643,0.4089,0.459,0.5035,0.5367,0.5588,0.5755,0.5977,0.6255,0.6662,0.7187,0.8128,0.9231,1.026,1.0852,1.1101,1.1279,1.1428,1.1539,1.1535,1.16,1.172,1.1798,1.1848,1.1891,1.1982,1.2055,1.2164,1.2164,1.2219,1.2327,1.2382,1.2382,1.2332,1.2387,1.2387,1.2382,1.2382,1.3152,1.2721,1.2737,1.2552,1.239,1.2026,1.1548,1.0937,1.1289,1.055,0.8865,0.8429,0.7873,0.7263,0.6988,0.6654,0.6318,0.5984,0.565,0.5316,0.5037,0.4758,0.4536,0.4424,0.4145,0.3811,0.3643,0.3699,0.3643,0.3587,0.3587,0.3587,0.3587,0.3587,0.3587,0.3587,0.3587,0.3587,0.3531,0.3475,0.3587,0.3587,0.3587,0.3531,0.3475,0.3475,0.3418,0.3306,0.3081,0.297,0.2915,0.275,0.275,0.2806,0.2917,0.2971,0.3083,0.3083,0.3139,0.3251,0.3421,0.3419,0.3531,0.3475,0.3419,0.3587,0.3587,0.3587,0.3587,0.3587,0.3587,0.3587,0.3587,0.3587,0.3587,0.3587,0.3587,0.3587,0.3755,0.4145,0.4201,0.4533,0.4477,0.4644,0.4866,0.5146,0.5402,0.5881,0.674,0.7962,0.9035,1.0061,1.0429,1.0703,1.1259,1.1305,1.1387,1.1416,1.1581,1.162,1.1646,1.1675,1.1748,1.1826,1.1896,1.1946,1.2001,1.2114,1.2169,1.2169,1.2223,1.2278,1.2332,1.2332,1.2382,1.2662,1.2147,1.192,1.145,1.0888,1.0915,1.0146,0.9017,0.9125,0.8924,0.8413,0.7817,0.7152,0.6596,0.6485,0.6209,0.565,0.5316,0.4927,0.4592,0.4369,0.4201,0.3867,0.3921,0.3754,0.3643,0.3587,0.3587,0.3587,0.3587,0.3587,0.3587,0.3587,0.3531,0.3531,0.3531,0.3475,0.3475,0.3307,0.3363,0.3475,0.3306,0.325,0.3138,0.3082,0.2973,0.2917,0.2861,0.2805,0.2748,0.275,0.2693,0.2693,0.2693,0.2693,0.2806,0.2805,0.2805,0.2805,0.2917,0.3029,0.2973,0.2973,0.3083,0.3195,0.3475,0.3587,0.3587,0.3587,0.3587,0.3587,0.3587,0.3587,0.3587,0.3531,0.3531,0.3587,0.3587,0.3587,0.3587,0.3587,0.3587,0.3587,0.3643,0.3754,0.3944,0.4039,0.4467,0.5352,0.6391,0.7593,0.86,0.9416,0.988,1.0574,1.1265,1.1413,1.1425,1.1516,1.1511,1.1457,1.1496,1.1513,1.1588,1.1678,1.1735,1.1749,1.1741,1.1796,1.19,1.2005,1.206,1.2169,1.2169,1.2332,1.2127,1.1614,1.117,1.0492,0.9807,0.9605,0.9001,0.8225,0.7597,0.7394,0.7408,0.6959,0.6487,0.5984,0.5873,0.5594,0.5037,0.4702,0.4369,0.4035,0.3867,0.3755,0.3587,0.3587,0.3643,0.3587,0.3587,0.3587,0.3587,0.3587,0.3587,0.3531,0.3475,0.3362,0.3362,0.3307,0.3253,0.3198,0.2971,0.3027,0.3197,0.3027,0.2915,0.2861,0.2805,0.2693,0.2637,0.2581,0.2468,0.2412,0.2356,0.2412,0.2356,0.23,0.2356,0.2412,0.2468,0.2468,0.2524,0.2581,0.2637,0.2637,0.2693,0.2861,0.2861,0.3141,0.3363,0.3419,0.3587,0.3587,0.3531,0.3475,0.3531,0.3531,0.3307,0.3139,0.3251,0.3306,0.3419,0.3587,0.3587,0.3587,0.3587,0.3587,0.3708,0.3751,0.373,0.3786,0.4504,0.4993,0.6205,0.7287,0.8142,0.9112,0.9978,1.0848,1.158,1.1524,1.1378,1.1458,1.1441,1.1349,1.1317,1.1381,1.1462,1.1569,1.1616,1.1534,1.1608,1.175,1.1796,1.1841,1.1896,1.2005,1.2114,1.1389,1.0824,1.033,0.9587,0.8791,0.8195,0.7795,0.7469,0.6524,0.5938,0.597,0.6001,0.5699,0.5425,0.526,0.4869,0.4534,0.4311,0.3977,0.3811,0.3643,0.3587,0.3587,0.3587,0.3587,0.3587,0.3587,0.3531,0.3475,0.3475,0.3419,0.3419,0.325,0.3081,0.297,0.2861,0.2806,0.2806,0.2692,0.2636,0.2637,0.2637,0.2637,0.2637,0.2581,0.2581,0.2468,0.2356,0.2188,0.2076,0.2019,0.2019,0.2075,0.2019,0.2075,0.2132,0.2188,0.2188,0.2188,0.2356,0.2468,0.2525,0.2581,0.2637,0.2581,0.2748,0.3029,0.3195,0.3363,0.3419,0.3363,0.3307,0.3363,0.3307,0.3029,0.2805,0.2915,0.3082,0.3306,0.3531,0.3587,0.3587,0.359,0.359,0.3624,0.3666,0.3719,0.3775,0.3996,0.4312,0.4994,0.6095,0.7033,0.8053,0.9145,1.013,1.0984,1.1224,1.1117,1.1311,1.1412,1.131,1.1239,1.1182,1.1268,1.141,1.1477,1.1457,1.1531,1.1537,1.1527,1.1514,1.1623,1.1732,1.1896,0.9961,0.9225,0.9111,0.8368,0.7325,0.7098,0.6503,0.5676,0.5466,0.5116,0.4862,0.4827,0.4758,0.4702,0.4704,0.4369,0.3977,0.3866,0.381,0.3643,0.3587,0.3587,0.3587,0.3531,0.3587,0.3587,0.3475,0.3418,0.3251,0.3194,0.3083,0.2917,0.2861,0.2748,0.2748,0.2637,0.2581,0.2525,0.2412,0.23,0.23,0.23,0.23,0.2188,0.2075,0.2019,0.1963,0.1907,0.1907,0.1851,0.1851,0.1851,0.1851,0.1851,0.1907,0.1907,0.1963,0.1963,0.2019,0.2075,0.2132,0.2132,0.2132,0.2188,0.2244,0.23,0.2524,0.2748,0.2861,0.2917,0.2861,0.2861,0.2861,0.2861,0.2636,0.2636,0.2748,0.2914,0.3081,0.3306,0.3419,0.3481,0.3601,0.362,0.3661,0.3711,0.3837,0.389,0.386,0.3949,0.4036,0.4896,0.5941,0.6923,0.8005,0.9191,1.0073,1.0443,1.0838,1.1078,1.1251,1.1301,1.1216,1.1257,1.12,1.1331,1.1331,1.1408,1.1274,1.1226,1.1194,1.119,1.1295,1.1404,1.1623]}]]